[[{"header":{"parameterUnit":"m.s-1","parameterCategory":1,"la1":31.0,"la2":29.5877,"lo1":-88.7671,"lo2":-86.6584,"dy":0.0162,"dx":0.0185,"nx":115,"ny":88,"refTime":"2023-04-05T18:00:00:Z","depth":0,"parameterNumber":2,"parameterNumberName":"U-component_of_WINDS"},"data":[0.0,0.0,0.0,0.0,0.0,0.0,0.0,0.0,0.0,0.0,0.0,0.0,0.0,0.0,0.0,0.0,0.0,0.0,0.0,0.0,0.0,0.0,0.0,0.0,0.0,0.0,0.0,0.0,0.0,0.0,0.0,0.0,0.0,0.0,0.0,0.0,0.0,0.0,0.0,0.0,0.0,0.0,0.0,0.0,0.0,0.0,0.0,0.0,0.0,0.0,0.0,0.0,0.0,0.0,0.0,0.0,0.0,0.0,0.0,0.0,0.0,0.0,0.0,0.0,0.0,0.0,0.0,0.0,0.0,0.0,0.0,0.0,0.0,0.0,0.0,0.0,0.0,0.0,0.0,0.0,0.0,0.0,0.0,0.0,0.0,0.0,0.0,0.0,0.0,0.0,0.0,0.0,0.0,0.0,0.0,0.0,0.0,0.0,0.0,0.0,0.0,0.0,0.0,0.0,0.0,0.0,0.0,0.0,0.0,0.0,0.0,0.0,0.0,0.0,0.0,0.0,0.0,0.0,0.0,0.0,0.0,0.0,0.0,0.0,0.0,0.0,0.0,0.0,0.0,0.0,0.0,0.0,0.0,0.0,0.0,0.0,0.0,0.0,0.0,0.0,0.0,0.0,0.0,0.0,0.0,0.0,0.0,0.0,0.0,0.0,0.0,0.0,0.0,0.0,0.0,0.0,0.0,0.0,0.0,0.0,0.0,0.0,0.0,0.0,0.0,0.0,0.0,0.0,0.0,0.0,0.0,0.0,0.0,0.0,0.0,0.0,0.0,0.0,0.0,0.0,0.0,0.0,0.0,0.0,0.0,0.0,0.0,0.0,0.0,0.0,0.0,0.0,0.0,0.0,0.0,0.0,0.0,0.0,0.0,0.0,0.0,0.0,0.0,0.0,0.0,0.0,0.0,0.0,0.0,0.0,0.0,0.0,0.0,0.0,0.0,0.0,0.0,0.0,0.0,0.0,0.0,0.0,0.0,0.0,0.0,0.0,0.0,0.0,0.0,0.0,0.0,0.0,0.0,0.0,0.0,0.0,0.0,0.0,0.0,0.0,0.0,0.0,0.0,0.0,0.0,0.0,0.0,0.0,0.0,0.0,0.0,0.0,0.0,0.0,0.0,0.0,0.0,0.0,0.0,0.0,0.0,0.0,0.0,0.0,0.0,0.0,0.0,0.0,0.0,0.0,0.0,0.0,0.0,0.0,0.0,0.0,0.0,0.0,0.0,0.0,0.0,0.0,0.0,0.0,0.0,0.0,0.0,0.0,0.0,0.0,0.0,0.0,0.0,0.0,0.0,0.0,0.0,0.0,0.0,0.0,0.0,0.0,0.0,0.0,0.0,0.0,0.0,0.0,0.0,0.0,0.0,0.0,0.0,0.0,0.0,0.0,0.0,0.0,0.0,0.0,0.0,0.0,0.0,0.0,0.0,0.0,0.0,0.0,0.0,0.0,0.0,0.0,0.0,0.0,0.0,0.0,0.0,0.0,0.0,0.0,0.0,0.0,0.0,0.0,0.0,0.0,0.0,0.0,0.0,0.0,0.0,0.0,0.0,0.0,0.0,0.0,0.0,0.0,0.0,0.0,0.0,0.0,0.0,0.0,0.0,0.0,0.0,0.0,0.0,0.0,0.0,0.0,0.0,0.0,0.0,0.0,0.0,0.0,0.0,0.0,0.0,0.0,0.0,0.0,0.0,0.0,0.0,0.0,0.0,0.0,0.0,0.0,0.0,0.0,0.0,0.0,0.0,0.0,0.0,0.0,0.0,0.0,0.0,0.0,0.0,0.0,0.0,0.0,0.0,0.0,0.0,0.0,0.0,0.0,0.0,0.0,0.0,0.0,0.0,0.0,0.0,0.0,0.0,0.0,0.0,0.0,0.0,0.0,0.0,0.0,0.0,0.0,0.0,0.0,0.0,0.0,0.0,0.0,0.0,0.0,0.0,0.0,0.0,0.0,0.0,0.0,0.0,0.0,0.0,0.0,0.0,0.0,0.0,0.0,0.0,0.0,0.0,0.0,0.0,0.0,0.0,0.0,0.0,0.0,0.0,0.0,0.0,0.0,0.0,0.0,0.0,0.0,0.0,0.0,0.0,0.0,0.0,0.0,0.0,0.0,0.0,0.0,0.0,0.0,0.0,0.0,0.0,0.0,0.0,0.0,0.0,0.0,0.0,0.0,0.0,0.0,0.0,0.0,0.0,0.0,0.0,0.0,0.0,0.0,0.0,0.0,0.0,0.0,0.0,0.0,0.0,0.0,0.0,0.0,0.0,0.0,0.0,0.0,0.0,0.0,0.0,0.0,0.0,0.0,0.0,0.0,0.0,0.0,0.0,0.0,0.0,0.0,0.0,0.0,0.0,0.0,0.0,0.0,0.0,0.0,0.0,0.0,0.0,0.0,0.0,0.0,0.0,0.0,0.0,0.0,0.0,0.0,0.0,0.0,0.0,0.0,0.0,0.0,0.0,0.0,0.0,0.0,0.0,0.0,0.0,0.0,0.0,0.0,0.0,0.0,0.0,0.0,0.0,0.0,0.0,0.0,0.0,0.0,0.0,0.0,0.0,0.0,0.0,0.0,0.0,0.0,0.0,0.0,0.0,0.0,0.0,0.0,0.0,0.0,0.0,0.0,0.0,0.0,0.0,0.0,0.0,0.0,0.0,0.0,0.0,0.0,0.0,0.0,0.0,0.0,0.0,0.0,0.0,0.0,0.0,0.0,0.0,0.0,0.0,0.0,0.0,0.0,0.0,0.0,0.0,0.0,0.0,0.0,0.0,0.0,0.0,0.0,0.0,0.0,0.0,0.0,0.0,0.0,0.0,0.0,0.0,0.0,0.0,0.0,0.0,0.0,0.0,0.0,0.0,0.0,0.0,0.0,0.0,0.0,0.0,0.0,0.0,0.0,0.0,0.0,0.0,0.0,0.0,0.0,0.0,0.0,0.0,0.0,0.0,0.0,0.0,0.0,0.0,0.0,0.0,0.0,0.0,0.0,0.0,0.0,0.0,0.0,0.0,0.0,0.0,0.0,0.0,0.0,0.0,0.0,0.0,0.0,0.0,0.0,0.0,0.0,0.0,0.0,0.0,0.0,0.0,0.0,0.0,0.0,0.0,0.0,0.0,0.0,0.0,0.0,0.0,0.0,0.0,0.0,0.0,0.0,0.0,0.0,0.0,0.0,0.0,0.0,0.0,0.0,0.0,0.0,0.0,0.0,0.0,0.0,0.0,0.0,0.0,0.0,0.0,0.0,0.0,0.0,0.0,0.0,0.0,0.0,0.0,0.0,0.0,0.0,0.0,0.0,0.0,0.0,0.0,0.0,0.0,0.0,0.0,0.0,0.0,0.0,0.0,0.0,0.0,0.0,0.0,0.0,0.0,0.0,0.0,0.0,0.0,0.0,0.0,0.0,0.0,0.0,0.0,0.0,0.0,0.0,0.0,0.0,0.0,0.0,0.0,0.0,0.0,0.0,0.0,0.0,0.0,0.0,0.0,0.0,0.0,0.0,0.0,0.0,0.0,0.0,0.0,0.0,0.0,0.0,0.0,0.0,0.0,0.0,0.0,0.0,0.0,0.0,0.0,0.0,0.0,0.0,0.0,0.0,0.0,0.0,0.0,0.0,0.0,0.0,0.0,0.0,0.0,0.0,0.0,0.0,0.0,0.0,0.0,0.0,0.0,0.0,0.0,0.0,0.0,0.0,0.0,0.0,0.0,0.0,0.0,0.0,0.0,0.0,0.0,0.0,0.0,0.0,0.0,0.0,0.0,0.0,0.0,0.0,0.0,0.0,0.0,0.0,0.0,0.0,0.0,0.0,0.0,0.0,0.0,0.0,0.0,0.0,0.0,0.0,0.0,0.0,0.0,0.0,0.0,0.0,0.0,0.0,0.0,0.0,0.0,0.0,0.0,0.0,0.0,0.0,0.0,0.0,0.0,0.0,0.0,0.0,0.0,0.0,0.0,0.0,0.0,0.0,0.0,0.0,0.0,0.0,0.0,0.0,0.0,0.0,0.0,0.0,0.0,0.0,0.0,0.0,0.0,0.0,0.0,0.0,0.0,0.0,0.0,0.0,0.0,0.0,0.0,0.0,0.0,0.0,0.0,0.0,0.0,0.0,0.0,0.0,0.0,0.0,0.0,0.0,0.0,0.0,0.0,0.0,0.0,0.0,0.0,0.0,0.0,0.0,0.0,0.0,0.0,0.0,0.0,0.0,0.0,0.0,0.0,0.0,0.0,0.0,0.0,0.0,0.0,0.0,0.0,0.0,0.494,0.0,0.0,0.0,0.0,0.0,0.0,0.0,0.0,0.0,0.0,0.0,0.0,0.0,0.0,0.0,0.0,0.0,0.0,0.0,0.0,0.0,0.0,0.0,0.0,0.0,0.0,0.0,0.0,0.0,0.0,0.0,0.0,0.0,0.0,0.0,0.0,0.0,0.0,0.0,0.0,0.0,0.0,0.0,0.0,0.0,0.0,0.0,0.0,0.0,0.0,0.0,0.0,0.0,0.0,0.0,0.0,0.0,0.0,0.0,0.0,0.0,0.0,0.0,0.0,0.0,0.0,0.0,0.0,0.0,0.0,0.0,0.0,0.0,0.0,0.0,0.0,0.0,0.0,0.0,0.0,0.0,0.0,0.0,0.0,0.0,0.0,0.0,0.0,0.0,0.0,0.0,0.0,0.0,0.0,0.0,0.0,0.0,0.0,0.0,0.0,0.0,0.0,0.0,0.0,0.0,0.0,0.0,0.0,0.0,0.0,0.5237,0.5189,0.5156,0.5092,0.5016,0.0,0.0,0.0,0.0,0.0,0.0,0.0,0.0,0.0,0.0,0.0,0.0,0.0,0.0,0.0,0.0,0.0,0.0,0.0,0.0,0.0,0.0,0.0,0.0,0.0,0.0,0.0,0.0,0.0,0.0,0.0,0.0,0.0,0.0,0.0,0.0,0.0,0.0,0.0,0.0,0.0,0.0,0.0,0.0,0.0,0.0,0.0,0.0,0.0,0.0,0.0,0.0,0.0,0.0,0.0,0.0,0.0,0.0,0.0,0.0,0.0,0.0,0.0,0.0,0.0,0.0,0.0,0.0,0.0,0.0,0.0,0.0,0.0,0.0,0.0,0.0,0.0,0.0,0.0,0.0,0.0,0.0,0.0,0.0,0.0,0.0,0.0,0.0,0.0,0.0,0.0,0.0,0.0,0.0,0.0,0.0,0.0,0.0,0.0,0.0,0.0,0.0,0.0,0.0,0.0,0.0,0.0,0.0,0.0,0.0,0.0,0.0,0.5205,0.5165,0.5102,0.0,0.0,0.0,0.0,0.0,0.0,0.0,0.0,0.0,0.0,0.0,0.0,0.0,0.0,0.0,0.0,0.0,0.0,0.0,0.0,0.0,0.0,0.0,0.0,0.0,0.0,0.0,0.0,0.0,0.0,0.0,0.0,0.0,0.0,0.0,0.0,0.0,0.0,0.0,0.0,0.0,0.0,0.0,0.0,0.0,0.0,0.0,0.0,0.0,0.0,0.0,0.0,0.0,0.0,0.0,0.0,0.0,0.0,0.0,0.0,0.0,0.0,0.0,0.0,0.0,0.0,0.0,0.0,0.0,0.0,0.0,0.0,0.0,0.0,0.0,0.0,0.0,0.0,0.0,0.0,0.0,0.0,0.0,0.0,0.0,0.0,0.0,0.0,0.0,0.0,0.0,0.0,0.0,0.0,0.0,0.0,0.0,0.0,0.0,0.0,0.0,0.0,0.0,0.0,0.0,0.0,0.0,0.0,0.0,0.0,0.5709,0.5646,0.5513,0.0,0.5385,0.0,0.0,0.0,0.0,0.0,0.0,0.0,0.0,0.0,0.0,0.0,0.0,0.0,0.0,0.0,0.0,0.0,0.0,0.0,0.0,0.0,0.0,0.0,0.0,0.0,0.0,0.0,0.0,0.0,0.0,0.0,0.0,0.0,0.0,0.0,0.0,0.0,0.0,0.0,0.0,0.0,0.0,0.0,0.0,0.0,0.0,0.0,0.0,0.0,0.0,0.0,0.0,0.0,0.0,0.0,0.0,0.0,0.0,0.0,0.0,0.0,0.0,0.0,0.0,0.0,0.0,0.0,0.0,0.0,0.0,0.0,0.0,0.0,0.0,0.0,0.0,0.0,0.0,0.0,0.0,0.0,0.0,0.0,0.0,0.0,0.0,0.0,0.0,0.0,0.0,0.0,0.0,0.0,0.0,0.0,0.0,0.0,0.0,0.0,0.0,0.0,0.0,0.0,0.0,0.0,0.0,0.0,0.0,0.0,0.0,0.5625,0.5522,0.5398,0.5292,0.0,0.0,0.0,0.0,0.0,0.0,0.0,0.0,0.0,0.0,0.0,0.0,0.0,0.0,0.0,0.0,0.0,0.0,0.0,0.0,0.0,0.0,0.0,0.0,0.0,0.0,0.0,0.0,0.0,0.0,0.0,0.0,0.0,0.0,0.0,0.0,0.0,0.0,0.0,0.0,0.0,0.0,0.0,0.0,0.0,0.0,0.0,0.0,0.0,0.0,0.0,0.0,0.0,0.0,0.0,0.0,0.0,0.0,0.0,0.0,0.0,0.0,0.0,0.0,0.0,0.0,0.0,0.0,0.0,0.0,0.0,0.0,0.0,0.0,0.0,0.0,0.0,0.0,0.0,0.0,0.0,0.0,0.0,0.0,0.0,0.0,0.0,0.0,0.0,0.0,0.0,0.0,0.0,0.0,0.0,0.0,0.0,0.0,0.0,0.0,0.0,0.0,0.0,0.0,0.0,0.0,0.0,0.0,0.0,0.0,0.5501,0.5426,0.5263,0.5137,0.5068,0.5029,0.0,0.0,0.0,0.0,0.0,0.0,0.0,0.0,0.0,0.0,0.0,0.0,0.0,0.0,0.0,0.0,0.0,0.0,0.0,0.0,0.0,0.0,0.0,0.0,0.0,0.0,0.0,0.0,0.0,0.0,0.0,0.0,0.0,0.0,0.0,0.0,0.0,0.0,0.0,0.0,0.0,0.0,0.0,0.0,0.0,0.0,0.0,0.0,0.0,0.0,0.0,0.0,0.0,0.0,0.0,0.0,0.0,0.0,0.0,0.0,0.0,0.0,0.0,0.0,0.0,0.0,0.0,0.0,0.0,0.0,0.0,0.0,0.0,0.0,0.0,0.0,0.0,0.0,0.0,0.0,0.0,0.0,0.0,0.0,0.0,0.0,0.0,0.0,0.0,0.0,0.0,0.0,0.0,0.0,0.0,0.0,0.0,0.0,0.0,0.0,0.0,0.0,0.0,0.0,0.0,0.0,0.0,0.0,0.531,0.5253,0.5127,0.4942,0.4843,0.4822,0.0,0.0,0.0,0.0,0.0,0.0,0.0,0.0,0.0,0.0,0.0,0.0,0.0,0.0,0.0,0.0,0.0,0.0,0.0,0.0,0.0,0.0,0.0,0.0,0.0,0.0,0.0,0.0,0.0,0.0,0.0,0.0,0.0,0.0,0.0,0.0,0.0,0.0,0.0,0.0,0.0,0.0,0.0,0.0,0.0,0.0,0.0,0.0,0.0,0.0,0.0,0.0,0.0,0.0,0.0,0.0,0.0,0.0,0.0,0.0,0.0,0.0,0.0,0.0,0.0,0.0,0.0,0.0,0.0,0.0,0.0,0.0,0.0,0.0,0.0,0.0,0.0,0.0,0.0,0.0,0.0,0.0,0.0,0.0,0.0,0.0,0.0,0.0,0.0,0.0,0.0,0.0,0.0,0.0,0.0,0.0,0.0,0.0,0.0,0.0,0.0,0.0,0.0,0.0,0.0,0.0,0.0,0.0,0.0,0.5108,0.4951,0.4793,0.4665,0.4575,0.4534,0.0,0.0,0.0,0.0,0.0,0.0,0.0,0.0,0.0,0.0,0.0,0.0,0.0,0.0,0.0,0.0,0.0,0.0,0.0,0.0,0.0,0.0,0.0,0.0,0.0,0.0,0.0,0.0,0.0,0.0,0.0,0.0,0.0,0.0,0.0,0.0,0.0,0.0,0.0,0.0,0.0,0.0,0.0,0.0,0.0,0.0,0.0,0.0,0.0,0.0,0.0,0.0,0.0,0.0,0.0,0.0,0.0,0.0,0.0,0.0,0.0,0.0,0.0,0.0,0.0,0.0,0.0,0.0,0.0,0.0,0.0,0.0,0.0,0.0,0.0,0.0,0.0,0.0,0.0,0.0,0.0,0.0,0.0,0.0,0.0,0.0,0.0,0.0,0.0,0.0,0.0,0.0,0.0,0.0,0.0,0.0,0.0,0.0,0.0,0.0,0.0,0.0,0.0,0.0,0.0,0.0,0.0,0.0,0.0,0.4783,0.0,0.4462,0.4344,0.4271,0.4219,0.0,0.0,0.0,0.0,0.0,0.0,0.0,0.0,0.0,0.0,0.0,0.0,0.0,0.0,0.0,0.0,0.0,0.0,0.0,0.0,0.0,0.0,0.0,0.0,0.0,0.0,0.0,0.0,0.0,0.0,0.0,0.0,0.0,0.0,0.0,0.0,0.0,0.0,0.0,0.0,0.0,0.0,0.0,0.0,0.0,0.0,0.0,0.0,0.0,0.0,0.0,0.0,0.0,0.0,0.0,0.0,0.0,0.0,0.0,0.0,0.0,0.0,0.0,0.0,0.0,0.0,0.0,0.0,0.0,0.0,0.0,0.0,0.0,0.0,0.0,0.0,0.0,0.0,0.0,0.0,0.0,0.0,0.0,0.0,0.0,0.0,0.0,0.0,0.0,0.0,0.0,0.0,0.0,0.0,0.0,0.0,0.0,0.0,0.0,0.0,0.0,0.0,0.0,0.0,0.0,0.0,0.0,0.0,0.4624,0.4305,0.423,0.4143,0.3991,0.3942,0.3929,0.0,0.0,0.0,0.0,0.0,0.0,0.0,0.0,0.0,0.0,0.0,0.0,0.0,0.0,0.0,0.0,0.0,0.0,0.0,0.0,0.0,0.0,0.0,0.0,0.0,0.0,0.0,0.0,0.0,0.0,0.0,0.0,0.0,0.0,0.0,0.0,0.0,0.0,0.0,0.0,0.0,0.0,0.0,0.0,0.0,0.0,0.0,0.0,0.0,0.0,0.0,0.0,0.0,0.0,0.0,0.0,0.0,0.0,0.0,0.0,0.0,0.0,0.0,0.0,0.0,0.0,0.0,0.0,0.0,0.0,0.0,0.0,0.0,0.0,0.0,0.0,0.0,0.0,0.0,0.0,0.0,0.0,0.0,0.0,0.0,0.0,0.0,0.0,0.0,0.0,0.0,0.0,0.0,0.0,0.0,0.0,0.0,0.0,0.0,0.0,0.0,0.0,0.0,0.0,0.0,0.0,0.0,0.0,0.0,0.4024,0.3955,0.3852,0.3727,0.3713,0.3692,0.0,0.0,0.0,0.0,0.0,0.0,0.0,0.0,0.0,0.0,0.0,0.0,0.0,0.0,0.0,0.0,0.0,0.0,0.0,0.0,0.0,0.0,0.0,0.0,0.0,0.0,0.0,0.0,0.0,0.0,0.0,0.0,0.0,0.0,0.0,0.0,0.0,0.0,0.0,0.0,0.0,0.0,0.0,0.0,0.0,0.0,0.0,0.0,0.0,0.0,0.0,0.0,0.0,0.0,0.0,0.0,0.0,0.0,0.0,0.0,0.0,0.0,0.0,0.0,0.0,0.0,0.0,0.0,0.0,0.0,0.0,0.0,0.0,0.0,0.0,0.0,0.0,0.0,0.0,0.0,0.0,0.0,0.0,0.0,0.0,0.0,0.0,0.0,0.0,0.0,0.0,0.0,0.0,0.0,0.0,0.0,0.0,0.0,0.0,0.0,0.0,0.0,0.0,0.0,0.0,0.0,0.0,0.0,0.0,0.3919,0.3835,0.375,0.3754,0.3765,0.3737,0.3721,0.0,0.0,0.0,0.0,0.0,0.0,0.0,0.0,0.0,0.0,0.0,0.0,0.0,0.0,0.0,0.0,0.0,0.0,0.0,0.0,0.0,0.0,0.0,0.0,0.0,0.0,0.0,0.0,0.0,0.0,0.0,0.0,0.0,0.0,0.0,0.0,0.0,0.0,0.0,0.0,0.0,0.0,0.0,0.0,0.0,0.0,0.0,0.0,0.0,0.0,0.0,0.0,0.0,0.0,0.0,0.0,0.0,0.0,0.0,0.0,0.0,0.0,0.0,0.0,0.0,0.0,0.0,0.0,0.0,0.0,0.0,0.0,0.0,0.0,0.0,0.0,0.0,0.0,0.0,0.0,0.0,0.0,0.0,0.0,0.0,0.0,0.0,0.0,0.0,0.0,0.0,0.0,0.0,0.0,0.0,0.0,0.0,0.0,0.0,0.0,0.0,0.0,0.0,0.0,0.0,0.0,0.0,0.0,0.4008,0.3816,0.3804,0.396,0.3991,0.403,0.0,0.0,0.0,0.0,0.0,0.0,0.0,0.0,0.0,0.0,0.0,0.0,0.0,0.0,0.0,0.0,0.0,0.0,0.0,0.0,0.0,0.0,0.0,0.0,0.0,0.0,0.0,0.0,0.0,0.0,0.0,0.0,0.0,0.0,0.0,0.0,0.0,0.0,0.0,0.0,0.0,0.0,0.0,0.0,0.0,0.0,0.0,0.0,0.0,0.0,0.0,0.0,0.0,0.0,0.0,0.0,0.0,0.0,0.0,0.0,0.0,0.0,0.0,0.0,0.0,0.0,0.0,0.0,0.0,0.0,0.0,0.0,0.0,0.0,0.0,0.0,0.0,0.0,0.0,0.0,0.0,0.0,0.0,0.0,0.0,0.0,0.0,0.0,0.0,0.0,0.0,0.0,0.0,0.0,0.0,0.0,0.0,0.0,0.0,0.0,0.0,0.0,0.0,0.0,0.0,0.0,0.0,0.0,0.0,0.4105,0.3995,0.3882,0.3788,0.3977,0.4002,0.0,0.0,0.0,0.0,0.0,0.0,0.0,0.0,0.0,0.0,0.0,0.0,0.0,0.0,0.0,0.0,0.0,0.0,0.0,0.0,0.0,0.0,0.0,0.0,0.0,0.0,0.0,0.0,0.0,0.0,0.0,0.0,0.0,0.0,0.0,0.0,0.0,0.0,0.0,0.0,0.0,0.0,0.0,0.0,0.0,0.0,0.0,0.0,0.0,0.0,0.0,0.0,0.0,0.0,0.0,0.0,0.0,0.0,0.0,0.0,0.0,0.0,0.0,0.0,0.0,0.0,0.0,0.0,0.0,0.0,0.0,0.0,0.0,0.0,0.0,0.0,0.0,0.0,0.0,0.0,0.0,0.0,0.0,0.0,0.0,0.0,0.0,0.0,0.0,0.0,0.0,0.0,0.0,0.0,0.0,0.0,0.0,0.0,0.0,0.0,0.0,0.0,0.0,0.0,0.0,0.0,0.0,0.0,0.3761,0.4259,0.437,0.431,0.4088,0.4241,0.4307,0.0,0.0,0.0,0.0,0.0,0.0,0.0,0.0,0.0,0.0,0.0,0.0,0.0,0.0,0.0,0.0,0.0,0.0,0.0,0.0,0.0,0.0,0.0,0.0,0.0,0.0,0.0,0.0,0.0,0.0,0.0,0.0,0.0,0.0,0.0,0.0,0.0,0.0,0.0,0.0,0.0,0.0,0.0,0.0,0.0,0.0,0.0,0.0,0.0,0.0,0.0,0.0,0.0,0.0,0.0,0.0,0.0,0.0,0.0,0.0,0.0,0.0,0.0,0.0,0.0,0.0,0.0,0.0,0.0,0.0,0.0,0.0,0.0,0.0,0.0,0.0,0.0,0.0,0.0,0.0,0.0,0.0,0.0,0.0,0.0,0.0,0.0,0.0,0.0,0.0,0.0,0.0,0.0,0.0,0.0,0.0,0.0,0.0,0.0,0.0,0.0,0.0,0.0,0.0,0.0,0.0,0.0,0.0,0.3966,0.4383,0.4748,0.4824,0.4635,0.4604,0.4676,0.0,0.0,0.0,0.0,0.0,0.0,0.0,0.0,0.0,0.0,0.0,0.0,0.0,0.0,0.0,0.0,0.0,0.0,0.0,0.0,0.0,0.0,0.0,0.0,0.0,0.0,0.0,0.0,0.0,0.0,0.0,0.0,0.0,0.0,0.0,0.0,0.0,0.0,0.0,0.0,0.0,0.0,0.0,0.0,0.0,0.0,0.0,0.0,0.0,0.0,0.0,0.0,0.0,0.0,0.0,0.0,0.0,0.0,0.0,0.0,0.0,0.0,0.0,0.0,0.0,0.0,0.0,0.0,0.0,0.0,0.0,0.0,0.0,0.0,0.0,0.0,0.0,0.0,0.0,0.0,0.0,0.0,0.0,0.0,0.0,0.0,0.0,0.0,0.0,0.0,0.0,0.0,0.0,0.0,0.0,0.0,0.0,0.0,0.0,0.0,0.0,0.0,0.0,0.0,0.0,0.0,0.0,0.0,0.3853,0.4318,0.4397,0.4559,0.4754,0.4724,0.4674,0.0,0.0,0.0,0.0,0.0,0.0,0.0,0.0,0.0,0.0,0.0,0.0,0.0,0.0,0.0,0.0,0.0,0.0,0.0,0.0,0.0,0.0,0.0,0.0,0.0,0.0,0.0,0.0,0.0,0.0,0.0,0.0,0.0,0.0,0.0,0.0,0.0,0.0,0.0,0.0,0.0,0.0,0.0,0.0,0.0,0.0,0.0,0.0,0.2091,0.0,0.0,0.0,0.0,0.0,0.0,0.0,0.0,0.0,0.0,0.0,0.0,0.0,0.0,0.0,0.0,0.0,0.0,0.0,0.0,0.0,0.0,0.0,0.0,0.0,0.0,0.0,0.0,0.0,0.0,0.0,0.0,0.0,0.0,0.0,0.0,0.0,0.0,0.0,0.0,0.0,0.0,0.0,0.0,0.0,0.0,0.0,0.0,0.0,0.0,0.0,0.0,0.0,0.0,0.0,0.0,0.0,0.0,0.0,0.3823,0.4104,0.4225,0.4418,0.4657,0.4434,0.4403,0.0,0.0,0.0,0.0,0.0,0.0,0.0,0.0,0.0,0.0,0.0,0.0,0.0,0.0,0.0,0.0,0.0,0.0,0.0,0.0,0.0,0.0,0.0,0.0,0.0,0.0,0.0,0.0,0.0,0.0,0.0,0.0,0.0,0.0,0.0,0.0,0.0,0.0,0.0,0.0,0.0,0.0,0.0,0.0,0.0,0.0,0.0,0.0,0.0,0.0,0.0,0.0,0.0,0.0,0.0,0.0,0.0,0.0,0.0,0.0,0.0,0.0,0.0,0.0,0.0,0.0,0.0,0.0,0.0,0.0,0.0,0.0,0.0,0.0,0.0,0.0,0.0,0.0,0.0,0.0,0.0,0.0,0.0,0.0,0.0,0.0,0.0,0.0,0.0,0.0,0.0,0.0,0.0,0.0,0.0,0.0,0.0,0.0,0.0,0.0,0.0,0.0,0.0,0.0,0.0,0.0,0.0,0.3581,0.381,0.3844,0.4114,0.4286,0.4366,0.4039,0.398,0.4295,0.0,0.0,0.0,0.0,0.0,0.0,0.0,0.0,0.0,0.0,0.0,0.0,0.0,0.0,0.0,0.0,0.0,0.0,0.0,0.0,0.0,0.0,0.0,0.0,0.0,0.0,0.0,0.0,0.0,0.0,0.0,0.0,0.0,0.0,0.0,0.0,0.0,0.0,0.2078,0.2019,0.0,0.0,0.0,0.0,0.0,0.0,0.0,0.0,0.1905,0.0,0.0,0.0,0.0,0.0,0.0,0.0,0.0,0.0,0.0,0.0,0.0,0.0,0.0,0.0,0.0,0.0,0.0,0.0,0.0,0.0,0.0,0.0,0.0,0.0,0.0,0.0,0.0,0.0,0.0,0.0,0.0,0.0,0.0,0.0,0.0,0.0,0.0,0.0,0.0,0.0,0.0,0.0,0.0,0.0,0.0,0.0,0.0,0.0,0.0,0.0,0.0,0.0,0.0,0.0,0.0,0.3201,0.355,0.3692,0.3644,0.3862,0.3922,0.3844,0.3707,0.3596,0.3495,0.0,0.0,0.0,0.0,0.0,0.0,0.0,0.0,0.0,0.0,0.0,0.0,0.0,0.0,0.0,0.0,0.0,0.0,0.0,0.0,0.0,0.0,0.0,0.0,0.0,0.0,0.0,0.0,0.0,0.0,0.0,0.0,0.0,0.0,0.0,0.0,0.0,0.0,0.0,0.192,0.1894,0.0,0.0,0.0,0.0,0.0,0.0,0.0,0.0,0.1736,0.0,0.0,0.0,0.0,0.0,0.0,0.0,0.0,0.0,0.0,0.0,0.0,0.0,0.0,0.0,0.0,0.0,0.0,0.0,0.0,0.0,0.0,0.0,0.0,0.0,0.0,0.0,0.0,0.0,0.0,0.0,0.0,0.0,0.0,0.0,0.0,0.0,0.0,0.0,0.0,0.0,0.0,0.0,0.0,0.0,0.0,0.0,0.0,0.0,0.0,0.0,0.0,0.0,0.0,0.0,0.3067,0.3418,0.3548,0.3463,0.3651,0.3698,0.3599,0.3479,0.3392,0.0,0.0,0.0,0.0,0.0,0.0,0.0,0.0,0.0,0.0,0.0,0.0,0.0,0.0,0.0,0.0,0.0,0.0,0.0,0.0,0.0,0.0,0.0,0.0,0.0,0.0,0.0,0.0,0.0,0.0,0.0,0.0,0.0,0.0,0.0,0.0,0.0,0.0,0.0,0.0,0.1688,0.1666,0.1643,0.0,0.0,0.0,0.0,0.0,0.0,0.1563,0.1541,0.0,0.0,0.0,0.0,0.0,0.0,0.0,0.0,0.0,0.0,0.0,0.0,0.0,0.0,0.0,0.0,0.0,0.0,0.0,0.0,0.0,0.0,0.0,0.0,0.0,0.0,0.0,0.0,0.0,0.0,0.0,0.0,0.0,0.0,0.0,0.0,0.0,0.0,0.0,0.0,0.0,0.0,0.0,0.0,0.0,0.0,0.0,0.0,0.0,0.0,0.0,0.0,0.0,0.0,0.0,0.2974,0.3273,0.3401,0.3292,0.3486,0.3537,0.3436,0.3326,0.3211,0.0,0.0,0.0,0.0,0.0,0.0,0.0,0.0,0.0,0.0,0.0,0.0,0.0,0.0,0.0,0.0,0.0,0.0,0.0,0.0,0.0,0.0,0.0,0.0,0.0,0.0,0.0,0.0,0.0,0.0,0.0,0.0,0.0,0.0,0.0,0.0,0.0,0.0,0.0,0.0,0.0,0.1444,0.1444,0.1444,0.0,0.0,0.0,0.0,0.1341,0.133,0.0,0.0,0.0,0.0,0.0,0.0,0.0,0.0,0.0,0.0,0.0,0.0,0.0,0.0,0.0,0.0,0.0,0.0,0.0,0.0,0.0,0.0,0.0,0.0,0.0,0.0,0.0,0.0,0.0,0.0,0.0,0.0,0.0,0.0,0.0,0.0,0.0,0.0,0.0,0.0,0.0,0.0,0.0,0.0,0.0,0.0,0.0,0.0,0.0,0.0,0.0,0.0,0.0,0.0,0.0,0.0,0.3082,0.3239,0.3262,0.3153,0.344,0.3442,0.3158,0.313,0.301,0.0,0.0,0.0,0.0,0.0,0.0,0.0,0.0,0.0,0.0,0.0,0.0,0.0,0.0,0.0,0.0,0.0,0.0,0.0,0.0,0.0,0.0,0.0,0.0,0.0,0.0,0.0,0.0,0.0,0.0,0.0,0.0,0.0,0.0,0.0,0.0,0.0,0.0,0.0,0.0,0.0,0.1296,0.1241,0.123,0.1208,0.0,0.0,0.115,0.115,0.1127,0.0,0.0,0.0,0.0,0.0,0.0,0.0,0.0,0.0,0.0,0.0,0.0,0.0,0.0,0.0,0.0,0.0,0.0,0.0,0.0,0.0,0.0,0.0,0.0,0.0,0.0,0.0,0.0,0.0,0.0,0.0,0.0,0.0,0.0,0.0,0.0,0.0,0.0,0.0,0.0,0.0,0.0,0.0,0.0,0.0,0.0,0.0,0.0,0.0,0.0,0.0,0.0,0.0,0.0,0.0,0.3025,0.3044,0.322,0.3266,0.3229,0.3466,0.3432,0.3111,0.312,0.2966,0.0,0.0,0.0,0.0,0.0,0.0,0.0,0.0,0.0,0.0,0.0,0.0,0.0,0.0,0.0,0.0,0.0,0.0,0.0,0.0,0.0,0.0,0.0,0.0,0.0,0.0,0.0,0.0,0.0,0.0,0.0,0.0,0.0,0.0,0.0,0.0,0.0,0.0,0.0,0.0,0.0,0.0,0.1038,0.1027,0.0,0.0,0.0,0.0886,0.0981,0.0,0.0,0.0,0.0,0.0,0.0,0.0,0.0,0.0,0.0,0.0,0.0,0.0,0.0,0.0,0.0,0.0,0.0,0.0,0.0,0.0,0.0,0.0,0.0,0.0,0.0,0.0,0.0,0.0,0.0,0.0,0.0,0.0,0.0,0.0,0.0,0.0,0.0,0.0,0.0,0.0,0.0,0.0,0.0,0.0,0.0,0.0,0.0,0.0,0.0,0.0,0.0,0.0,0.0,0.0,0.0,0.0,0.3004,0.322,0.3319,0.3306,0.35,0.3453,0.3188,0.3158,0.0,0.0,0.0,0.0,0.0,0.0,0.0,0.0,0.0,0.0,0.0,0.0,0.0,0.0,0.0,0.0,0.0,0.0,0.0,0.0,0.0,0.0,0.0,0.0,0.0,0.0,0.0,0.213,0.0,0.0,0.0,0.0,0.0,0.0,0.0,0.0,0.0,0.0,0.0,0.0,0.0,0.0,0.0926,0.0852,0.0849,0.0818,0.0,0.0,0.0691,0.0816,0.0815,0.0811,0.0,0.0,0.0,0.0,0.0,0.0,0.0,0.0,0.0,0.0,0.0,0.0,0.0,0.0,0.0,0.0,0.0,0.0,0.0,0.0,0.0,0.0,0.0,0.0,0.0,0.0,0.0,0.0,0.0,0.0,0.0,0.0,0.0,0.0,0.0,0.0,0.0,0.0,0.0,0.0,0.0,0.0,0.0,0.0,0.0,0.0,0.0,0.0,0.0,0.0,0.0,0.0,0.0,0.0,0.0,0.3011,0.3267,0.3358,0.3292,0.35,0.3522,0.3385,0.3337,0.3136,0.0,0.0,0.0,0.0,0.0,0.0,0.0,0.0,0.0,0.0,0.0,0.0,0.0,0.0,0.0,0.0,0.0,0.0,0.0,0.0,0.0,0.0,0.0,0.0,0.0,0.0,0.0,0.0,0.0,0.0,0.0,0.0,0.0,0.0,0.0,0.0,0.0,0.0,0.0,0.0,0.0,0.079,0.0715,0.0708,0.0712,0.0,0.0,0.0531,0.0596,0.0566,0.0554,0.0621,0.0,0.0,0.0,0.0,0.0,0.0,0.0,0.0,0.0,0.0,0.0,0.0,0.0,0.0,0.0,0.0,0.0,0.0,0.0,0.0,0.0,0.0,0.0,0.0,0.0,0.0,0.0,0.0,0.0,0.0,0.0,0.0,0.0,0.0,0.0,0.0,0.0,0.0,0.0,0.0,0.0,0.0,0.0,0.0,0.0,0.0,0.0,0.0,0.0,0.0,0.0,0.0,0.0,0.308,0.3112,0.3229,0.3266,0.3243,0.3303,0.3287,0.3174,0.3126,0.3014,0.0,0.0,0.0,0.0,0.0,0.0,0.0,0.0,0.0,0.0,0.0,0.0,0.0,0.0,0.0,0.0,0.0,0.0,0.0,0.0,0.0,0.0,0.0,0.0,0.0,0.0,0.0,0.0,0.1513,0.1421,0.141,0.0,0.0,0.0,0.0,0.0,0.0,0.0,0.0,0.0,0.0,0.0666,0.0646,0.061,0.0,0.0,0.0456,0.0444,0.0481,0.0494,0.0513,0.0528,0.0517,0.0,0.0,0.0,0.0,0.0,0.0,0.0,0.0,0.0,0.0,0.0,0.0,0.0,0.0,0.0,0.0,0.0,0.0,0.0,0.0,0.0,0.0,0.0,0.0,0.0,0.0,0.0,0.0,0.0,0.0,0.0,0.0,0.0,0.0,0.0,0.0,0.0,0.0,0.0,0.0,0.0,0.0,0.0,0.0,0.0,0.0,0.0,0.0,0.0,0.0,0.0,0.0,0.3142,0.314,0.3182,0.3205,0.3214,0.317,0.3081,0.2998,0.2998,0.2894,0.0,0.0,0.0,0.0,0.0,0.0,0.0,0.0,0.0,0.0,0.0,0.0,0.0,0.0,0.0,0.0,0.0,0.0,0.0,0.0,0.0,0.0,0.0,0.0,0.0,0.0,0.0,0.0,0.134,0.1205,0.1176,0.0,0.0,0.0,0.0,0.0,0.0,0.0,0.0,0.0,0.0,0.0524,0.0523,0.0493,0.0428,0.0292,0.0259,0.0226,0.029,0.0354,0.0385,0.0407,0.0,0.0,0.0,0.0,0.0,0.0,0.0,0.0,0.0,0.0,0.0,0.0,0.0,0.0,0.0,0.0,0.0,0.0,0.0,0.0,0.0,0.0,0.0,0.0,0.0,0.0,0.0,0.0,0.0,0.0,0.4806,0.0,0.0,0.0,0.0,0.0,0.0,0.0,0.0,0.0,0.0,0.0,0.0,0.0,0.0,0.0,0.0,0.0,0.0,0.0,0.0,0.0,0.0,0.3119,0.3028,0.3125,0.3186,0.3192,0.3078,0.3009,0.2981,0.2926,0.2759,0.2511,0.0,0.0,0.0,0.0,0.0,0.0,0.0,0.0,0.0,0.0,0.0,0.0,0.0,0.0,0.0,0.0,0.0,0.0,0.0,0.0,0.0,0.0,0.0,0.0,0.0,0.0,0.1303,0.1127,0.0974,0.0,0.0,0.0,0.0,0.0,0.0,0.0,0.0,0.0,0.0,0.0452,0.0387,0.0315,0.036,0.0304,0.0056,-0.009,-0.0115,0.0062,0.0118,0.0127,0.0,0.0,0.0,0.0,0.0,0.0,0.0,0.0,0.0,0.0,0.0,0.0,0.0,0.0,0.0,0.0,0.0,0.0,0.0,0.0,0.0,0.0,0.0,0.0,0.0,0.0,0.0,0.4819,0.4779,0.0,0.0,0.0,0.0,0.0,0.0,0.0,0.0,0.0,0.0,0.0,0.3493,0.3418,0.0,0.0,0.0,0.0,0.0,0.0,0.0,0.0,0.0,0.0,0.0,0.0,0.3017,0.2941,0.2887,0.2837,0.2749,0.2682,0.2615,0.2521,0.2504,0.2391,0.2166,0.0,0.0,0.0,0.0,0.0,0.0,0.0,0.0,0.0,0.0,0.0,0.0,0.0,0.0,0.0,0.0,0.0,0.0,0.0,0.0,0.0,0.0,0.0,0.0,0.0,0.1006,0.0,0.0,0.0,0.0,0.0,0.0,0.0,0.0,0.0,0.0,0.0,0.0317,0.0256,0.0181,0.0128,0.012,0.0196,0.018,0.0,0.0,0.0,0.0,0.0,0.0,0.0,0.0,0.0,0.0,0.0,0.0,0.0,0.0,0.0031,0.0356,0.0407,0.0421,0.0394,0.0,0.0,0.0,0.0,0.0,0.0,0.0,0.0,0.0,0.0,0.0,0.0,0.0,0.0,0.4285,0.0,0.4204,0.0,0.0,0.0,0.0,0.0,0.0,0.0,0.0,0.3128,0.3046,0.3084,0.3006,0.2951,0.0,0.2915,0.2963,0.0,0.0,0.0,0.0,0.0,0.0,0.0,0.0,0.2771,0.2684,0.2553,0.2442,0.2353,0.2353,0.2259,0.2125,0.2034,0.1921,0.1809,0.1757,0.1695,0.0,0.0,0.0,0.0,0.0,0.0,0.0,0.0,0.0,0.0,0.0,0.0,0.0,0.0,0.0,0.0,0.0,0.0,0.0,0.0,0.0,0.0,0.0,0.0826,0.0,0.0,0.0,0.0,0.0,0.0,0.0,0.0,0.0,0.0304,0.0159,0.0028,0.0036,-0.0063,-0.0139,-0.0137,0.0,0.0,0.0,0.0,0.0,0.0,0.0,-0.0341,-0.0314,-0.0278,-0.0249,-0.024,-0.009,0.0,-0.0158,0.0,0.0,0.0107,0.0196,0.018,0.0165,0.015,0.0134,0.0044,0.0028,0.0027,0.0,0.0,0.0,0.0,0.0,0.0,0.0,0.0,0.3506,0.3509,0.0,0.3494,0.0,0.0,0.0,0.0,0.0,0.2814,0.0,0.0,0.2595,0.2557,0.2667,0.2671,0.2671,0.2665,0.2553,0.2482,0.2499,0.2798,0.0,0.0,0.0,0.0,0.0,0.0,0.2417,0.2279,0.2156,0.207,0.207,0.2003,0.1932,0.1772,0.1524,0.1366,0.1386,0.1334,0.1282,0.1278,0.1208,0.0,0.0,0.0,0.0,0.0,0.0,0.0,0.0,0.0,0.0,0.0,0.0,0.0,0.0,0.0,0.0,0.0,0.0,0.0,0.0,0.0791,0.0,0.0,0.0,0.0,0.0,0.0,0.0,0.0,0.0,0.0,0.0106,-0.0112,-0.0267,-0.0143,0.0,0.0,0.0,0.0,-0.0282,-0.0489,-0.0911,-0.112,-0.0854,-0.0818,-0.0799,-0.0716,0.0,0.0,-0.0516,-0.042,-0.037,-0.0489,-0.0696,-0.066,-0.0152,-0.005,-0.005,-0.0101,-0.0118,-0.0165,-0.0267,-0.0276,-0.0266,0.288,0.0,0.0,0.0,0.0,0.3033,0.3055,0.3159,0.3292,0.34,0.3406,0.3239,0.0,0.0,0.0,0.0,0.0,0.0,0.2437,0.2461,0.2195,0.2081,0.2131,0.2131,0.2131,0.2128,0.2032,0.2001,0.1995,0.2056,0.2184,0.2422,0.0,0.0,0.0,0.0,0.1971,0.193,0.1776,0.1662,0.1662,0.1664,0.1524,0.13,0.1032,0.0898,0.092,0.0866,0.0848,0.08,0.0791,0.0,0.0,0.0,0.0,0.0,0.0,0.0,0.0,0.0,0.0,0.0,0.0,0.0,0.0,0.0,0.0,0.0,0.0,0.0,0.0522,0.0471,0.0411,0.0,0.0,0.0,0.0,0.0,0.0,0.0,0.0,0.0,-0.0524,-0.0601,-0.0653,0.0,0.0,-0.0828,-0.0836,-0.0581,-0.0562,-0.0951,-0.1285,0.0,-0.1188,-0.1165,-0.111,-0.1005,-0.0947,-0.0924,-0.0938,-0.0965,-0.1012,-0.1002,-0.1199,-0.1258,-0.0999,-0.0638,-0.0464,-0.0463,-0.0463,-0.0455,-0.0448,-0.0397,-0.0366,0.2255,0.2535,0.2514,0.2552,0.2629,0.2508,0.2497,0.2578,0.2688,0.2804,0.2902,0.2669,0.2617,0.2681,0.2458,0.0,0.0,0.0,0.1947,0.1918,0.1619,0.151,0.1511,0.151,0.1511,0.1509,0.1453,0.146,0.144,0.1415,0.1473,0.1644,0.0,0.0,0.1861,0.1627,0.1524,0.1503,0.1306,0.1189,0.1189,0.1118,0.0988,0.0827,0.0566,0.0427,0.0405,0.0427,0.0422,0.0346,0.0368,0.0335,0.0,0.0,0.0,0.0,0.0,0.0,0.0,0.0,0.0,0.0,0.0,0.043,0.0421,0.0,0.0,0.0,0.0372,0.0322,0.0287,0.0197,0.0,0.0,0.0,0.0,0.0,0.0,0.0,-0.0767,-0.0861,-0.0939,-0.1061,-0.1159,-0.1159,-0.095,-0.1046,-0.1111,-0.1123,0.0,-0.0905,-0.1262,-0.1596,-0.171,-0.1507,-0.1505,-0.1514,-0.1464,-0.1438,-0.1451,-0.1453,-0.1507,-0.1513,-0.1474,-0.1619,-0.1697,-0.1493,-0.122,-0.0972,-0.0827,-0.0747,-0.0699,-0.0646,-0.0604,-0.0555,0.174,0.1719,0.2001,0.2146,0.2157,0.1946,0.1855,0.1887,0.1891,0.1984,0.2134,0.1949,0.1946,0.2094,0.1911,0.0,0.1787,0.1481,0.13,0.1302,0.0994,0.081,0.0811,0.0841,0.084,0.084,0.0838,0.0824,0.0833,0.0829,0.0802,0.0752,0.1152,0.1373,0.1409,0.1152,0.1018,0.1019,0.0753,0.0649,0.0624,0.0431,0.0334,0.0333,0.0069,-0.0045,-0.0045,-0.0045,-0.0067,-0.0045,-0.0045,-0.0044,-0.0042,0.0,0.0,0.0,0.0,0.0,0.0,0.0,0.0,0.0,0.0,0.0,0.0,0.0,0.0,0.0,0.0134,0.0,0.0059,-0.0059,0.0,0.0,0.0,-0.0038,0.0224,-0.0167,-0.0669,-0.1285,0.0,0.0,-0.1507,-0.1744,-0.1742,-0.1266,-0.1306,-0.1373,-0.1369,-0.1323,-0.1327,-0.1565,-0.1899,-0.2051,-0.1813,-0.184,-0.1919,-0.1977,-0.2021,-0.1971,-0.1986,-0.198,-0.1909,-0.1841,-0.196,-0.1991,-0.179,-0.1769,-0.1644,-0.1255,-0.1067,-0.094,-0.087,-0.0839,-0.0842,0.1492,0.1474,0.1404,0.1538,0.1823,0.1642,0.1594,0.1597,0.1632,0.1726,0.1818,0.1562,0.1354,0.1204,0.1142,0.1142,0.1113,0.079,0.0646,0.0625,0.0362,0.02,0.0204,0.02,0.0198,0.0197,0.0194,0.0223,0.0221,0.0154,0.015,0.0173,0.0138,0.0315,0.0722,0.0468,0.0344,0.0343,0.0229,0.0104,-0.0078,-0.0151,-0.027,-0.0357,-0.0481,-0.0539,-0.0517,-0.0539,-0.0539,-0.0539,-0.0517,-0.0529,-0.0549,-0.0542,0.0,0.0,0.0,0.0,0.0,0.0,0.0,0.0,0.0,0.0,-0.0019,0.0,0.0,0.0,-0.0176,-0.0275,-0.0275,-0.0452,0.0,0.0,-0.057,-0.0467,-0.0247,-0.06,-0.1069,-0.1618,-0.1658,-0.1685,-0.1804,-0.2002,-0.2084,-0.1967,-0.1977,-0.1967,-0.1992,-0.1834,-0.1847,-0.2108,-0.2297,-0.235,-0.2247,-0.2175,-0.2149,-0.2153,-0.2163,-0.2141,-0.2141,-0.2249,-0.2269,-0.2252,-0.2326,-0.2343,-0.231,-0.2225,-0.2069,-0.1875,-0.1638,-0.1387,-0.1221,-0.1145,-0.1106,0.1031,0.0984,0.0874,0.0951,0.1167,0.1083,0.1057,0.1059,0.1109,0.1176,0.1296,0.1057,0.0811,0.0601,0.05,0.0467,0.0434,0.0169,0.0,-0.0105,-0.0314,-0.0457,-0.057,-0.0562,-0.0554,-0.0513,-0.054,-0.0496,-0.0484,-0.0539,-0.0492,-0.0471,-0.0608,-0.0559,-0.0318,-0.0282,-0.0252,-0.0252,-0.034,-0.0483,-0.0653,-0.0737,-0.0837,-0.0954,-0.1059,-0.1075,-0.1011,-0.101,-0.101,-0.101,-0.101,-0.1022,-0.1019,-0.102,-0.1018,0.0,0.0,0.0,0.0,0.0,0.0,0.0,0.0,0.0,0.0,0.0,-0.0408,-0.0408,-0.0634,-0.0791,-0.0775,-0.0985,-0.115,-0.115,-0.1128,-0.1025,-0.0734,-0.1187,-0.1689,-0.2213,-0.225,-0.2231,-0.2343,-0.2473,-0.2558,-0.2561,-0.2627,-0.2553,-0.2322,-0.2146,-0.2137,-0.2402,-0.2573,-0.2642,-0.2556,-0.2465,-0.2445,-0.2511,-0.2503,-0.2524,-0.2506,-0.2573,-0.2614,-0.2552,-0.2554,-0.2571,-0.2526,-0.2435,-0.236,-0.2229,-0.2028,-0.1777,-0.1495,-0.141,-0.1378,0.0488,0.0405,0.0405,0.0405,0.0368,0.0368,0.0403,0.0437,0.0474,0.051,0.0619,0.0437,0.0291,0.0036,-0.0109,-0.0218,-0.0255,-0.0437,-0.0657,-0.0842,-0.0985,-0.1205,-0.1464,-0.146,-0.1405,-0.1338,-0.1333,-0.1299,-0.1238,-0.1233,-0.1229,-0.1165,-0.1247,-0.1371,-0.141,-0.1058,-0.0869,-0.0844,-0.0976,-0.1088,-0.1204,-0.1328,-0.1417,-0.1525,-0.164,-0.1624,-0.1515,-0.1512,-0.1489,-0.1468,-0.1468,-0.1472,-0.1478,-0.1494,-0.1506,0.0,-0.1453,0.0,0.0,0.0,0.0,0.0,0.0,0.0,0.0,-0.0881,-0.0911,-0.0911,-0.1213,-0.1369,-0.1323,-0.1583,-0.1791,-0.1792,-0.1791,-0.1646,-0.1289,-0.1791,-0.2375,-0.2937,-0.284,-0.2798,-0.2884,-0.2993,-0.3011,-0.3013,-0.3079,-0.2971,-0.2613,-0.2402,-0.2379,-0.253,-0.2748,-0.2827,-0.2732,-0.2707,-0.2764,-0.2857,-0.2871,-0.2909,-0.2874,-0.2879,-0.284,-0.2749,-0.2726,-0.2684,-0.2571,-0.2571,-0.2534,-0.2487,-0.2379,-0.2157,-0.1789,-0.1669,-0.1642,0.0,-0.0155,-0.0155,-0.0232,-0.0387,-0.0387,-0.0151,0.0255,0.0255,0.0073,-0.0182,-0.0218,-0.0401,-0.0692,-0.0729,-0.0874,-0.1093,-0.1239,-0.14,-0.1688,-0.1803,-0.2027,-0.2248,-0.2205,-0.2178,-0.2165,-0.2126,-0.2094,-0.2071,-0.2025,-0.1968,-0.1903,-0.1949,-0.2017,-0.204,0.0,0.0,0.0,-0.163,-0.1696,-0.1817,-0.1814,-0.1934,-0.2184,-0.2184,0.0,-0.2049,-0.2043,-0.1951,-0.1814,-0.179,0.0,0.0,0.0,0.0,0.0,0.0,0.0,0.0,0.0,0.0,0.0,-0.1987,-0.185,-0.1549,-0.153,-0.1523,-0.1523,-0.1684,-0.1811,-0.1919,-0.208,-0.2242,-0.2344,-0.2344,-0.223,-0.1981,-0.2328,-0.2808,-0.3382,-0.3159,-0.2943,-0.3001,-0.3091,-0.3146,-0.3182,-0.3193,-0.3161,-0.3045,-0.2858,-0.2778,-0.2805,-0.286,-0.2884,-0.2857,-0.2849,-0.2871,-0.2887,-0.2909,-0.2909,-0.2909,-0.2909,-0.2909,-0.2865,-0.2865,-0.2843,-0.2843,-0.2821,-0.2808,-0.2815,-0.277,-0.262,-0.2109,-0.1974,-0.1928,-0.0719,0.0,-0.0789,-0.0864,0.0,-0.0943,-0.0852,-0.0681,-0.0416,-0.053,-0.0833,-0.0946,-0.1098,-0.1249,-0.1437,-0.1626,-0.174,-0.1891,-0.2132,-0.2347,-0.2435,-0.2665,-0.3001,-0.2963,-0.2964,-0.3039,-0.3004,-0.2947,-0.284,-0.2801,-0.2723,-0.2609,-0.2633,-0.2669,-0.2737,-0.2741,-0.256,-0.2156,-0.2212,-0.2322,-0.243,-0.2419,-0.2485,-0.2684,-0.2663,0.0,0.0,0.0,0.0,0.0,0.0,0.0,0.0,0.0,0.0,-0.2597,-0.2597,-0.2597,-0.2597,-0.2549,-0.2492,-0.2534,-0.2656,-0.2558,-0.218,-0.2151,-0.2151,-0.2153,-0.2288,-0.24,-0.2465,-0.2602,-0.2706,-0.2788,-0.2788,-0.2762,-0.2713,-0.2898,-0.3179,-0.3492,-0.342,-0.3292,-0.3292,-0.3345,-0.34,-0.34,-0.34,-0.3373,-0.3266,-0.3079,-0.2912,-0.2909,-0.2909,-0.2909,-0.2909,-0.2909,-0.2909,-0.2909,-0.2909,-0.2909,-0.2909,-0.2909,-0.2909,-0.2909,-0.2909,-0.2909,-0.2973,-0.2996,-0.2954,-0.3018,-0.2998,-0.2882,-0.2573,-0.2502,-0.2412,-0.1552,-0.1543,-0.1514,-0.1538,-0.1532,-0.1532,-0.161,-0.1767,0.0,0.0,0.0,-0.1689,-0.1767,-0.1847,-0.2157,-0.2352,-0.2392,-0.2588,-0.2785,-0.2982,-0.3022,-0.3255,-0.3643,-0.3641,-0.3722,-0.3842,-0.3787,-0.3702,-0.3555,-0.3519,-0.3391,-0.3246,-0.3204,-0.3236,-0.3326,-0.3361,-0.3159,-0.2736,-0.2761,-0.2826,-0.2935,-0.2935,-0.2977,-0.3057,-0.3081,-0.3033,-0.2955,-0.2953,-0.2953,-0.2928,-0.2928,-0.2937,-0.2929,-0.2957,-0.299,-0.301,-0.2986,-0.3019,-0.3037,-0.3013,-0.3014,-0.3079,-0.3139,-0.303,-0.2717,-0.2683,-0.2683,-0.2683,-0.2834,-0.2929,-0.2909,-0.3055,-0.316,-0.3188,-0.3188,-0.3216,-0.3327,-0.3388,-0.3463,-0.3585,-0.3577,-0.3613,-0.3574,-0.3574,-0.3613,-0.361,-0.3564,-0.358,-0.3417,-0.3134,-0.2937,-0.2945,-0.2923,-0.2909,-0.2909,-0.2909,-0.2909,-0.2932,-0.2932,-0.2932,-0.2954,-0.2954,-0.2954,-0.2954,-0.2932,-0.2996,-0.3103,-0.3126,-0.3123,-0.3258,-0.3212,-0.313,-0.3142,-0.3106,-0.2988,-0.2526,-0.2439,-0.243,-0.2398,-0.2315,-0.2315,-0.2433,-0.2591,-0.2198,-0.2118,-0.2315,-0.2354,-0.2472,-0.263,-0.2707,-0.2785,-0.2982,-0.3175,-0.3409,-0.3645,-0.3845,-0.4036,-0.4268,-0.4265,-0.43,-0.4281,-0.4239,-0.4223,-0.4138,-0.3937,-0.3795,-0.3785,-0.3631,-0.3495,-0.3489,-0.3582,-0.3595,-0.3517,-0.3194,-0.3049,-0.3077,-0.3077,-0.3153,-0.3335,-0.3362,-0.3278,-0.3143,-0.3166,-0.3109,-0.3004,-0.2978,-0.3019,-0.308,-0.3224,-0.3352,-0.3418,-0.3428,-0.3469,-0.3582,-0.348,-0.3419,-0.3432,-0.3437,-0.334,-0.3065,-0.3026,-0.3028,-0.3028,-0.3067,-0.3153,-0.3279,-0.3347,-0.3388,-0.3502,-0.353,-0.353,-0.3557,-0.3557,-0.3585,-0.3585,-0.3613,-0.3613,-0.3613,-0.3613,-0.3613,-0.3613,-0.3613,-0.3602,-0.3531,-0.3228,-0.304,-0.3044,-0.2978,-0.2901,-0.2909,-0.2909,-0.2932,-0.2993,-0.299,-0.3015,-0.3126,-0.3151,-0.3103,-0.3081,-0.3126,-0.3192,-0.3284,-0.3306,-0.3417,-0.3568,-0.3618,-0.3629,-0.3716,-0.3731,-0.3527,-0.3528,-0.3449,-0.3449,-0.3412,-0.3376,-0.3376,-0.3498,-0.3664,-0.35,-0.3247,-0.2986,-0.3059,-0.3175,-0.3377,-0.3535,-0.3612,-0.3647,-0.3839,-0.3992,-0.4112,-0.4229,-0.4387,-0.4543,-0.4543,-0.4621,-0.4735,-0.4691,-0.4635,-0.4568,-0.4428,-0.4316,-0.4226,-0.4066,-0.3964,-0.3944,-0.3909,-0.394,-0.3903,-0.368,-0.3536,-0.3536,-0.3536,-0.3595,-0.3685,-0.3653,-0.3658,-0.3577,-0.3574,-0.3545,-0.3451,-0.3455,-0.3483,-0.3504,-0.359,-0.3679,-0.3729,-0.3705,-0.3758,-0.3806,-0.3753,-0.3732,-0.371,-0.3707,-0.3654,-0.3541,-0.3455,-0.336,-0.336,-0.336,-0.3416,-0.3499,-0.3502,-0.353,-0.3585,-0.3613,-0.3613,-0.3613,-0.3613,-0.3613,-0.3613,-0.3613,-0.3613,-0.3613,-0.3613,-0.3613,-0.361,-0.3666,-0.3719,-0.3713,-0.3547,-0.3348,-0.3145,-0.3023,-0.2944,-0.2906,-0.2954,-0.297,-0.2987,-0.3056,-0.3123,-0.3214,-0.3258,-0.3258,-0.3192,-0.3306,-0.3461,-0.3593,-0.3638,-0.3748,-0.3862,-0.399,-0.4052,-0.4114,-0.4012,-0.3703,-0.4355,-0.4374,-0.4299,-0.4256,-0.4237,-0.4237,-0.4323,-0.4448,-0.4446,-0.4196,-0.384,-0.3814,-0.3889,-0.4035,-0.4259,-0.4333,-0.4269,-0.4456,-0.4572,-0.4572,-0.4614,-0.4681,-0.4815,-0.4815,-0.4883,-0.4982,-0.5018,-0.4928,-0.4882,-0.4809,-0.4711,-0.452,-0.4416,-0.4325,-0.4298,-0.4208,-0.4159,-0.4153,-0.4035,-0.3957,-0.3905,-0.3903,-0.3903,-0.3903,-0.39,-0.3903,-0.3903,-0.3903,-0.389,-0.3835,-0.3854,-0.389,-0.3806,-0.3882,-0.3916,-0.3938,-0.3946,-0.3959,-0.3981,-0.3986,-0.3976,-0.3946,-0.3946,-0.3932,-0.3892,-0.377,-0.3651,-0.3629,-0.3629,-0.3618,-0.3619,-0.3613,-0.3613,-0.3613,-0.3613,-0.3613,-0.3613,-0.3613,-0.3613,-0.3613,-0.3613,-0.3613,-0.3613,-0.3608,-0.3663,-0.3722,-0.3774,-0.3852,-0.3868,-0.3896,-0.373,-0.3462,-0.3222,-0.3085,-0.3033,-0.3032,-0.3059,-0.3078,-0.3214,-0.3303,-0.3347,-0.3439,-0.3486,-0.3439,-0.3575,-0.3796,-0.399,-0.4038,-0.4104,-0.4192,-0.4298,-0.4338,-0.4351,-0.4183,-0.3873,-0.49,-0.4824,-0.4853,-0.4747,-0.4671,-0.4666,-0.4669,-0.4711,-0.4706,-0.4816,-0.488,-0.4724,-0.4599,-0.4633,-0.468,-0.4677,-0.4663,-0.4916,-0.5033,-0.5033,-0.5212,-0.5235,-0.5135,-0.517,-0.5116,-0.5031,-0.5023,-0.5015,-0.4985,-0.4847,-0.4711,-0.4531,-0.4492,-0.4401,-0.4314,-0.4289,-0.4281,-0.4284,-0.427,-0.4159,-0.3916,-0.3903,-0.3903,-0.3903,-0.3905,-0.3903,-0.3919,-0.3903,-0.39,-0.3889,-0.3903,-0.3905,-0.3889,-0.39,-0.3954,-0.4059,-0.4102,-0.4116,-0.4249,-0.4265,-0.4178,-0.4083,-0.4099,-0.4024,-0.3927,-0.3889,-0.3854,-0.3802,-0.3798,-0.3717,-0.363,-0.3613,-0.3613,-0.3613,-0.3613,-0.3613,-0.3613,-0.3613,-0.3613,-0.3613,-0.3641,-0.3613,-0.3638,-0.3719,-0.3827,-0.3913,-0.4024,-0.4076,-0.4187,-0.4226,-0.424,-0.4092,-0.3766,-0.3446,-0.3371,-0.3268,-0.3267,-0.3341,-0.3464,-0.3575,-0.3638,-0.3744,-0.3836,-0.3814,-0.395,-0.417,-0.4386,-0.4495,-0.4473,-0.4556,-0.4596,-0.4596,-0.457,-0.4478,-0.4207,-0.5393,-0.5352,-0.5352,-0.5326,-0.5282,-0.5282,-0.528,-0.5282,-0.5282,-0.5366,-0.5453,-0.5369,-0.5251,-0.5126,-0.5146,-0.5143,-0.5124,-0.5243,-0.5285,-0.5285,-0.5368,-0.5383,-0.5298,-0.5295,-0.5273,-0.5127,-0.5116,-0.5083,-0.5007,-0.4855,-0.4742,-0.4675,-0.458,-0.4482,-0.4398,-0.4336,-0.4303,-0.4303,-0.4303,-0.4249,-0.4164,-0.4119,-0.4151,-0.4151,-0.4153,-0.4119,-0.4151,-0.4151,-0.4118,-0.4024,-0.4113,-0.4086,-0.4016,-0.4081,-0.4175,-0.4221,-0.4224,-0.4249,-0.4298,-0.4303,-0.4278,-0.4227,-0.4224,-0.42,-0.4159,-0.4119,-0.4067,-0.3977,-0.3868,-0.3762,-0.3635,-0.3613,-0.3613,-0.3613,-0.3613,-0.3613,-0.3613,-0.3613,-0.3638,-0.3691,-0.3802,-0.383,-0.383,-0.3941,-0.4049,-0.4135,-0.4273,-0.4467,-0.4601,-0.4684,-0.4765,-0.4816,-0.4599,-0.426,-0.3917,-0.3731,-0.3694,-0.3758,-0.3834,-0.391,-0.395,-0.4122,-0.4236,-0.4144,-0.4342,-0.4561,-0.4779,-0.4888,-0.4927,-0.4949,-0.4992,-0.5014,-0.5014,-0.4949,-0.4728,-0.5688,-0.5688,-0.5688,-0.5688,-0.5688,-0.5688,-0.5688,-0.5688,-0.5688,-0.5688,-0.5688,-0.5688,-0.5684,-0.5582,-0.5561,-0.5508,-0.5477,-0.5554,-0.5594,-0.5594,-0.5636,-0.5664,-0.5675,-0.5672,-0.5563,-0.545,-0.5439,-0.5325,-0.5174,-0.5087,-0.5017,-0.4961,-0.4762,-0.4656,-0.4617,-0.444,-0.4346,-0.4344,-0.4322,-0.4303,-0.4298,-0.4303,-0.4303,-0.4303,-0.4303,-0.4303,-0.4303,-0.4303,-0.4262,-0.4175,-0.4254,-0.4262,-0.4181,-0.4254,-0.4303,-0.4303,-0.4303,-0.4303,-0.4303,-0.4303,-0.4303,-0.4303,-0.4303,-0.4303,-0.4303,-0.4303,-0.4246,-0.4121,-0.3952,-0.3835,-0.3682,-0.3657,-0.3646,-0.3644,-0.3666,-0.3663,-0.3719,-0.3669,-0.3694,-0.3882,-0.4132,-0.4242,-0.4242,-0.4328,-0.4439,-0.4494,-0.4712,-0.4932,-0.5038,-0.512,-0.5199,-0.5391,-0.5414,-0.511,-0.4535,-0.4321,-0.4248,-0.4179,-0.4248,-0.4286,-0.4282,-0.4456,-0.4613,-0.4565,-0.4779,-0.4954,-0.5079,-0.5188,-0.528,-0.5323,-0.535,-0.5393,-0.5366,-0.5345,-0.5232,-0.5688,-0.5688,-0.5688,-0.5688,-0.5688,-0.5688,-0.5688,-0.5688,-0.5688,-0.5688,-0.5733,-0.5733,-0.5858,-0.6048,-0.5838,-0.5675,-0.5708,-0.5963,-0.6089,-0.6086,-0.6263,-0.6299,-0.6282,-0.6276,-0.6202,-0.6067,-0.5962,-0.579,-0.5578,-0.555,-0.5522,-0.5476,-0.5213,-0.5043,-0.4939,-0.4666,-0.4498,-0.4524,-0.4399,-0.4308,-0.4306,-0.4306,-0.4303,-0.4303,-0.4303,-0.4303,-0.4303,-0.4303,-0.4298,-0.4289,-0.4295,-0.4295,-0.4289,-0.4298,-0.4303,-0.4303,-0.4303,-0.4303,-0.4303,-0.4303,-0.4303,-0.4303,-0.4303,-0.4303,-0.4303,-0.4334,-0.4284,-0.4134,-0.4139,-0.4027,-0.3856,-0.3841,-0.3814,-0.3825,-0.3833,-0.3863,-0.3965,-0.3777,-0.3805,-0.4162,-0.4574,-0.4736,-0.4688,-0.4767,-0.4932,-0.5038,-0.5203,-0.5367,-0.5508,-0.5422,-0.5504,-0.5759,-0.5919,-0.5909,-0.5223,-0.4943,-0.4792,-0.4717,-0.4721,-0.4746,-0.4688,-0.4688,-0.4828,-0.4941,-0.5067,-0.5193,-0.534,-0.5448,-0.5539,-0.5583,-0.5631,-0.5653,-0.5653,-0.568,-0.5583,-0.5688,-0.5688,-0.5688,-0.5688,-0.5688,-0.5688,-0.5688,-0.5688,-0.5688,-0.5822,-0.5952,-0.5952,-0.608,-0.6302,-0.6393,-0.6305,-0.6171,-0.6438,-0.6529,-0.6571,-0.6745,-0.6848,-0.6806,-0.6802,-0.677,-0.6678,-0.6612,-0.6466,-0.6205,-0.6064,-0.5915,-0.5781,-0.562,-0.5476,-0.527,-0.5012,-0.4805,-0.4793,-0.4576,-0.4443,-0.4401,-0.4341,-0.4303,-0.4303,-0.4303,-0.4303,-0.4303,-0.4303,-0.4303,-0.4303,-0.4303,-0.4303,-0.4303,-0.4303,-0.4303,-0.4303,-0.4303,-0.4303,-0.4303,-0.4303,-0.4303,-0.4303,-0.4303,-0.43,-0.4334,-0.4431,-0.4475,-0.4438,-0.4495,-0.4473,-0.4329,-0.4163,-0.4089,-0.4209,-0.4263,-0.4286,-0.424,-0.4052,-0.4052,-0.4543,-0.4952,-0.5117,-0.5187,-0.5312,-0.5473,-0.5555,-0.5746,-0.5909,-0.6023,-0.5968,-0.5964,-0.6273,-0.6381,-0.6357,-0.624,-0.5692,-0.5389,-0.5282,-0.5253,-0.5194,-0.5161,-0.5108,-0.5198,-0.5203,-0.5306,-0.5431,-0.555,-0.5637,-0.575,-0.5868,-0.5917,-0.5895,-0.5895,-0.5895,-0.5856,-0.5952,-0.5908,-0.5908,-0.5949,-0.5908,-0.5908,-0.5949,-0.5908,-0.5908,-0.6086,-0.6308,-0.6305,-0.6479,-0.6741,-0.6918,-0.7054,-0.6962,-0.7051,-0.701,-0.7054,-0.7319,-0.7452,-0.7492,-0.7533,-0.7567,-0.7508,-0.7446,-0.7268,-0.6936,-0.672,-0.6528,-0.6318,-0.6142,-0.5988,-0.5814,-0.5476,-0.5261,-0.5201,-0.4947,-0.4737,-0.4658,-0.4523,-0.4422,-0.4383,-0.4319,-0.4303,-0.4303,-0.4303,-0.4303,-0.4303,-0.4303,-0.4303,-0.4303,-0.4303,-0.4303,-0.4303,-0.4303,-0.4334,-0.4398,-0.4398,-0.44,-0.4467,-0.4467,-0.4464,-0.4467,-0.4597,-0.4658,-0.4691,-0.4728,-0.4752,-0.4767,-0.4642,-0.4609,-0.4687,-0.4755,-0.4831,-0.4848,-0.4549,-0.4825,-0.5522,-0.5666,-0.5684,-0.5718,-0.5891,-0.5973,-0.5991,-0.6236,-0.6436,-0.6413,-0.6404,-0.6453,-0.6756,-0.6842,-0.6842,-0.6757,-0.6438,-0.6045,-0.5909,-0.5767,-0.5712,-0.5612,-0.5575,-0.5514,-0.5484,-0.5539,-0.562,-0.5728,-0.5836,-0.5949,-0.6089,-0.6153,-0.6153,-0.6132,-0.6132,-0.6054,-0.6387,-0.6384,-0.6384,-0.6387,-0.6387,-0.6387,-0.6384,-0.6387,-0.6432,-0.6567,-0.6792,-0.684,-0.7098,-0.7445,-0.7577,-0.7757,-0.8021,-0.7801,-0.7621,-0.7625,-0.8025,-0.8201,-0.8241,-0.846,-0.8588,-0.8595,-0.8408,-0.8155,-0.7861,-0.7649,-0.7434,-0.7177,-0.6845,-0.6626,-0.6595,-0.6095,-0.5803,-0.5736,-0.548,-0.5198,-0.5003,-0.4894,-0.4755,-0.4567,-0.445,-0.44,-0.4356,-0.4342,-0.4334,-0.4334,-0.4334,-0.43,-0.4334,-0.4334,-0.4331,-0.4367,-0.4334,-0.4431,-0.4558,-0.4595,-0.4628,-0.4731,-0.4764,-0.4728,-0.4731,-0.4797,-0.4827,-0.4861,-0.4894,-0.4918,-0.511,-0.5292,-0.5274,-0.5119,-0.5271,-0.5502,-0.5579,-0.5274,-0.5538,-0.6798,-0.6725,-0.642,-0.6516,-0.6509,-0.6457,-0.6505,-0.6685,-0.682,-0.6685,-0.6701,-0.6837,-0.7052,-0.7246,-0.7306,-0.7252,-0.7149,-0.6797,-0.6514,-0.635,-0.6222,-0.6129,-0.605,-0.5906,-0.5847,-0.582,-0.5895,-0.5964,-0.605,-0.6142,-0.6255,-0.6303,-0.6325,-0.6303,-0.6282,-0.6255,-0.6874,-0.6874,-0.6874,-0.6874,-0.6877,-0.6874,-0.6874,-0.6874,-0.6874,-0.7095,-0.7455,-0.7499,-0.7757,-0.8197,-0.8376,-0.8644,-0.8947,-0.8947,-0.8771,-0.8596,-0.8819,-0.9034,-0.9165,-0.9253,-0.9384,-0.9522,-0.9359,-0.9209,-0.9036,-0.8733,-0.8404,-0.8054,-0.7781,-0.7407,-0.7026,-0.6701,-0.6485,-0.6353,-0.6037,-0.5738,-0.5577,-0.542,-0.5241,-0.5089,-0.5018,-0.5,-0.4956,-0.4691,-0.4534,-0.4534,-0.4597,-0.4631,-0.4664,-0.4634,-0.4631,-0.4664,-0.4664,-0.4664,-0.4728,-0.4728,-0.4761,-0.4794,-0.4794,-0.4794,-0.4827,-0.4927,-0.506,-0.5193,-0.5289,-0.5455,-0.5657,-0.5921,-0.5921,-0.5653,-0.5779,-0.6072,-0.635,-0.6384,-0.6831,-0.7509,-0.7355,-0.7095,-0.7027,-0.7012,-0.7041,-0.7019,-0.7182,-0.7225,-0.7166,-0.7139,-0.7306,-0.7499,-0.766,-0.766,-0.7521,-0.7413,-0.726,-0.7002,-0.6842,-0.6694,-0.6586,-0.6413,-0.6298,-0.6152,-0.6126,-0.6116,-0.6184,-0.6227,-0.6297,-0.634,-0.6367,-0.6389,-0.641,-0.6389,-0.6367,-0.7669,-0.7669,-0.7669,-0.7669,-0.7669,-0.7665,-0.7669,-0.7665,-0.7669,-0.7933,-0.8292,-0.838,-0.864,-0.9074,-0.9253,-0.9432,-0.9689,-0.982,-0.9777,-0.9563,-0.9607,-0.9733,-0.9864,-0.9946,-1.0081,-1.0236,-1.0119,-1.0017,-0.9892,-0.959,-0.9181,-0.8785,-0.859,-0.8212,-0.7658,-0.7442,-0.7249,-0.7042,-0.6768,-0.6486,-0.6262,-0.6073,-0.5851,-0.5626,-0.5548,-0.5519,-0.5503,-0.5307,-0.5089,-0.4935,-0.4992,-0.503,-0.4997,-0.503,-0.503,-0.4997,-0.496,-0.4927,-0.4997,-0.496,-0.4927,-0.4997,-0.5027,-0.506,-0.5126,-0.5219,-0.5355,-0.5557,-0.5719,-0.5885,-0.6017,-0.6317,-0.6424,-0.6426,-0.6529,-0.6763,-0.7123,-0.7382,-0.7752,-0.8117,-0.8027,-0.7797,-0.7776,-0.7585,-0.7582,-0.7549,-0.7551,-0.7547,-0.7542,-0.7574,-0.7687,-0.7747,-0.7794,-0.7768,-0.7687,-0.7634,-0.7634,-0.7484,-0.731,-0.7134,-0.6999,-0.6773,-0.6567,-0.6364,-0.6259,-0.6251,-0.6297,-0.6297,-0.634,-0.6389,-0.641,-0.641,-0.641,-0.641,-0.6389,-0.8679,-0.8679,-0.8679,-0.8679,-0.8675,-0.8679,-0.8679,-0.8679,-0.8679,-0.8903,-0.9253,-0.9301,-0.9559,-0.9951,-0.9994,-1.0125,-1.0294,-1.0342,-1.0467,-1.0516,-1.0472,-1.0342,-1.0386,-1.0559,-1.0689,-1.0684,-1.0712,-1.0573,-1.042,-1.0179,-0.9868,-0.9463,-0.9226,-0.8891,-0.8449,-0.8217,-0.8021,-0.7821,-0.7659,-0.7383,-0.6996,-0.6862,-0.6593,-0.6224,-0.6112,-0.6082,-0.6085,-0.6183,-0.5987,-0.5496,-0.5515,-0.5598,-0.5533,-0.5489,-0.555,-0.5527,-0.5289,-0.5343,-0.5399,-0.5366,-0.5326,-0.5467,-0.548,-0.5505,-0.5622,-0.5638,-0.5719,-0.5921,-0.6115,-0.6214,-0.6313,-0.6576,-0.6896,-0.7232,-0.7391,-0.764,-0.7939,-0.8103,-0.8425,-0.8768,-0.8711,-0.848,-0.8552,-0.8223,-0.8046,-0.7891,-0.7823,-0.7769,-0.7714,-0.7768,-0.7875,-0.7901,-0.7875,-0.7848,-0.7768,-0.7768,-0.7768,-0.7723,-0.7617,-0.7509,-0.7327,-0.7081,-0.6801,-0.6586,-0.6388,-0.6379,-0.6389,-0.6367,-0.6367,-0.6389,-0.641,-0.641,-0.641,-0.641,-0.641,-0.9641,-0.9646,-0.9641,-0.9641,-0.9646,-0.9646,-0.9641,-0.9641,-0.9641,-0.9772,-0.9994,-1.0033,-1.0207,-1.0516,-1.0511,-1.0603,-1.0781,-1.0829,-1.0911,-1.1127,-1.1084,-1.0916,-1.0873,-1.1046,-1.1132,-1.1132,-1.1084,-1.1095,-1.1048,-1.0813,-1.0496,-1.0039,-0.9842,-0.9459,-0.8913,-0.8784,-0.8665,-0.847,-0.8399,-0.8169,-0.7821,-0.7744,-0.7529,-0.7179,-0.709,-0.7066,-0.71,-0.7142,-0.6921,-0.6395,-0.6491,-0.6565,-0.658,-0.658,-0.6495,-0.6352,-0.6297,-0.6231,-0.613,-0.6091,-0.6098,-0.6098,-0.6013,-0.601,-0.6037,-0.6052,-0.6098,-0.6284,-0.6449,-0.6613,-0.6745,-0.7068,-0.7456,-0.7879,-0.8079,-0.8182,-0.8144,-0.8468,-0.8952,-0.9242,-0.9044,-0.8903,-0.8834,-0.8702,-0.8492,-0.8297,-0.8142,-0.805,-0.7949,-0.7848,-0.7901,-0.7901,-0.7901,-0.7901,-0.7901,-0.7901,-0.7875,-0.7875,-0.783,-0.7786,-0.7616,-0.7385,-0.708,-0.6782,-0.647,-0.6395,-0.6389,-0.6389,-0.641,-0.641,-0.641,-0.641,-0.641,-0.641,-0.641,-1.0554,-1.0554,-1.0554,-1.0554,-1.0549,-1.0549,-1.0554,-1.0554,-1.0554,-1.0679,-1.0857,-1.0895,-1.103,-1.1214,-1.1257,-1.13,-1.1397,-1.144,-1.1483,-1.1564,-1.1564,-1.1397,-1.1224,-1.1267,-1.1311,-1.1311,-1.1311,-1.1267,-1.1262,-1.1181,-1.0926,-1.062,-1.0361,-0.9956,-0.9478,-0.9266,-0.916,-0.897,-0.8937,-0.8784,-0.8513,-0.8475,-0.8318,-0.8055,-0.8016,-0.8016,-0.8033,-0.8092,-0.7835,-0.7292,-0.7264,-0.7415,-0.7486,-0.7486,-0.7411,-0.7229,-0.7118,-0.6971,-0.6801,-0.6698,-0.6662,-0.6596,-0.6507,-0.6463,-0.6515,-0.6522,-0.6548,-0.6741,-0.6975,-0.7138,-0.7269,-0.7591,-0.7879,-0.8139,-0.8506,-0.8603,-0.8404,-0.8823,-0.9215,-0.9382,-0.9338,-0.9206,-0.9156,-0.9061,-0.8884,-0.8639,-0.8405,-0.8255,-0.8105,-0.7997,-0.7901,-0.7901,-0.7901,-0.7901,-0.7901,-0.7901,-0.7901,-0.7901,-0.7901,-0.7895,-0.7778,-0.7568,-0.7309,-0.6958,-0.6625,-0.6422,-0.6447,-0.6441,-0.641,-0.641,-0.641,-0.641,-0.641,-0.641,-0.641,-1.1397,-1.137,-1.137,-1.137,-1.1375,-1.137,-1.1327,-1.137,-1.1327,-1.1462,-1.1634,-1.1677,-1.1725,-1.2,-1.1823,-1.1957,-1.1957,-1.1914,-1.1914,-1.1914,-1.1914,-1.1742,-1.1478,-1.1435,-1.1435,-1.144,-1.1392,-1.1392,-1.144,-1.144,-1.1305,-1.108,-1.0822,-1.0474,-1.0117,-0.9844,-0.9592,-0.9506,-0.9506,-0.9387,-0.9193,-0.9155,-0.9036,-0.8856,-0.8818,-0.8818,-0.8818,-0.8855,-0.8636,-0.7843,-0.7968,-0.8121,-0.8286,-0.8308,-0.821,-0.805,-0.7884,-0.769,-0.7449,-0.7311,-0.7182,-0.7205,-0.7012,-0.691,-0.7086,-0.7119,-0.7173,-0.7334,-0.7578,-0.7731,-0.7857,-0.8112,-0.8269,-0.8431,-0.8786,-0.8985,-0.9049,-0.9177,-0.937,-0.9478,-0.9478,-0.9478,-0.945,-0.9318,-0.9119,-0.8902,-0.8686,-0.8471,-0.8243,-0.8027,-0.7943,-0.7901,-0.7901,-0.7901,-0.7901,-0.7901,-0.7901,-0.7901,-0.7901,-0.7883,-0.7826,-0.7647,-0.7436,-0.7158,-0.6861,-0.6653,-0.6532,-0.6507,-0.6447,-0.641,-0.641,-0.641,-0.641,-0.641,-0.641,-1.204,-1.1866,-1.1823,-1.186,-1.1866,-1.1866,-1.1866,-1.1866,-1.186,-1.1903,-1.1946,-1.1952,-1.1946,-1.2,-1.2055,-1.2,-1.2066,-1.2077,-1.2,-1.2,-1.2,-1.1957,-1.1882,-1.1905,-1.1882,-1.1834,-1.1828,-1.1823,-1.1823,-1.1763,-1.1742,-1.1541,-1.1239,-1.1004,-1.069,-1.0384,-1.0293,-1.0212,-1.0218,-1.0062,-0.9911,-0.9873,-0.9798,-0.9614,-0.9614,-0.9544,-0.9463,-0.943,-0.9341,-0.92,-0.908,-0.9013,-0.9018,-0.9065,-0.8976,-0.8817,-0.872,-0.858,-0.8407,-0.8197,-0.8078,-0.8067,-0.7892,-0.7821,-0.783,-0.7866,-0.7899,-0.8037,-0.8088,-0.8273,-0.8441,-0.8608,-0.8662,-0.8786,-0.9017,-0.9145,-0.9081,-0.9247,-0.9446,-0.9478,-0.9478,-0.9478,-0.9478,-0.9442,-0.9312,-0.9137,-0.8939,-0.8711,-0.8417,-0.8105,-0.7973,-0.7901,-0.7901,-0.7901,-0.7901,-0.7901,-0.7901,-0.7901,-0.7901,-0.7901,-0.7838,-0.7804,-0.7623,-0.7369,-0.7103,-0.6891,-0.6679,-0.6538,-0.6477,-0.6447,-0.6416,-0.641,-0.641,-0.641,-0.6486,-1.2566,-1.2338,-1.2332,-1.2332,-1.2332,-1.2326,-1.2326,-1.2332,-1.2332,-1.2326,-1.2332,-1.2326,-1.2332,-1.2349,-1.2461,-1.2525,-1.256,-1.2654,-1.2701,-1.2712,-1.2706,-1.2751,-1.2701,-1.2616,-1.2519,-1.21,-1.2,-1.2,-1.2,-1.1989,-1.1932,-1.1826,-1.1622,-1.1347,-1.1084,-1.0821,-1.0606,-1.0492,-1.0513,-1.0438,-1.0368,-1.0331,-1.0331,-1.0218,-1.018,-1.0105,-1.003,-1.003,-1.003,-0.9992,-0.9922,-0.9809,-0.9733,-0.9695,-0.9652,-0.9571,-0.9458,-0.9344,-0.9117,-0.8932,-0.8808,-0.8822,-0.8621,-0.853,-0.8549,-0.8584,-0.8608,-0.8625,-0.8704,-0.8827,-0.8878,-0.8894,-0.8958,-0.9017,-0.9177,-0.9204,-0.9081,-0.928,-0.9478,-0.9478,-0.9478,-0.9478,-0.9478,-0.9478,-0.9454,-0.9312,-0.9107,-0.8896,-0.856,-0.8231,-0.7991,-0.7901,-0.7901,-0.7901,-0.7901,-0.7901,-0.7901,-0.7901,-0.7901,-0.7901,-0.7871,-0.7856,-0.7808,-0.7556,-0.7297,-0.7043,-0.6831,-0.6667,-0.6544,-0.6465,-0.6428,-0.6422,-0.645,-0.6502,-0.6631,-1.3038,-1.2747,-1.2705,-1.2705,-1.2705,-1.2705,-1.2662,-1.2705,-1.2705,-1.2619,-1.2705,-1.2705,-1.2649,-1.2776,-1.2957,-1.3083,-1.3191,-1.3312,-1.3333,-1.3333,-1.3333,-1.3333,-1.3339,-1.3258,-1.3043,-1.2261,-1.227,-1.2247,-1.2184,-1.2123,-1.2192,-1.2066,-1.1895,-1.1735,-1.1439,-1.1117,-1.0914,-1.079,-1.0697,-1.0663,-1.0631,-1.0631,-1.0588,-1.0588,-1.0594,-1.0556,-1.0513,-1.0475,-1.0519,-1.0513,-1.0513,-1.0443,-1.0325,-1.025,-1.025,-1.0218,-1.003,-0.9879,-0.9733,-0.9544,-0.943,-0.943,-0.9309,-0.9196,-0.9212,-0.9319,-0.9327,-0.9279,-0.9316,-0.9318,-0.9173,-0.9136,-0.9092,-0.9119,-0.9247,-0.9247,-0.9151,-0.9318,-0.9446,-0.9478,-0.9478,-0.9478,-0.9478,-0.9478,-0.9478,-0.9442,-0.9269,-0.9041,-0.871,-0.8445,-0.8241,-0.7967,-0.7961,-0.7913,-0.7901,-0.7901,-0.7901,-0.7901,-0.7901,-0.7901,-0.7901,-0.7877,-0.7844,-0.7725,-0.7497,-0.7249,-0.7085,-0.7009,-0.6838,-0.658,-0.6646,-0.6842,-0.6792,-0.6647,-0.6821,-1.3472,-1.3009,-1.279,-1.2705,-1.2705,-1.2705,-1.2705,-1.2705,-1.2705,-1.2705,-1.2705,-1.2705,-1.2831,-1.3012,-1.3035,-1.3191,-1.3453,-1.3586,-1.358,-1.358,-1.358,-1.358,-1.3604,-1.3616,-1.3393,-1.3267,-1.301,-1.2814,-1.2611,-1.2583,-1.2497,-1.248,-1.2302,-1.2123,-1.1956,-1.1692,-1.1376,-1.1245,-1.1079,-1.0972,-1.0966,-1.0936,-1.0962,-1.0962,-1.0931,-1.085,-1.0775,-1.0738,-1.0663,-1.0519,-1.0513,-1.0588,-1.0625,-1.055,-1.0475,-1.0475,-1.04,-1.0325,-1.0255,-1.0143,-1.0067,-1.0056,-0.997,-0.9953,-0.9973,-1.0014,-0.9984,-1.0002,-0.9868,-0.9789,-0.9747,-0.9572,-0.9456,-0.9438,-0.9473,-0.9482,-0.9432,-0.9476,-0.9496,-0.9522,-0.9484,-0.9478,-0.9478,-0.9478,-0.9478,-0.9478,-0.942,-0.9215,-0.8951,-0.8734,-0.856,-0.8307,-0.8033,-0.7967,-0.7901,-0.7901,-0.7901,-0.7901,-0.7901,-0.7901,-0.7901,-0.7901,-0.7856,-0.7806,-0.7754,-0.7572,-0.7432,-0.7333,-0.7238,-0.7076,-0.7207,-0.7353,-0.7228,-0.7104,-0.7293,-1.3913,-1.3404,-1.3052,-1.2918,-1.2881,-1.2747,-1.2705,-1.2705,-1.2705,-1.2705,-1.2705,-1.2717,-1.2856,-1.3053,-1.3239,-1.3486,-1.3827,-1.3924,-1.3918,-1.3924,-1.3918,-1.3918,-1.3906,-1.3906,-1.3821,-1.3725,-1.3568,-1.329,-1.294,-1.2765,-1.2723,-1.2681,-1.256,-1.2451,-1.2306,-1.2048,-1.182,-1.1682,-1.1441,-1.1285,-1.126,-1.1208,-1.1123,-1.1117,-1.1117,-1.1037,-1.0999,-1.0968,-1.0925,-1.085,-1.0818,-1.085,-1.0887,-1.0887,-1.0812,-1.0781,-1.0706,-1.0625,-1.0625,-1.0475,-1.0368,-1.0325,-1.0363,-1.0363,-1.0383,-1.0436,-1.0504,-1.0456,-1.0289,-1.0106,-1.01,-0.9973,-0.9937,-0.9919,-0.9901,-0.9769,-0.9636,-0.966,-0.9618,-0.9552,-0.9484,-0.9478,-0.9478,-0.9478,-0.9478,-0.9478,-0.9478,-0.936,-0.9149,-0.9047,-0.8896,-0.8614,-0.8315,-0.8117,-0.8033,-0.7979,-0.7973,-0.7961,-0.7901,-0.7901,-0.7928,-0.7928,-0.8008,-0.8039,-0.7929,-0.787,-0.7759,-0.7635,-0.759,-0.7544,-0.7561,-0.7583,-0.76,-0.7643,-0.7771,-1.4375,-1.3822,-1.3398,-1.321,-1.3163,-1.29,-1.2826,-1.2814,-1.2723,-1.2705,-1.2705,-1.2717,-1.2862,-1.3107,-1.3477,-1.3839,-1.4286,-1.4274,-1.4256,-1.4244,-1.4244,-1.4274,-1.4292,-1.428,-1.4165,-1.399,-1.3863,-1.3634,-1.3145,-1.2916,-1.2783,-1.2711,-1.2699,-1.262,-1.2427,-1.23,-1.218,-1.1999,-1.1751,-1.1567,-1.1447,-1.1323,-1.1154,-1.1141,-1.116,-1.1214,-1.1194,-1.1285,-1.1248,-1.1218,-1.1176,-1.114,-1.1129,-1.1117,-1.1117,-1.108,-1.0968,-1.0887,-1.0812,-1.0738,-1.0663,-1.0663,-1.0631,-1.0631,-1.0663,-1.074,-1.0824,-1.0725,-1.0527,-1.0376,-1.0364,-1.031,-1.0274,-1.0262,-1.0226,-1.0166,-0.9901,-0.9781,-0.9703,-0.963,-0.952,-0.9484,-0.9516,-0.9478,-0.9478,-0.9478,-0.9478,-0.9448,-0.9318,-0.9378,-0.9233,-0.8939,-0.8656,-0.8385,-0.8235,-0.8093,-0.8087,-0.8081,-0.7973,-0.7901,-0.7928,-0.7955,-0.8062,-0.8162,-0.8276,-0.8208,-0.8062,-0.8012,-0.8012,-0.7973,-0.7869,-0.7905,-0.8065,-0.8116,-0.8187,-1.4835,-1.4272,-1.3822,-1.366,-1.3647,-1.323,-1.3194,-1.3299,-1.2918,-1.2705,-1.2747,-1.2717,-1.2862,-1.3181,-1.364,-1.4002,-1.4214,-1.4298,-1.4298,-1.4298,-1.4298,-1.4298,-1.4298,-1.4298,-1.428,-1.4171,-1.4014,-1.3616,-1.329,-1.3089,-1.294,-1.2789,-1.2753,-1.2681,-1.2602,-1.2451,-1.2306,-1.2228,-1.2011,-1.173,-1.1543,-1.1465,-1.1365,-1.128,-1.1315,-1.1447,-1.1465,-1.1579,-1.1627,-1.1459,-1.1447,-1.1321,-1.1166,-1.1117,-1.1117,-1.1117,-1.108,-1.1074,-1.1037,-1.0962,-1.0962,-1.0962,-1.0968,-1.1005,-1.1005,-1.0999,-1.1013,-1.1038,-1.0822,-1.0647,-1.0599,-1.0484,-1.0381,-1.0387,-1.04,-1.037,-1.0208,-1.0057,-0.9955,-0.9666,-0.9576,-0.9534,-0.9522,-0.9516,-0.9478,-0.9478,-0.9472,-0.9442,-0.943,-0.9466,-0.9478,-0.9215,-0.8915,-0.8638,-0.8445,-0.8303,-0.8267,-0.8271,-0.8127,-0.7994,-0.8048,-0.8135,-0.8141,-0.8242,-0.8395,-0.8501,-0.8377,-0.8339,-0.8449,-0.841,-0.8305,-0.8461,-0.8659,-0.8645,-0.8527,-1.5819,-1.5103,-1.4524,-1.4142,-1.3949,-1.3613,-1.3419,-1.3396,-1.3193,-1.3052,-1.2924,-1.2924,-1.2997,-1.3232,-1.367,-1.3954,-1.4093,-1.422,-1.4292,-1.4298,-1.4298,-1.4298,-1.4298,-1.4298,-1.4298,-1.4268,-1.4165,-1.3984,-1.3628,-1.3342,-1.3206,-1.297,-1.2928,-1.285,-1.2723,-1.2596,-1.2548,-1.2463,-1.2282,-1.2023,-1.1784,-1.1706,-1.1657,-1.1537,-1.1645,-1.17,-1.1748,-1.179,-1.1838,-1.1718,-1.1718,-1.167,-1.16,-1.1576,-1.1576,-1.1564,-1.1431,-1.1292,-1.111,-1.1129,-1.1117,-1.1117,-1.1117,-1.108,-1.1117,-1.1117,-1.1117,-1.1105,-1.1015,-1.0912,-1.0894,-1.0803,-1.0767,-1.0725,-1.0689,-1.0713,-1.0659,-1.0442,-1.0256,-0.9919,-0.9618,-0.9612,-0.9576,-0.9522,-0.9484,-0.9478,-0.9478,-0.9466,-0.9454,-0.9472,-0.9478,-0.9436,-0.9167,-0.8866,-0.8698,-0.8537,-0.8525,-0.8499,-0.8313,-0.8226,-0.8297,-0.8335,-0.8336,-0.8394,-0.8501,-0.8553,-0.8586,-0.86,-0.862,-0.8692,-0.8745,-0.8778,-0.8778,-0.8771,-0.8698,-1.6886,-1.6139,-1.536,-1.4825,-1.443,-1.4108,-1.3903,-1.3749,-1.3642,-1.344,-1.3264,-1.3192,-1.3213,-1.3316,-1.3689,-1.3973,-1.4123,-1.4306,-1.4375,-1.4418,-1.4394,-1.4346,-1.4346,-1.4298,-1.4298,-1.4298,-1.428,-1.4153,-1.3996,-1.3791,-1.3544,-1.3101,-1.3041,-1.2946,-1.2771,-1.2681,-1.2668,-1.265,-1.2506,-1.2276,-1.2071,-1.1982,-1.1974,-1.195,-1.1974,-1.2017,-1.2029,-1.2125,-1.2137,-1.2023,-1.1982,-1.1974,-1.1838,-1.1802,-1.1848,-1.1778,-1.1657,-1.1564,-1.1371,-1.125,-1.1148,-1.1117,-1.1117,-1.1117,-1.1117,-1.1117,-1.1117,-1.1117,-1.1105,-1.1093,-1.1111,-1.105,-1.1045,-1.1033,-1.1045,-1.1093,-1.1063,-1.0737,-1.0569,-1.04,-1.0081,-0.9751,-0.969,-0.957,-0.9528,-0.9484,-0.9478,-0.9478,-0.951,-0.951,-0.951,-0.951,-0.939,-0.9174,-0.9047,-0.8915,-0.8866,-0.877,-0.8582,-0.8464,-0.8518,-0.8538,-0.856,-0.8597,-0.8632,-0.8659,-0.8699,-0.8752,-0.8778,-0.8778,-0.8778,-0.8778,-0.8778,-0.8778,-0.8778,-1.7789,-1.7497,-1.6443,-1.5745,-1.5333,-1.486,-1.4633,-1.4613,-1.4211,-1.3913,-1.3646,-1.3489,-1.3544,-1.3723,-1.3869,-1.4109,-1.4532,-1.4583,-1.4562,-1.4617,-1.464,-1.4453,-1.4351,-1.4316,-1.4298,-1.4298,-1.4346,-1.4328,-1.4298,-1.4302,-1.3783,-1.3191,-1.32,-1.2976,-1.2789,-1.2747,-1.2705,-1.2705,-1.2632,-1.2524,-1.2349,-1.227,-1.2198,-1.2071,-1.2161,-1.2288,-1.2259,-1.2457,-1.2481,-1.23,-1.2288,-1.2216,-1.2095,-1.2059,-1.2065,-1.2,-1.1956,-1.186,-1.1751,-1.1369,-1.1148,-1.1117,-1.1117,-1.1117,-1.1117,-1.1117,-1.1117,-1.1117,-1.1117,-1.1117,-1.1117,-1.1117,-1.1117,-1.1117,-1.1117,-1.1117,-1.1063,-1.0918,-1.0743,-1.0803,-1.0503,-1.0051,-0.9757,-0.9624,-0.9528,-0.9478,-0.9478,-0.9478,-0.9516,-0.9548,-0.9542,-0.9574,-0.9548,-0.9464,-0.9446,-0.9337,-0.9248,-0.9174,-0.9051,-0.8887,-0.8752,-0.8781,-0.8759,-0.8776,-0.8791,-0.8798,-0.8778,-0.8778,-0.8778,-0.8778,-0.8778,-0.8778,-0.8778,-0.8778,-0.8778,-1.8241,-1.7821,-1.7432,-1.6727,-1.5851,-1.5634,-1.5391,-1.5127,-1.4839,-1.4496,-1.4146,-1.3942,-1.3867,-1.3999,-1.4189,-1.4302,-1.4513,-1.4514,-1.4597,-1.4494,-1.4462,-1.4321,-1.4235,-1.4303,-1.4298,-1.4352,-1.4442,-1.4544,-1.4538,-1.4663,-1.4344,-1.394,-1.3556,-1.3198,-1.2997,-1.2796,-1.2747,-1.2705,-1.2705,-1.2632,-1.2602,-1.2554,-1.2506,-1.2451,-1.2463,-1.2548,-1.2566,-1.2638,-1.262,-1.2578,-1.2542,-1.2451,-1.2373,-1.2361,-1.2355,-1.233,-1.224,-1.2174,-1.2071,-1.1639,-1.1273,-1.1129,-1.1117,-1.1135,-1.1172,-1.1123,-1.1117,-1.1117,-1.1117,-1.1117,-1.1117,-1.1117,-1.1117,-1.1117,-1.1117,-1.1117,-1.1069,-1.0954,-1.093,-1.0942,-1.0569,-1.0136,-0.9889,-0.9672,-0.9582,-0.9478,-0.9478,-0.951,-0.958,-0.9644,-0.967,-0.9734,-0.9734,-0.974,-0.9716,-0.9673,-0.9618,-0.9569,-0.9481,-0.9364,-0.9176,-0.8933,-0.8917,-0.8929,-0.8918,-0.8884,-0.8858,-0.8798,-0.8785,-0.8811,-0.8811,-0.8778,-0.8778,-0.8778,-0.8778,-1.8612,-1.8282,-1.8241,-1.7514,-1.6492,-1.6409,-1.6113,-1.5733,-1.5575,-1.5242,-1.4776,-1.4601,-1.4475,-1.4544,-1.4682,-1.4838,-1.4918,-1.4906,-1.485,-1.4778,-1.4624,-1.4423,-1.4409,-1.4446,-1.4487,-1.4555,-1.4694,-1.4838,-1.4921,-1.5035,-1.4823,-1.4495,-1.4027,-1.3661,-1.3218,-1.2966,-1.2839,-1.2833,-1.2747,-1.2705,-1.2699,-1.2693,-1.2687,-1.2668,-1.2674,-1.2674,-1.2668,-1.2693,-1.2693,-1.2681,-1.2681,-1.2693,-1.2693,-1.2699,-1.2705,-1.2638,-1.2554,-1.2433,-1.23,-1.1922,-1.1537,-1.1455,-1.1407,-1.1395,-1.1341,-1.1286,-1.1242,-1.1256,-1.1196,-1.1123,-1.1135,-1.1117,-1.1117,-1.1117,-1.1117,-1.1117,-1.1117,-1.1045,-1.1063,-1.1063,-1.0719,-1.0466,-1.0083,-0.9853,-0.973,-0.9656,-0.9638,-0.967,-0.9696,-0.9798,-0.9894,-0.9919,-0.9951,-0.9983,-0.9983,-0.9895,-0.9825,-0.9844,-0.9787,-0.9808,-0.9654,-0.9395,-0.9184,-0.9175,-0.9118,-0.8998,-0.8945,-0.8911,-0.8884,-0.8818,-0.8824,-0.8811,-0.8778,-0.8778,-0.8778,-1.8962,-1.8962,-1.8772,-1.808,-1.7139,-1.709,-1.6804,-1.6394,-1.6312,-1.6057,-1.5609,-1.5436,-1.5352,-1.5325,-1.5349,-1.5437,-1.5561,-1.549,-1.5395,-1.5327,-1.503,-1.4922,-1.4839,-1.4783,-1.4778,-1.5013,-1.5121,-1.5231,-1.5345,-1.5297,-1.5205,-1.5044,-1.4629,-1.408,-1.3459,-1.3185,-1.31,-1.3052,-1.2839,-1.279,-1.2747,-1.2747,-1.2747,-1.2705,-1.2705,-1.2705,-1.2705,-1.2705,-1.2705,-1.2705,-1.2705,-1.2705,-1.2705,-1.2705,-1.2705,-1.2687,-1.2681,-1.2668,-1.2638,-1.2145,-1.1904,-1.1766,-1.1715,-1.1757,-1.1748,-1.1645,-1.1483,-1.1465,-1.1365,-1.122,-1.116,-1.1141,-1.1166,-1.1166,-1.1172,-1.1117,-1.1117,-1.1117,-1.1117,-1.1155,-1.1063,-1.0888,-1.0432,-1.008,-0.9927,-0.9841,-0.981,-0.983,-0.9888,-0.9951,-1.0085,-1.0174,-1.0206,-1.0206,-1.018,-1.0079,-1.0034,-1.0072,-1.0091,-1.0125,-1.0063,-0.988,-0.9688,-0.9532,-0.9412,-0.9345,-0.9205,-0.9051,-0.9092,-0.9098,-0.8891,-0.8851,-0.8811,-0.8871,-0.8985,-1.9112,-1.9002,-1.8922,-1.8603,-1.8121,-1.7829,-1.7465,-1.7098,-1.6886,-1.6599,-1.6229,-1.6105,-1.5989,-1.5906,-1.5873,-1.594,-1.5981,-1.573,-1.5644,-1.566,-1.5425,-1.5203,-1.511,-1.5102,-1.5113,-1.5232,-1.5398,-1.5545,-1.5571,-1.5587,-1.5552,-1.5376,-1.5098,-1.4443,-1.3799,-1.3483,-1.3483,-1.3307,-1.3222,-1.3137,-1.3009,-1.296,-1.2875,-1.2747,-1.2747,-1.2705,-1.2705,-1.2747,-1.2705,-1.2705,-1.2705,-1.2705,-1.2705,-1.2705,-1.2705,-1.2705,-1.2705,-1.2705,-1.2687,-1.2469,-1.2223,-1.2048,-1.1934,-1.194,-1.1862,-1.1854,-1.1793,-1.1736,-1.1667,-1.1594,-1.1661,-1.1441,-1.1387,-1.1359,-1.131,-1.1166,-1.1117,-1.1117,-1.1117,-1.1192,-1.1162,-1.1094,-1.0773,-1.0488,-1.0298,-1.0186,-1.0154,-1.0085,-1.0079,-1.0174,-1.0276,-1.0396,-1.046,-1.0428,-1.0371,-1.0301,-1.0269,-1.0333,-1.0396,-1.0451,-1.035,-1.0217,-1.02,-1.005,-0.986,-0.9706,-0.9633,-0.9524,-0.9479,-0.9412,-0.9252,-0.9098,-0.9084,-0.9254,-0.9458,-1.9222,-1.9112,-1.9112,-1.9002,-1.8732,-1.8322,-1.7919,-1.7514,-1.7302,-1.7017,-1.6812,-1.6763,-1.6689,-1.6582,-1.6541,-1.6533,-1.6533,-1.6319,-1.6188,-1.6128,-1.5824,-1.5718,-1.5619,-1.5486,-1.5531,-1.5656,-1.5784,-1.592,-1.6087,-1.6116,-1.5994,-1.5746,-1.5533,-1.5118,-1.4573,-1.4237,-1.3899,-1.3773,-1.3646,-1.3434,-1.3349,-1.3264,-1.3137,-1.3009,-1.2924,-1.2833,-1.2833,-1.279,-1.2705,-1.2705,-1.2705,-1.2705,-1.2705,-1.2705,-1.2705,-1.2705,-1.2705,-1.2705,-1.2693,-1.2687,-1.2475,-1.2288,-1.2198,-1.2192,-1.2121,-1.2125,-1.2077,-1.2041,-1.1999,-1.195,-1.1896,-1.167,-1.1603,-1.1537,-1.1387,-1.128,-1.1135,-1.1135,-1.1192,-1.1229,-1.1378,-1.1274,-1.1157,-1.091,-1.0715,-1.0606,-1.051,-1.0425,-1.034,-1.0371,-1.0403,-1.0491,-1.0586,-1.0523,-1.0523,-1.0523,-1.0523,-1.0586,-1.0586,-1.0586,-1.0559,-1.0408,-1.0492,-1.0526,-1.0305,-1.012,-1.0127,-1.006,-0.9793,-0.9679,-0.9639,-0.9519,-0.9426,-0.9556,-0.9777,-1.9292,-1.9292,-1.9292,-1.9183,-1.8953,-1.8594,-1.8152,-1.77,-1.7505,-1.74,-1.7392,-1.7343,-1.727,-1.731,-1.7351,-1.727,-1.7229,-1.7057,-1.7009,-1.6845,-1.6487,-1.64,-1.6261,-1.6111,-1.6154,-1.6265,-1.6367,-1.6485,-1.6631,-1.6487,-1.6269,-1.6168,-1.6118,-1.5865,-1.5443,-1.5019,-1.4601,-1.4363,-1.4117,-1.3899,-1.3773,-1.3603,-1.3519,-1.3392,-1.3264,-1.3179,-1.3094,-1.2924,-1.2796,-1.2747,-1.2705,-1.2705,-1.2705,-1.2705,-1.2705,-1.2705,-1.2705,-1.2705,-1.2705,-1.2705,-1.2693,-1.256,-1.2608,-1.2674,-1.2596,-1.2421,-1.2349,-1.2276,-1.2216,-1.2095,-1.1986,-1.188,-1.1814,-1.1682,-1.1531,-1.1357,-1.1214,-1.1191,-1.1235,-1.1378,-1.1601,-1.1608,-1.1488,-1.1329,-1.115,-1.1066,-1.0962,-1.0844,-1.0731,-1.0518,-1.0543,-1.0523,-1.0586,-1.0586,-1.0586,-1.0586,-1.0586,-1.0586,-1.0586,-1.0586,-1.0573,-1.0573,-1.0566,-1.0566,-1.0579,-1.0512,-1.0367,-1.016,-0.99,-0.986,-0.9973,-0.9866,-0.976,-0.9806,-0.9959,-1.9292,-1.9292,-1.9292,-1.9262,-1.9192,-1.8962,-1.8603,-1.8193,-1.7951,-1.7749,-1.7619,-1.7627,-1.7546,-1.7392,-1.7392,-1.7392,-1.7392,-1.7359,-1.731,-1.7188,-1.7106,-1.7007,-1.6899,-1.6804,-1.6825,-1.6869,-1.6943,-1.6993,-1.7017,-1.6862,-1.6721,-1.6556,-1.6745,-1.6639,-1.6368,-1.6023,-1.5533,-1.5033,-1.479,-1.4489,-1.4321,-1.4146,-1.4062,-1.3893,-1.3688,-1.3603,-1.3476,-1.3179,-1.3052,-1.3009,-1.279,-1.2705,-1.2705,-1.2705,-1.2705,-1.2705,-1.2705,-1.2705,-1.2705,-1.2705,-1.2705,-1.2705,-1.2705,-1.2705,-1.2674,-1.2632,-1.2566,-1.2487,-1.2451,-1.2361,-1.2294,-1.2234,-1.2097,-1.1992,-1.1811,-1.1594,-1.1401,-1.1245,-1.1322,-1.1558,-1.1781,-1.1933,-1.1817,-1.1752,-1.1592,-1.1514,-1.1409,-1.1269,-1.1089,-1.0842,-1.0693,-1.068,-1.0653,-1.0673,-1.0606,-1.0586,-1.0586,-1.0586,-1.0586,-1.0586,-1.0586,-1.0579,-1.0586,-1.0586,-1.0586,-1.0573,-1.0526,-1.0325,-1.0151,-1.0285,-1.0385,-1.0251,-1.012,-1.0171,-1.0204,-1.9292,-1.9292,-1.9292,-1.9292,-1.9262,-1.9073,-1.8843,-1.8603,-1.8313,-1.8031,-1.7821,-1.7829,-1.7749,-1.7676,-1.7684,-1.7676,-1.7676,-1.7797,-1.7838,-1.7838,-1.7757,-1.7725,-1.7627,-1.7522,-1.7483,-1.7507,-1.7464,-1.7462,-1.7561,-1.7626,-1.752,-1.7292,-1.7392,-1.7253,-1.7024,-1.6779,-1.6484,-1.5989,-1.5575,-1.5235,-1.5026,-1.481,-1.4692,-1.4482,-1.423,-1.4104,-1.3942,-1.3603,-1.3398,-1.3264,-1.3052,-1.2875,-1.2833,-1.279,-1.2705,-1.2705,-1.2705,-1.2705,-1.2705,-1.2705,-1.2705,-1.2705,-1.2705,-1.2705,-1.2705,-1.2674,-1.2668,-1.265,-1.2668,-1.2668,-1.2626,-1.2566,-1.2433,-1.2306,-1.2065,-1.1863,-1.1609,-1.1348,-1.1465,-1.1763,-1.1966,-1.215,-1.2138,-1.2091,-1.1964,-1.1804,-1.1657,-1.1516,-1.1356,-1.1162,-1.0949,-1.0835,-1.0814,-1.0774,-1.0707,-1.0667,-1.066,-1.0653,-1.0586,-1.0586,-1.0593,-1.0613,-1.0633,-1.0613,-1.0586,-1.0593,-1.062,-1.0586,-1.0499,-1.0586,-1.0586,-1.0466,-1.0378,-1.0419,-1.0466,-1.9292,-1.9292,-1.9292,-1.9292,-1.9262,-1.9121,-1.9002,-1.8962,-1.8603,-1.8322,-1.808,-1.804,-1.7991,-1.7919,-1.7919,-1.7959,-1.8031,-1.8161,-1.829,-1.8393,-1.8322,-1.8282,-1.8241,-1.817,-1.8051,-1.7985,-1.8055,-1.817,-1.8372,-1.8439,-1.8346,-1.8096,-1.8012,-1.7879,-1.7631,-1.7376,-1.7147,-1.6894,-1.6353,-1.5899,-1.5775,-1.5567,-1.5409,-1.52,-1.4985,-1.4727,-1.444,-1.411,-1.3779,-1.361,-1.3392,-1.3179,-1.3009,-1.2839,-1.2747,-1.2705,-1.2705,-1.2705,-1.2705,-1.2705,-1.2705,-1.2705,-1.2705,-1.2705,-1.2705,-1.2705,-1.2705,-1.2705,-1.2705,-1.2705,-1.2662,-1.2729,-1.2686,-1.2606,-1.2464,-1.2326,-1.2227,-1.1963,-1.1885,-1.2104,-1.2232,-1.2368,-1.2254,-1.2171,-1.2138,-1.1984,-1.1897,-1.1784,-1.1683,-1.1489,-1.1303,-1.1102,-1.1029,-1.0982,-1.0935,-1.0881,-1.0794,-1.074,-1.072,-1.0767,-1.0868,-1.0788,-1.0687,-1.0787,-1.0868,-1.0754,-1.0713,-1.0713,-1.0687,-1.0586,-1.0586,-1.0586,-1.0593,-1.0613,-1.0579,-1.9292,-1.9292,-1.9292,-1.9292,-1.9292,-1.9271,-1.9112,-1.9002,-1.8913,-1.8634,-1.8362,-1.8273,-1.8201,-1.808,-1.808,-1.8121,-1.8322,-1.8442,-1.8491,-1.8612,-1.8652,-1.8692,-1.8652,-1.8571,-1.8531,-1.8637,-1.874,-1.8948,-1.916,-1.9213,-1.9144,-1.8922,-1.8701,-1.8379,-1.8226,-1.7934,-1.7587,-1.7505,-1.718,-1.673,-1.6476,-1.6402,-1.6278,-1.6072,-1.5816,-1.5526,-1.5193,-1.4734,-1.4321,-1.399,-1.3737,-1.344,-1.31,-1.2839,-1.2705,-1.2705,-1.2705,-1.2705,-1.2705,-1.2705,-1.2705,-1.2705,-1.2705,-1.2705,-1.2705,-1.2705,-1.2705,-1.2705,-1.2705,-1.2705,-1.2741,-1.2863,-1.2972,-1.2897,-1.2833,-1.2845,-1.2807,-1.2625,-1.2415,-1.2521,-1.2632,-1.2516,-1.2371,-1.2298,-1.2265,-1.2231,-1.2211,-1.2151,-1.2118,-1.1984,-1.171,-1.151,-1.1363,-1.1283,-1.1169,-1.1096,-1.1029,-1.1069,-1.1109,-1.1149,-1.1176,-1.1096,-1.1022,-1.1169,-1.1236,-1.1056,-1.0922,-1.0909,-1.0848,-1.0774,-1.0734,-1.0794,-1.0734,-1.0727,-1.0653,-1.9292,-1.9292,-1.9292,-1.9292,-1.9292,-1.9292,-1.9222,-1.9152,-1.9112,-1.8953,-1.8683,-1.8563,-1.8451,-1.8331,-1.8331,-1.8331,-1.8531,-1.8652,-1.8732,-1.8812,-1.8931,-1.8962,-1.8962,-1.8922,-1.8962,-1.9079,-1.9477,-1.9753,-1.9928,-2.0088,-2.0044,-1.9687,-1.9288,-1.891,-1.873,-1.8222,-1.7887,-1.7829,-1.775,-1.7555,-1.7261,-1.7115,-1.6935,-1.673,-1.6558,-1.6229,-1.5899,-1.5484,-1.511,-1.4622,-1.4201,-1.3743,-1.3398,-1.3094,-1.2918,-1.2833,-1.279,-1.2705,-1.2705,-1.2747,-1.2747,-1.2747,-1.2705,-1.2705,-1.2924,-1.2924,-1.279,-1.2833,-1.2918,-1.2918,-1.2966,-1.3088,-1.3173,-1.3182,-1.3144,-1.3123,-1.3176,-1.3127,-1.3166,-1.3366,-1.3199,-1.2683,-1.2556,-1.2351,-1.2318,-1.2285,-1.2298,-1.2305,-1.2311,-1.2398,-1.2138,-1.1911,-1.1757,-1.153,-1.1343,-1.1316,-1.1316,-1.139,-1.1496,-1.141,-1.1356,-1.1383,-1.1416,-1.1435,-1.1422,-1.1336,-1.1229,-1.1202,-1.1176,-1.1109,-1.1042,-1.1009,-1.0929,-1.0914,-1.0922,-1.9292,-1.9292,-1.9292,-1.9292,-1.9292,-1.9292,-1.9292,-1.9292,-1.9292,-1.9183,-1.9033,-1.8851,-1.8772,-1.87,-1.8709,-1.874,-1.878,-1.8843,-1.8962,-1.9073,-1.9192,-1.9192,-1.9183,-1.9253,-1.9341,-1.9593,-1.9951,-2.0305,-2.0597,-2.074,-2.0713,-2.0412,-1.9928,-1.9389,-1.8998,-1.8611,-1.8307,-1.8428,-1.8422,-1.8336,-1.8055,-1.775,-1.7392,-1.7253,-1.7131,-1.6919,-1.6558,-1.6278,-1.594,-1.5325,-1.4664,-1.4201,-1.3779,-1.3476,-1.3264,-1.3137,-1.3003,-1.2918,-1.2881,-1.2875,-1.2875,-1.2833,-1.279,-1.2875,-1.3094,-1.3094,-1.3009,-1.3009,-1.3094,-1.3137,-1.3222,-1.3313,-1.3398,-1.344,-1.347,-1.3457,-1.3558,-1.3585,-1.3783,-1.3981,-1.352,-1.2978,-1.275,-1.2538,-1.2465,-1.2412,-1.2378,-1.2345,-1.2378,-1.2532,-1.2492,-1.2298,-1.2131,-1.1884,-1.163,-1.1603,-1.1663,-1.171,-1.1777,-1.1637,-1.1535,-1.1697,-1.1737,-1.1622,-1.1582,-1.161,-1.1543,-1.149,-1.1463,-1.1416,-1.1296,-1.1209,-1.1229,-1.1216,-1.1343,-1.9292,-1.9292,-1.9292,-1.9292,-1.9292,-1.9292,-1.9292,-1.9292,-1.9292,-1.9253,-1.9222,-1.9192,-1.9042,-1.8709,-1.8709,-1.878,-1.8962,-1.9033,-1.9112,-1.9222,-1.9262,-1.9292,-1.9292,-1.9311,-1.9723,-2.0058,-2.0391,-2.07,-2.1049,-2.1185,-2.1016,-2.0509,-2.0084,-1.9742,-1.9645,-1.927,-1.9094,-1.9208,-1.9314,-1.9314,-1.9081,-1.8592,-1.7872,-1.7659,-1.7578,-1.7326,-1.7049,-1.6935,-1.6533,-1.5906,-1.5159,-1.4741,-1.4363,-1.3984,-1.373,-1.3561,-1.3385,-1.3222,-1.3179,-1.3179,-1.3137,-1.3137,-1.3137,-1.3179,-1.3307,-1.3355,-1.3307,-1.3307,-1.3392,-1.3355,-1.344,-1.3568,-1.3652,-1.3743,-1.3737,-1.3822,-1.3889,-1.3911,-1.3986,-1.3961,-1.3734,-1.3347,-1.3106,-1.2986,-1.2946,-1.2906,-1.2893,-1.2832,-1.2572,-1.2685,-1.2832,-1.2719,-1.2559,-1.2345,-1.2144,-1.2044,-1.2064,-1.2091,-1.2071,-1.1964,-1.1971,-1.2124,-1.2124,-1.1964,-1.1977,-1.2011,-1.1931,-1.1784,-1.1683,-1.161,-1.147,-1.1396,-1.1456,-1.1543,-1.1663]},{"header":{"parameterUnit":"m.s-1","parameterCategory":1,"la1":31.0,"la2":29.5877,"lo1":-88.7671,"lo2":-86.6584,"dy":0.0162,"dx":0.0185,"nx":115,"ny":88,"refTime":"2023-04-05T18:00:00:Z","depth":0,"parameterNumber":3,"parameterNumberName":"V-component_of_WINDS"},"data":[0.0,0.0,0.0,0.0,0.0,0.0,0.0,0.0,0.0,0.0,0.0,0.0,0.0,0.0,0.0,0.0,0.0,0.0,0.0,0.0,0.0,0.0,0.0,0.0,0.0,0.0,0.0,0.0,0.0,0.0,0.0,0.0,0.0,0.0,0.0,0.0,0.0,0.0,0.0,0.0,0.0,0.0,0.0,0.0,0.0,0.0,0.0,0.0,0.0,0.0,0.0,0.0,0.0,0.0,0.0,0.0,0.0,0.0,0.0,0.0,0.0,0.0,0.0,0.0,0.0,0.0,0.0,0.0,0.0,0.0,0.0,0.0,0.0,0.0,0.0,0.0,0.0,0.0,0.0,0.0,0.0,0.0,0.0,0.0,0.0,0.0,0.0,0.0,0.0,0.0,0.0,0.0,0.0,0.0,0.0,0.0,0.0,0.0,0.0,0.0,0.0,0.0,0.0,0.0,0.0,0.0,0.0,0.0,0.0,0.0,0.0,0.0,0.0,0.0,0.0,0.0,0.0,0.0,0.0,0.0,0.0,0.0,0.0,0.0,0.0,0.0,0.0,0.0,0.0,0.0,0.0,0.0,0.0,0.0,0.0,0.0,0.0,0.0,0.0,0.0,0.0,0.0,0.0,0.0,0.0,0.0,0.0,0.0,0.0,0.0,0.0,0.0,0.0,0.0,0.0,0.0,0.0,0.0,0.0,0.0,0.0,0.0,0.0,0.0,0.0,0.0,0.0,0.0,0.0,0.0,0.0,0.0,0.0,0.0,0.0,0.0,0.0,0.0,0.0,0.0,0.0,0.0,0.0,0.0,0.0,0.0,0.0,0.0,0.0,0.0,0.0,0.0,0.0,0.0,0.0,0.0,0.0,0.0,0.0,0.0,0.0,0.0,0.0,0.0,0.0,0.0,0.0,0.0,0.0,0.0,0.0,0.0,0.0,0.0,0.0,0.0,0.0,0.0,0.0,0.0,0.0,0.0,0.0,0.0,0.0,0.0,0.0,0.0,0.0,0.0,0.0,0.0,0.0,0.0,0.0,0.0,0.0,0.0,0.0,0.0,0.0,0.0,0.0,0.0,0.0,0.0,0.0,0.0,0.0,0.0,0.0,0.0,0.0,0.0,0.0,0.0,0.0,0.0,0.0,0.0,0.0,0.0,0.0,0.0,0.0,0.0,0.0,0.0,0.0,0.0,0.0,0.0,0.0,0.0,0.0,0.0,0.0,0.0,0.0,0.0,0.0,0.0,0.0,0.0,0.0,0.0,0.0,0.0,0.0,0.0,0.0,0.0,0.0,0.0,0.0,0.0,0.0,0.0,0.0,0.0,0.0,0.0,0.0,0.0,0.0,0.0,0.0,0.0,0.0,0.0,0.0,0.0,0.0,0.0,0.0,0.0,0.0,0.0,0.0,0.0,0.0,0.0,0.0,0.0,0.0,0.0,0.0,0.0,0.0,0.0,0.0,0.0,0.0,0.0,0.0,0.0,0.0,0.0,0.0,0.0,0.0,0.0,0.0,0.0,0.0,0.0,0.0,0.0,0.0,0.0,0.0,0.0,0.0,0.0,0.0,0.0,0.0,0.0,0.0,0.0,0.0,0.0,0.0,0.0,0.0,0.0,0.0,0.0,0.0,0.0,0.0,0.0,0.0,0.0,0.0,0.0,0.0,0.0,0.0,0.0,0.0,0.0,0.0,0.0,0.0,0.0,0.0,0.0,0.0,0.0,0.0,0.0,0.0,0.0,0.0,0.0,0.0,0.0,0.0,0.0,0.0,0.0,0.0,0.0,0.0,0.0,0.0,0.0,0.0,0.0,0.0,0.0,0.0,0.0,0.0,0.0,0.0,0.0,0.0,0.0,0.0,0.0,0.0,0.0,0.0,0.0,0.0,0.0,0.0,0.0,0.0,0.0,0.0,0.0,0.0,0.0,0.0,0.0,0.0,0.0,0.0,0.0,0.0,0.0,0.0,0.0,0.0,0.0,0.0,0.0,0.0,0.0,0.0,0.0,0.0,0.0,0.0,0.0,0.0,0.0,0.0,0.0,0.0,0.0,0.0,0.0,0.0,0.0,0.0,0.0,0.0,0.0,0.0,0.0,0.0,0.0,0.0,0.0,0.0,0.0,0.0,0.0,0.0,0.0,0.0,0.0,0.0,0.0,0.0,0.0,0.0,0.0,0.0,0.0,0.0,0.0,0.0,0.0,0.0,0.0,0.0,0.0,0.0,0.0,0.0,0.0,0.0,0.0,0.0,0.0,0.0,0.0,0.0,0.0,0.0,0.0,0.0,0.0,0.0,0.0,0.0,0.0,0.0,0.0,0.0,0.0,0.0,0.0,0.0,0.0,0.0,0.0,0.0,0.0,0.0,0.0,0.0,0.0,0.0,0.0,0.0,0.0,0.0,0.0,0.0,0.0,0.0,0.0,0.0,0.0,0.0,0.0,0.0,0.0,0.0,0.0,0.0,0.0,0.0,0.0,0.0,0.0,0.0,0.0,0.0,0.0,0.0,0.0,0.0,0.0,0.0,0.0,0.0,0.0,0.0,0.0,0.0,0.0,0.0,0.0,0.0,0.0,0.0,0.0,0.0,0.0,0.0,0.0,0.0,0.0,0.0,0.0,0.0,0.0,0.0,0.0,0.0,0.0,0.0,0.0,0.0,0.0,0.0,0.0,0.0,0.0,0.0,0.0,0.0,0.0,0.0,0.0,0.0,0.0,0.0,0.0,0.0,0.0,0.0,0.0,0.0,0.0,0.0,0.0,0.0,0.0,0.0,0.0,0.0,0.0,0.0,0.0,0.0,0.0,0.0,0.0,0.0,0.0,0.0,0.0,0.0,0.0,0.0,0.0,0.0,0.0,0.0,0.0,0.0,0.0,0.0,0.0,0.0,0.0,0.0,0.0,0.0,0.0,0.0,0.0,0.0,0.0,0.0,0.0,0.0,0.0,0.0,0.0,0.0,0.0,0.0,0.0,0.0,0.0,0.0,0.0,0.0,0.0,0.0,0.0,0.0,0.0,0.0,0.0,0.0,0.0,0.0,0.0,0.0,0.0,0.0,0.0,0.0,0.0,0.0,0.0,0.0,0.0,0.0,0.0,0.0,0.0,0.0,0.0,0.0,0.0,0.0,0.0,0.0,0.0,0.0,0.0,0.0,0.0,0.0,0.0,0.0,0.0,0.0,0.0,0.0,0.0,0.0,0.0,0.0,0.0,0.0,0.0,0.0,0.0,0.0,0.0,0.0,0.0,0.0,0.0,0.0,0.0,0.0,0.0,0.0,0.0,0.0,0.0,0.0,0.0,0.0,0.0,0.0,0.0,0.0,0.0,0.0,0.0,0.0,0.0,0.0,0.0,0.0,0.0,0.0,0.0,0.0,0.0,0.0,0.0,0.0,0.0,0.0,0.0,0.0,0.0,0.0,0.0,0.0,0.0,0.0,0.0,0.0,0.0,0.0,0.0,0.0,0.0,0.0,0.0,0.0,0.0,0.0,0.0,0.0,0.0,0.0,0.0,0.0,0.0,0.0,0.0,0.0,0.0,0.0,0.0,0.0,0.0,0.0,0.0,0.0,0.0,0.0,0.0,0.0,0.0,0.0,0.0,0.0,0.0,0.0,0.0,0.0,0.0,0.0,0.0,0.0,0.0,0.0,0.0,0.0,0.0,0.0,0.0,0.0,0.0,0.0,0.0,0.0,0.0,0.0,0.0,0.0,0.0,0.0,0.0,0.0,0.0,0.0,0.0,0.0,0.0,0.0,0.0,0.0,0.0,0.0,0.0,0.0,0.0,0.0,0.0,0.0,0.0,0.0,0.0,0.0,0.0,0.0,0.0,0.0,0.0,0.0,0.0,0.0,0.0,0.0,0.0,0.0,0.0,0.0,0.0,0.0,0.0,0.0,0.0,0.0,0.0,0.0,0.0,0.0,0.0,0.0,0.0,0.0,0.0,0.0,0.0,0.0,0.0,0.0,0.0,0.0,0.0,0.0,0.0,0.0,0.0,0.0,0.0,0.0,0.0,0.0,0.0,0.0,0.0,0.0,0.0,0.0,0.0,0.0,0.0,0.0,0.0,0.0,0.0,0.0,0.0,0.0,0.0,0.0,0.0,0.0,0.0,0.0,0.0,0.0,0.0,0.0,0.0,0.0,0.0,0.0,0.0,0.0,0.0,0.0,0.0,0.0,0.0,0.0,0.0,0.0,0.0,0.0,0.0,0.0,0.0,0.0,0.0,0.0,0.0,0.0,0.0,0.0,0.0,0.0,0.0,0.0,0.0,0.734,0.0,0.0,0.0,0.0,0.0,0.0,0.0,0.0,0.0,0.0,0.0,0.0,0.0,0.0,0.0,0.0,0.0,0.0,0.0,0.0,0.0,0.0,0.0,0.0,0.0,0.0,0.0,0.0,0.0,0.0,0.0,0.0,0.0,0.0,0.0,0.0,0.0,0.0,0.0,0.0,0.0,0.0,0.0,0.0,0.0,0.0,0.0,0.0,0.0,0.0,0.0,0.0,0.0,0.0,0.0,0.0,0.0,0.0,0.0,0.0,0.0,0.0,0.0,0.0,0.0,0.0,0.0,0.0,0.0,0.0,0.0,0.0,0.0,0.0,0.0,0.0,0.0,0.0,0.0,0.0,0.0,0.0,0.0,0.0,0.0,0.0,0.0,0.0,0.0,0.0,0.0,0.0,0.0,0.0,0.0,0.0,0.0,0.0,0.0,0.0,0.0,0.0,0.0,0.0,0.0,0.0,0.0,0.0,0.0,0.0,0.7324,0.7359,0.7381,0.7426,0.7524,0.0,0.0,0.0,0.0,0.0,0.0,0.0,0.0,0.0,0.0,0.0,0.0,0.0,0.0,0.0,0.0,0.0,0.0,0.0,0.0,0.0,0.0,0.0,0.0,0.0,0.0,0.0,0.0,0.0,0.0,0.0,0.0,0.0,0.0,0.0,0.0,0.0,0.0,0.0,0.0,0.0,0.0,0.0,0.0,0.0,0.0,0.0,0.0,0.0,0.0,0.0,0.0,0.0,0.0,0.0,0.0,0.0,0.0,0.0,0.0,0.0,0.0,0.0,0.0,0.0,0.0,0.0,0.0,0.0,0.0,0.0,0.0,0.0,0.0,0.0,0.0,0.0,0.0,0.0,0.0,0.0,0.0,0.0,0.0,0.0,0.0,0.0,0.0,0.0,0.0,0.0,0.0,0.0,0.0,0.0,0.0,0.0,0.0,0.0,0.0,0.0,0.0,0.0,0.0,0.0,0.0,0.0,0.0,0.0,0.0,0.0,0.0,0.768,0.773,0.7819,0.0,0.0,0.0,0.0,0.0,0.0,0.0,0.0,0.0,0.0,0.0,0.0,0.0,0.0,0.0,0.0,0.0,0.0,0.0,0.0,0.0,0.0,0.0,0.0,0.0,0.0,0.0,0.0,0.0,0.0,0.0,0.0,0.0,0.0,0.0,0.0,0.0,0.0,0.0,0.0,0.0,0.0,0.0,0.0,0.0,0.0,0.0,0.0,0.0,0.0,0.0,0.0,0.0,0.0,0.0,0.0,0.0,0.0,0.0,0.0,0.0,0.0,0.0,0.0,0.0,0.0,0.0,0.0,0.0,0.0,0.0,0.0,0.0,0.0,0.0,0.0,0.0,0.0,0.0,0.0,0.0,0.0,0.0,0.0,0.0,0.0,0.0,0.0,0.0,0.0,0.0,0.0,0.0,0.0,0.0,0.0,0.0,0.0,0.0,0.0,0.0,0.0,0.0,0.0,0.0,0.0,0.0,0.0,0.0,0.0,0.8424,0.8489,0.853,0.0,0.868,0.0,0.0,0.0,0.0,0.0,0.0,0.0,0.0,0.0,0.0,0.0,0.0,0.0,0.0,0.0,0.0,0.0,0.0,0.0,0.0,0.0,0.0,0.0,0.0,0.0,0.0,0.0,0.0,0.0,0.0,0.0,0.0,0.0,0.0,0.0,0.0,0.0,0.0,0.0,0.0,0.0,0.0,0.0,0.0,0.0,0.0,0.0,0.0,0.0,0.0,0.0,0.0,0.0,0.0,0.0,0.0,0.0,0.0,0.0,0.0,0.0,0.0,0.0,0.0,0.0,0.0,0.0,0.0,0.0,0.0,0.0,0.0,0.0,0.0,0.0,0.0,0.0,0.0,0.0,0.0,0.0,0.0,0.0,0.0,0.0,0.0,0.0,0.0,0.0,0.0,0.0,0.0,0.0,0.0,0.0,0.0,0.0,0.0,0.0,0.0,0.0,0.0,0.0,0.0,0.0,0.0,0.0,0.0,0.0,0.0,0.862,0.871,0.8787,0.8851,0.0,0.0,0.0,0.0,0.0,0.0,0.0,0.0,0.0,0.0,0.0,0.0,0.0,0.0,0.0,0.0,0.0,0.0,0.0,0.0,0.0,0.0,0.0,0.0,0.0,0.0,0.0,0.0,0.0,0.0,0.0,0.0,0.0,0.0,0.0,0.0,0.0,0.0,0.0,0.0,0.0,0.0,0.0,0.0,0.0,0.0,0.0,0.0,0.0,0.0,0.0,0.0,0.0,0.0,0.0,0.0,0.0,0.0,0.0,0.0,0.0,0.0,0.0,0.0,0.0,0.0,0.0,0.0,0.0,0.0,0.0,0.0,0.0,0.0,0.0,0.0,0.0,0.0,0.0,0.0,0.0,0.0,0.0,0.0,0.0,0.0,0.0,0.0,0.0,0.0,0.0,0.0,0.0,0.0,0.0,0.0,0.0,0.0,0.0,0.0,0.0,0.0,0.0,0.0,0.0,0.0,0.0,0.0,0.0,0.0,0.8677,0.8747,0.8846,0.892,0.8981,0.9026,0.0,0.0,0.0,0.0,0.0,0.0,0.0,0.0,0.0,0.0,0.0,0.0,0.0,0.0,0.0,0.0,0.0,0.0,0.0,0.0,0.0,0.0,0.0,0.0,0.0,0.0,0.0,0.0,0.0,0.0,0.0,0.0,0.0,0.0,0.0,0.0,0.0,0.0,0.0,0.0,0.0,0.0,0.0,0.0,0.0,0.0,0.0,0.0,0.0,0.0,0.0,0.0,0.0,0.0,0.0,0.0,0.0,0.0,0.0,0.0,0.0,0.0,0.0,0.0,0.0,0.0,0.0,0.0,0.0,0.0,0.0,0.0,0.0,0.0,0.0,0.0,0.0,0.0,0.0,0.0,0.0,0.0,0.0,0.0,0.0,0.0,0.0,0.0,0.0,0.0,0.0,0.0,0.0,0.0,0.0,0.0,0.0,0.0,0.0,0.0,0.0,0.0,0.0,0.0,0.0,0.0,0.0,0.0,0.8794,0.8874,0.8925,0.8984,0.906,0.9093,0.0,0.0,0.0,0.0,0.0,0.0,0.0,0.0,0.0,0.0,0.0,0.0,0.0,0.0,0.0,0.0,0.0,0.0,0.0,0.0,0.0,0.0,0.0,0.0,0.0,0.0,0.0,0.0,0.0,0.0,0.0,0.0,0.0,0.0,0.0,0.0,0.0,0.0,0.0,0.0,0.0,0.0,0.0,0.0,0.0,0.0,0.0,0.0,0.0,0.0,0.0,0.0,0.0,0.0,0.0,0.0,0.0,0.0,0.0,0.0,0.0,0.0,0.0,0.0,0.0,0.0,0.0,0.0,0.0,0.0,0.0,0.0,0.0,0.0,0.0,0.0,0.0,0.0,0.0,0.0,0.0,0.0,0.0,0.0,0.0,0.0,0.0,0.0,0.0,0.0,0.0,0.0,0.0,0.0,0.0,0.0,0.0,0.0,0.0,0.0,0.0,0.0,0.0,0.0,0.0,0.0,0.0,0.0,0.0,0.8914,0.9024,0.9109,0.9131,0.9177,0.9219,0.0,0.0,0.0,0.0,0.0,0.0,0.0,0.0,0.0,0.0,0.0,0.0,0.0,0.0,0.0,0.0,0.0,0.0,0.0,0.0,0.0,0.0,0.0,0.0,0.0,0.0,0.0,0.0,0.0,0.0,0.0,0.0,0.0,0.0,0.0,0.0,0.0,0.0,0.0,0.0,0.0,0.0,0.0,0.0,0.0,0.0,0.0,0.0,0.0,0.0,0.0,0.0,0.0,0.0,0.0,0.0,0.0,0.0,0.0,0.0,0.0,0.0,0.0,0.0,0.0,0.0,0.0,0.0,0.0,0.0,0.0,0.0,0.0,0.0,0.0,0.0,0.0,0.0,0.0,0.0,0.0,0.0,0.0,0.0,0.0,0.0,0.0,0.0,0.0,0.0,0.0,0.0,0.0,0.0,0.0,0.0,0.0,0.0,0.0,0.0,0.0,0.0,0.0,0.0,0.0,0.0,0.0,0.0,0.0,0.9092,0.0,0.9276,0.9288,0.9344,0.9367,0.0,0.0,0.0,0.0,0.0,0.0,0.0,0.0,0.0,0.0,0.0,0.0,0.0,0.0,0.0,0.0,0.0,0.0,0.0,0.0,0.0,0.0,0.0,0.0,0.0,0.0,0.0,0.0,0.0,0.0,0.0,0.0,0.0,0.0,0.0,0.0,0.0,0.0,0.0,0.0,0.0,0.0,0.0,0.0,0.0,0.0,0.0,0.0,0.0,0.0,0.0,0.0,0.0,0.0,0.0,0.0,0.0,0.0,0.0,0.0,0.0,0.0,0.0,0.0,0.0,0.0,0.0,0.0,0.0,0.0,0.0,0.0,0.0,0.0,0.0,0.0,0.0,0.0,0.0,0.0,0.0,0.0,0.0,0.0,0.0,0.0,0.0,0.0,0.0,0.0,0.0,0.0,0.0,0.0,0.0,0.0,0.0,0.0,0.0,0.0,0.0,0.0,0.0,0.0,0.0,0.0,0.0,0.0,0.9174,0.9285,0.9362,0.9444,0.9488,0.9487,0.9514,0.0,0.0,0.0,0.0,0.0,0.0,0.0,0.0,0.0,0.0,0.0,0.0,0.0,0.0,0.0,0.0,0.0,0.0,0.0,0.0,0.0,0.0,0.0,0.0,0.0,0.0,0.0,0.0,0.0,0.0,0.0,0.0,0.0,0.0,0.0,0.0,0.0,0.0,0.0,0.0,0.0,0.0,0.0,0.0,0.0,0.0,0.0,0.0,0.0,0.0,0.0,0.0,0.0,0.0,0.0,0.0,0.0,0.0,0.0,0.0,0.0,0.0,0.0,0.0,0.0,0.0,0.0,0.0,0.0,0.0,0.0,0.0,0.0,0.0,0.0,0.0,0.0,0.0,0.0,0.0,0.0,0.0,0.0,0.0,0.0,0.0,0.0,0.0,0.0,0.0,0.0,0.0,0.0,0.0,0.0,0.0,0.0,0.0,0.0,0.0,0.0,0.0,0.0,0.0,0.0,0.0,0.0,0.0,0.0,0.9452,0.946,0.9503,0.9553,0.9579,0.9587,0.0,0.0,0.0,0.0,0.0,0.0,0.0,0.0,0.0,0.0,0.0,0.0,0.0,0.0,0.0,0.0,0.0,0.0,0.0,0.0,0.0,0.0,0.0,0.0,0.0,0.0,0.0,0.0,0.0,0.0,0.0,0.0,0.0,0.0,0.0,0.0,0.0,0.0,0.0,0.0,0.0,0.0,0.0,0.0,0.0,0.0,0.0,0.0,0.0,0.0,0.0,0.0,0.0,0.0,0.0,0.0,0.0,0.0,0.0,0.0,0.0,0.0,0.0,0.0,0.0,0.0,0.0,0.0,0.0,0.0,0.0,0.0,0.0,0.0,0.0,0.0,0.0,0.0,0.0,0.0,0.0,0.0,0.0,0.0,0.0,0.0,0.0,0.0,0.0,0.0,0.0,0.0,0.0,0.0,0.0,0.0,0.0,0.0,0.0,0.0,0.0,0.0,0.0,0.0,0.0,0.0,0.0,0.0,0.0,1.0483,1.0222,1.0233,1.0564,1.056,1.059,1.0617,0.0,0.0,0.0,0.0,0.0,0.0,0.0,0.0,0.0,0.0,0.0,0.0,0.0,0.0,0.0,0.0,0.0,0.0,0.0,0.0,0.0,0.0,0.0,0.0,0.0,0.0,0.0,0.0,0.0,0.0,0.0,0.0,0.0,0.0,0.0,0.0,0.0,0.0,0.0,0.0,0.0,0.0,0.0,0.0,0.0,0.0,0.0,0.0,0.0,0.0,0.0,0.0,0.0,0.0,0.0,0.0,0.0,0.0,0.0,0.0,0.0,0.0,0.0,0.0,0.0,0.0,0.0,0.0,0.0,0.0,0.0,0.0,0.0,0.0,0.0,0.0,0.0,0.0,0.0,0.0,0.0,0.0,0.0,0.0,0.0,0.0,0.0,0.0,0.0,0.0,0.0,0.0,0.0,0.0,0.0,0.0,0.0,0.0,0.0,0.0,0.0,0.0,0.0,0.0,0.0,0.0,0.0,0.0,1.2334,1.1616,1.1537,1.2144,1.2237,1.2265,0.0,0.0,0.0,0.0,0.0,0.0,0.0,0.0,0.0,0.0,0.0,0.0,0.0,0.0,0.0,0.0,0.0,0.0,0.0,0.0,0.0,0.0,0.0,0.0,0.0,0.0,0.0,0.0,0.0,0.0,0.0,0.0,0.0,0.0,0.0,0.0,0.0,0.0,0.0,0.0,0.0,0.0,0.0,0.0,0.0,0.0,0.0,0.0,0.0,0.0,0.0,0.0,0.0,0.0,0.0,0.0,0.0,0.0,0.0,0.0,0.0,0.0,0.0,0.0,0.0,0.0,0.0,0.0,0.0,0.0,0.0,0.0,0.0,0.0,0.0,0.0,0.0,0.0,0.0,0.0,0.0,0.0,0.0,0.0,0.0,0.0,0.0,0.0,0.0,0.0,0.0,0.0,0.0,0.0,0.0,0.0,0.0,0.0,0.0,0.0,0.0,0.0,0.0,0.0,0.0,0.0,0.0,0.0,0.0,1.4082,1.3991,1.3374,1.2342,1.2856,1.2889,0.0,0.0,0.0,0.0,0.0,0.0,0.0,0.0,0.0,0.0,0.0,0.0,0.0,0.0,0.0,0.0,0.0,0.0,0.0,0.0,0.0,0.0,0.0,0.0,0.0,0.0,0.0,0.0,0.0,0.0,0.0,0.0,0.0,0.0,0.0,0.0,0.0,0.0,0.0,0.0,0.0,0.0,0.0,0.0,0.0,0.0,0.0,0.0,0.0,0.0,0.0,0.0,0.0,0.0,0.0,0.0,0.0,0.0,0.0,0.0,0.0,0.0,0.0,0.0,0.0,0.0,0.0,0.0,0.0,0.0,0.0,0.0,0.0,0.0,0.0,0.0,0.0,0.0,0.0,0.0,0.0,0.0,0.0,0.0,0.0,0.0,0.0,0.0,0.0,0.0,0.0,0.0,0.0,0.0,0.0,0.0,0.0,0.0,0.0,0.0,0.0,0.0,0.0,0.0,0.0,0.0,0.0,0.0,1.3226,1.5358,1.6097,1.581,1.4493,1.4551,1.4368,0.0,0.0,0.0,0.0,0.0,0.0,0.0,0.0,0.0,0.0,0.0,0.0,0.0,0.0,0.0,0.0,0.0,0.0,0.0,0.0,0.0,0.0,0.0,0.0,0.0,0.0,0.0,0.0,0.0,0.0,0.0,0.0,0.0,0.0,0.0,0.0,0.0,0.0,0.0,0.0,0.0,0.0,0.0,0.0,0.0,0.0,0.0,0.0,0.0,0.0,0.0,0.0,0.0,0.0,0.0,0.0,0.0,0.0,0.0,0.0,0.0,0.0,0.0,0.0,0.0,0.0,0.0,0.0,0.0,0.0,0.0,0.0,0.0,0.0,0.0,0.0,0.0,0.0,0.0,0.0,0.0,0.0,0.0,0.0,0.0,0.0,0.0,0.0,0.0,0.0,0.0,0.0,0.0,0.0,0.0,0.0,0.0,0.0,0.0,0.0,0.0,0.0,0.0,0.0,0.0,0.0,0.0,0.0,1.4547,1.6215,1.7796,1.8321,1.7684,1.6742,1.6174,0.0,0.0,0.0,0.0,0.0,0.0,0.0,0.0,0.0,0.0,0.0,0.0,0.0,0.0,0.0,0.0,0.0,0.0,0.0,0.0,0.0,0.0,0.0,0.0,0.0,0.0,0.0,0.0,0.0,0.0,0.0,0.0,0.0,0.0,0.0,0.0,0.0,0.0,0.0,0.0,0.0,0.0,0.0,0.0,0.0,0.0,0.0,0.0,0.0,0.0,0.0,0.0,0.0,0.0,0.0,0.0,0.0,0.0,0.0,0.0,0.0,0.0,0.0,0.0,0.0,0.0,0.0,0.0,0.0,0.0,0.0,0.0,0.0,0.0,0.0,0.0,0.0,0.0,0.0,0.0,0.0,0.0,0.0,0.0,0.0,0.0,0.0,0.0,0.0,0.0,0.0,0.0,0.0,0.0,0.0,0.0,0.0,0.0,0.0,0.0,0.0,0.0,0.0,0.0,0.0,0.0,0.0,0.0,1.5525,1.716,1.8227,1.8992,1.9427,1.7943,1.6783,0.0,0.0,0.0,0.0,0.0,0.0,0.0,0.0,0.0,0.0,0.0,0.0,0.0,0.0,0.0,0.0,0.0,0.0,0.0,0.0,0.0,0.0,0.0,0.0,0.0,0.0,0.0,0.0,0.0,0.0,0.0,0.0,0.0,0.0,0.0,0.0,0.0,0.0,0.0,0.0,0.0,0.0,0.0,0.0,0.0,0.0,0.0,0.0,0.9839,0.0,0.0,0.0,0.0,0.0,0.0,0.0,0.0,0.0,0.0,0.0,0.0,0.0,0.0,0.0,0.0,0.0,0.0,0.0,0.0,0.0,0.0,0.0,0.0,0.0,0.0,0.0,0.0,0.0,0.0,0.0,0.0,0.0,0.0,0.0,0.0,0.0,0.0,0.0,0.0,0.0,0.0,0.0,0.0,0.0,0.0,0.0,0.0,0.0,0.0,0.0,0.0,0.0,0.0,0.0,0.0,0.0,0.0,0.0,1.6236,1.7514,1.8768,1.9626,1.9972,1.8379,1.726,0.0,0.0,0.0,0.0,0.0,0.0,0.0,0.0,0.0,0.0,0.0,0.0,0.0,0.0,0.0,0.0,0.0,0.0,0.0,0.0,0.0,0.0,0.0,0.0,0.0,0.0,0.0,0.0,0.0,0.0,0.0,0.0,0.0,0.0,0.0,0.0,0.0,0.0,0.0,0.0,0.0,0.0,0.0,0.0,0.0,0.0,0.0,0.0,0.0,0.0,0.0,0.0,0.0,0.0,0.0,0.0,0.0,0.0,0.0,0.0,0.0,0.0,0.0,0.0,0.0,0.0,0.0,0.0,0.0,0.0,0.0,0.0,0.0,0.0,0.0,0.0,0.0,0.0,0.0,0.0,0.0,0.0,0.0,0.0,0.0,0.0,0.0,0.0,0.0,0.0,0.0,0.0,0.0,0.0,0.0,0.0,0.0,0.0,0.0,0.0,0.0,0.0,0.0,0.0,0.0,0.0,0.0,1.5209,1.684,1.7613,1.9253,2.0055,1.9898,1.841,1.7502,1.7226,0.0,0.0,0.0,0.0,0.0,0.0,0.0,0.0,0.0,0.0,0.0,0.0,0.0,0.0,0.0,0.0,0.0,0.0,0.0,0.0,0.0,0.0,0.0,0.0,0.0,0.0,0.0,0.0,0.0,0.0,0.0,0.0,0.0,0.0,0.0,0.0,0.0,0.0,1.0101,1.0093,0.0,0.0,0.0,0.0,0.0,0.0,0.0,0.0,1.0095,0.0,0.0,0.0,0.0,0.0,0.0,0.0,0.0,0.0,0.0,0.0,0.0,0.0,0.0,0.0,0.0,0.0,0.0,0.0,0.0,0.0,0.0,0.0,0.0,0.0,0.0,0.0,0.0,0.0,0.0,0.0,0.0,0.0,0.0,0.0,0.0,0.0,0.0,0.0,0.0,0.0,0.0,0.0,0.0,0.0,0.0,0.0,0.0,0.0,0.0,0.0,0.0,0.0,0.0,0.0,0.0,1.3593,1.6097,1.7465,1.7615,1.9305,1.9831,1.9109,1.8121,1.7286,1.6529,0.0,0.0,0.0,0.0,0.0,0.0,0.0,0.0,0.0,0.0,0.0,0.0,0.0,0.0,0.0,0.0,0.0,0.0,0.0,0.0,0.0,0.0,0.0,0.0,0.0,0.0,0.0,0.0,0.0,0.0,0.0,0.0,0.0,0.0,0.0,0.0,0.0,0.0,0.0,1.0112,1.0097,0.0,0.0,0.0,0.0,0.0,0.0,0.0,0.0,1.0106,0.0,0.0,0.0,0.0,0.0,0.0,0.0,0.0,0.0,0.0,0.0,0.0,0.0,0.0,0.0,0.0,0.0,0.0,0.0,0.0,0.0,0.0,0.0,0.0,0.0,0.0,0.0,0.0,0.0,0.0,0.0,0.0,0.0,0.0,0.0,0.0,0.0,0.0,0.0,0.0,0.0,0.0,0.0,0.0,0.0,0.0,0.0,0.0,0.0,0.0,0.0,0.0,0.0,0.0,0.0,1.3904,1.6346,1.7635,1.7711,1.9346,1.9834,1.8958,1.8106,1.7248,0.0,0.0,0.0,0.0,0.0,0.0,0.0,0.0,0.0,0.0,0.0,0.0,0.0,0.0,0.0,0.0,0.0,0.0,0.0,0.0,0.0,0.0,0.0,0.0,0.0,0.0,0.0,0.0,0.0,0.0,0.0,0.0,0.0,0.0,0.0,0.0,0.0,0.0,0.0,0.0,1.0154,1.0157,1.0161,0.0,0.0,0.0,0.0,0.0,0.0,1.0154,1.0157,0.0,0.0,0.0,0.0,0.0,0.0,0.0,0.0,0.0,0.0,0.0,0.0,0.0,0.0,0.0,0.0,0.0,0.0,0.0,0.0,0.0,0.0,0.0,0.0,0.0,0.0,0.0,0.0,0.0,0.0,0.0,0.0,0.0,0.0,0.0,0.0,0.0,0.0,0.0,0.0,0.0,0.0,0.0,0.0,0.0,0.0,0.0,0.0,0.0,0.0,0.0,0.0,0.0,0.0,0.0,1.4144,1.6455,1.7704,1.7764,1.9396,1.9804,1.877,1.8056,1.7223,0.0,0.0,0.0,0.0,0.0,0.0,0.0,0.0,0.0,0.0,0.0,0.0,0.0,0.0,0.0,0.0,0.0,0.0,0.0,0.0,0.0,0.0,0.0,0.0,0.0,0.0,0.0,0.0,0.0,0.0,0.0,0.0,0.0,0.0,0.0,0.0,0.0,0.0,0.0,0.0,0.0,1.0191,1.0191,1.0191,0.0,0.0,0.0,0.0,1.0186,1.0187,0.0,0.0,0.0,0.0,0.0,0.0,0.0,0.0,0.0,0.0,0.0,0.0,0.0,0.0,0.0,0.0,0.0,0.0,0.0,0.0,0.0,0.0,0.0,0.0,0.0,0.0,0.0,0.0,0.0,0.0,0.0,0.0,0.0,0.0,0.0,0.0,0.0,0.0,0.0,0.0,0.0,0.0,0.0,0.0,0.0,0.0,0.0,0.0,0.0,0.0,0.0,0.0,0.0,0.0,0.0,0.0,1.4979,1.676,1.771,1.7769,1.9385,1.9523,1.7907,1.7753,1.6962,0.0,0.0,0.0,0.0,0.0,0.0,0.0,0.0,0.0,0.0,0.0,0.0,0.0,0.0,0.0,0.0,0.0,0.0,0.0,0.0,0.0,0.0,0.0,0.0,0.0,0.0,0.0,0.0,0.0,0.0,0.0,0.0,0.0,0.0,0.0,0.0,0.0,0.0,0.0,0.0,0.0,1.0191,1.0198,1.02,1.0202,0.0,0.0,1.0189,1.0189,1.0192,0.0,0.0,0.0,0.0,0.0,0.0,0.0,0.0,0.0,0.0,0.0,0.0,0.0,0.0,0.0,0.0,0.0,0.0,0.0,0.0,0.0,0.0,0.0,0.0,0.0,0.0,0.0,0.0,0.0,0.0,0.0,0.0,0.0,0.0,0.0,0.0,0.0,0.0,0.0,0.0,0.0,0.0,0.0,0.0,0.0,0.0,0.0,0.0,0.0,0.0,0.0,0.0,0.0,0.0,0.0,1.4951,1.5843,1.7062,1.7947,1.843,1.9658,1.9465,1.7757,1.7696,1.693,0.0,0.0,0.0,0.0,0.0,0.0,0.0,0.0,0.0,0.0,0.0,0.0,0.0,0.0,0.0,0.0,0.0,0.0,0.0,0.0,0.0,0.0,0.0,0.0,0.0,0.0,0.0,0.0,0.0,0.0,0.0,0.0,0.0,0.0,0.0,0.0,0.0,0.0,0.0,0.0,0.0,0.0,1.0201,1.0202,0.0,0.0,0.0,1.0255,1.0187,0.0,0.0,0.0,0.0,0.0,0.0,0.0,0.0,0.0,0.0,0.0,0.0,0.0,0.0,0.0,0.0,0.0,0.0,0.0,0.0,0.0,0.0,0.0,0.0,0.0,0.0,0.0,0.0,0.0,0.0,0.0,0.0,0.0,0.0,0.0,0.0,0.0,0.0,0.0,0.0,0.0,0.0,0.0,0.0,0.0,0.0,0.0,0.0,0.0,0.0,0.0,0.0,0.0,0.0,0.0,0.0,0.0,1.6407,1.7479,1.8355,1.8992,1.985,1.9581,1.808,1.8026,0.0,0.0,0.0,0.0,0.0,0.0,0.0,0.0,0.0,0.0,0.0,0.0,0.0,0.0,0.0,0.0,0.0,0.0,0.0,0.0,0.0,0.0,0.0,0.0,0.0,0.0,0.0,1.1285,0.0,0.0,0.0,0.0,0.0,0.0,0.0,0.0,0.0,0.0,0.0,0.0,0.0,0.0,1.0447,1.0258,1.0219,1.0398,0.0,0.0,1.0368,1.0515,1.0359,1.03,0.0,0.0,0.0,0.0,0.0,0.0,0.0,0.0,0.0,0.0,0.0,0.0,0.0,0.0,0.0,0.0,0.0,0.0,0.0,0.0,0.0,0.0,0.0,0.0,0.0,0.0,0.0,0.0,0.0,0.0,0.0,0.0,0.0,0.0,0.0,0.0,0.0,0.0,0.0,0.0,0.0,0.0,0.0,0.0,0.0,0.0,0.0,0.0,0.0,0.0,0.0,0.0,0.0,0.0,0.0,1.6445,1.8066,1.8923,1.9034,1.985,1.9846,1.8958,1.8927,1.8129,0.0,0.0,0.0,0.0,0.0,0.0,0.0,0.0,0.0,0.0,0.0,0.0,0.0,0.0,0.0,0.0,0.0,0.0,0.0,0.0,0.0,0.0,0.0,0.0,0.0,0.0,0.0,0.0,0.0,0.0,0.0,0.0,0.0,0.0,0.0,0.0,0.0,0.0,0.0,0.0,0.0,1.1124,1.0386,1.0288,1.0856,0.0,0.0,1.0573,1.1371,1.0805,1.0571,1.137,0.0,0.0,0.0,0.0,0.0,0.0,0.0,0.0,0.0,0.0,0.0,0.0,0.0,0.0,0.0,0.0,0.0,0.0,0.0,0.0,0.0,0.0,0.0,0.0,0.0,0.0,0.0,0.0,0.0,0.0,0.0,0.0,0.0,0.0,0.0,0.0,0.0,0.0,0.0,0.0,0.0,0.0,0.0,0.0,0.0,0.0,0.0,0.0,0.0,0.0,0.0,0.0,0.0,1.7465,1.7995,1.8668,1.9256,1.9775,2.0141,1.9906,1.9093,1.9062,1.8506,0.0,0.0,0.0,0.0,0.0,0.0,0.0,0.0,0.0,0.0,0.0,0.0,0.0,0.0,0.0,0.0,0.0,0.0,0.0,0.0,0.0,0.0,0.0,0.0,0.0,0.0,0.0,0.0,1.0517,1.0194,1.0196,0.0,0.0,0.0,0.0,0.0,0.0,0.0,0.0,0.0,0.0,1.1504,1.1368,1.0744,0.0,0.0,1.0713,1.042,1.0751,1.0516,1.0437,1.0749,1.0515,0.0,0.0,0.0,0.0,0.0,0.0,0.0,0.0,0.0,0.0,0.0,0.0,0.0,0.0,0.0,0.0,0.0,0.0,0.0,0.0,0.0,0.0,0.0,0.0,0.0,0.0,0.0,0.0,0.0,0.0,0.0,0.0,0.0,0.0,0.0,0.0,0.0,0.0,0.0,0.0,0.0,0.0,0.0,0.0,0.0,0.0,0.0,0.0,0.0,0.0,0.0,0.0,1.8406,1.902,1.927,1.9682,2.0294,2.0301,2.0018,1.9478,1.9478,1.9079,0.0,0.0,0.0,0.0,0.0,0.0,0.0,0.0,0.0,0.0,0.0,0.0,0.0,0.0,0.0,0.0,0.0,0.0,0.0,0.0,0.0,0.0,0.0,0.0,0.0,0.0,0.0,0.0,1.1111,1.0478,1.0226,0.0,0.0,0.0,0.0,0.0,0.0,0.0,0.0,0.0,0.0,1.2,1.1981,1.1024,1.0323,1.0308,1.0309,1.0369,1.0641,1.0463,1.0383,1.0656,0.0,0.0,0.0,0.0,0.0,0.0,0.0,0.0,0.0,0.0,0.0,0.0,0.0,0.0,0.0,0.0,0.0,0.0,0.0,0.0,0.0,0.0,0.0,0.0,0.0,0.0,0.0,0.0,0.0,0.0,2.0017,0.0,0.0,0.0,0.0,0.0,0.0,0.0,0.0,0.0,0.0,0.0,0.0,0.0,0.0,0.0,0.0,0.0,0.0,0.0,0.0,0.0,0.0,1.9023,1.9117,1.9873,2.0259,2.0297,2.0295,2.0286,2.025,2.0337,1.9947,1.9074,0.0,0.0,0.0,0.0,0.0,0.0,0.0,0.0,0.0,0.0,0.0,0.0,0.0,0.0,0.0,0.0,0.0,0.0,0.0,0.0,0.0,0.0,0.0,0.0,0.0,0.0,1.2805,1.1978,1.1129,0.0,0.0,0.0,0.0,0.0,0.0,0.0,0.0,0.0,0.0,1.3352,1.265,1.2047,1.101,1.0308,1.0312,1.0312,1.0585,1.1387,1.0859,1.0585,0.0,0.0,0.0,0.0,0.0,0.0,0.0,0.0,0.0,0.0,0.0,0.0,0.0,0.0,0.0,0.0,0.0,0.0,0.0,0.0,0.0,0.0,0.0,0.0,0.0,0.0,0.0,2.1738,2.1667,0.0,0.0,0.0,0.0,0.0,0.0,0.0,0.0,0.0,0.0,0.0,2.286,2.2871,0.0,0.0,0.0,0.0,0.0,0.0,0.0,0.0,0.0,0.0,0.0,0.0,1.989,1.998,2.0225,2.035,2.0362,2.0371,2.038,2.0352,2.0394,2.0014,1.9195,0.0,0.0,0.0,0.0,0.0,0.0,0.0,0.0,0.0,0.0,0.0,0.0,0.0,0.0,0.0,0.0,0.0,0.0,0.0,0.0,0.0,0.0,0.0,0.0,0.0,1.3537,0.0,0.0,0.0,0.0,0.0,0.0,0.0,0.0,0.0,0.0,0.0,1.3199,1.1755,1.1835,1.1738,1.0976,1.0545,1.0311,0.0,0.0,0.0,0.0,0.0,0.0,0.0,0.0,0.0,0.0,0.0,0.0,0.0,0.0,1.4219,1.3062,1.2865,1.2864,1.2885,0.0,0.0,0.0,0.0,0.0,0.0,0.0,0.0,0.0,0.0,0.0,0.0,0.0,0.0,2.2705,0.0,2.2143,0.0,0.0,0.0,0.0,0.0,0.0,0.0,0.0,2.3366,2.3534,2.3825,2.3835,2.3822,0.0,2.3531,2.3092,0.0,0.0,0.0,0.0,0.0,0.0,0.0,0.0,2.0359,2.039,2.0427,2.0441,2.0451,2.0451,2.0422,2.0437,2.0426,2.0182,1.9683,1.9354,1.8673,0.0,0.0,0.0,0.0,0.0,0.0,0.0,0.0,0.0,0.0,0.0,0.0,0.0,0.0,0.0,0.0,0.0,0.0,0.0,0.0,0.0,0.0,0.0,1.3999,0.0,0.0,0.0,0.0,0.0,0.0,0.0,0.0,0.0,1.2653,1.3241,1.3008,1.1016,1.1504,1.1601,1.0468,0.0,0.0,0.0,0.0,0.0,0.0,0.0,1.2007,1.2008,1.2751,1.3435,1.3728,1.3769,1.3926,1.4452,0.0,0.0,1.3964,1.3788,1.3768,1.3769,1.3769,1.3691,1.3379,1.2871,1.2285,0.0,0.0,0.0,0.0,0.0,0.0,0.0,0.0,2.3114,2.3134,0.0,2.3037,0.0,0.0,0.0,0.0,0.0,2.313,0.0,0.0,2.4433,2.4849,2.5643,2.5682,2.5682,2.5623,2.481,2.4386,2.4286,2.2581,0.0,0.0,0.0,0.0,0.0,0.0,2.0424,2.04,2.0512,2.056,2.056,2.0567,2.0534,2.0509,2.051,2.0501,2.0461,1.9701,1.9235,1.9176,1.8437,0.0,0.0,0.0,0.0,0.0,0.0,0.0,0.0,0.0,0.0,0.0,0.0,0.0,0.0,0.0,0.0,0.0,0.0,0.0,0.0,1.5409,0.0,0.0,0.0,0.0,0.0,0.0,0.0,0.0,0.0,0.0,1.3925,1.4726,1.4392,1.1952,0.0,0.0,0.0,0.0,1.0328,1.0418,1.1742,1.2489,1.1668,1.2277,1.2827,1.2851,0.0,0.0,1.5245,1.5404,1.5425,1.5441,1.5551,1.5513,1.5507,1.543,1.541,1.541,1.539,1.5136,1.4372,1.404,1.3552,2.5777,0.0,0.0,0.0,0.0,2.4481,2.5108,2.5725,2.6338,2.6265,2.5654,2.5026,0.0,0.0,0.0,0.0,0.0,0.0,2.5901,2.6154,2.6766,2.7206,2.7456,2.7456,2.7456,2.7417,2.6563,2.6154,2.6076,2.4425,2.2943,2.1681,0.0,0.0,0.0,0.0,2.0472,2.0515,2.1097,2.142,2.142,2.1439,2.1136,2.0525,2.054,2.0566,2.0565,2.0333,1.9923,1.93,1.9066,0.0,0.0,0.0,0.0,0.0,0.0,0.0,0.0,0.0,0.0,0.0,0.0,0.0,0.0,0.0,0.0,0.0,0.0,0.0,1.5421,1.5403,1.5053,0.0,0.0,0.0,0.0,0.0,0.0,0.0,0.0,0.0,1.4131,1.3756,1.3285,0.0,0.0,1.2629,1.2139,1.1079,1.0727,1.1915,1.2493,0.0,1.2483,1.3152,1.3725,1.3733,1.4442,1.5108,1.5342,1.6065,1.6551,1.6376,1.7146,1.7709,1.7256,1.6707,1.6361,1.6322,1.6322,1.6048,1.5208,1.4565,1.396,2.7878,2.5735,2.5246,2.5341,2.5824,2.6346,2.6857,2.7398,2.7918,2.7847,2.7327,2.6801,2.6276,2.5779,2.5821,0.0,0.0,0.0,2.7411,2.7433,2.798,2.8221,2.8241,2.8221,2.8241,2.8202,2.7716,2.7285,2.6915,2.5918,2.4526,2.2792,0.0,0.0,2.1011,2.0678,2.051,2.0531,2.1347,2.1784,2.1784,2.1788,2.1559,2.1038,2.0754,2.0601,2.0601,2.0601,2.0367,1.9841,1.9821,1.9196,0.0,0.0,0.0,0.0,0.0,0.0,0.0,0.0,0.0,0.0,0.0,1.5775,1.5443,0.0,0.0,0.0,1.6246,1.6423,1.6423,1.6425,0.0,0.0,0.0,0.0,0.0,0.0,0.0,1.633,1.6423,1.6223,1.5667,1.5151,1.4328,1.2973,1.3103,1.3195,1.2842,0.0,1.1664,1.2672,1.3362,1.3683,1.3353,1.4316,1.5198,1.5556,1.6029,1.6381,1.6401,1.6807,1.7082,1.7281,1.8052,1.8693,1.8455,1.8006,1.7453,1.6835,1.6702,1.6411,1.5573,1.4968,1.4521,3.0067,2.862,2.8621,2.8454,2.8199,2.8273,2.8299,2.8316,2.8375,2.8368,2.8298,2.8312,2.8273,2.8184,2.8217,0.0,2.8205,2.8262,2.8349,2.8408,2.8479,2.8543,2.8602,2.8562,2.8503,2.8523,2.8445,2.7976,2.7253,2.7136,2.6257,2.4617,2.294,2.2047,2.1869,2.1101,2.0717,2.0737,2.1569,2.2022,2.2003,2.1949,2.1853,2.1775,2.1015,2.0605,2.0605,2.0605,2.0605,2.0605,2.0605,2.0195,1.9336,0.0,0.0,0.0,0.0,0.0,0.0,0.0,0.0,0.0,0.0,0.0,0.0,0.0,0.0,0.0,1.7539,0.0,1.8008,1.8008,0.0,0.0,0.0,1.7363,1.578,1.703,1.8034,1.8099,0.0,0.0,1.7905,1.7904,1.6746,1.3613,1.3884,1.4093,1.3309,1.3137,1.3038,1.3346,1.4545,1.5194,1.4634,1.5693,1.6844,1.7525,1.7914,1.7821,1.778,1.7545,1.7435,1.7894,1.8451,1.8939,1.9253,1.9255,1.8795,1.7142,1.6841,1.6555,1.562,1.5368,1.5113,3.2544,3.2154,3.2157,3.0625,2.8281,2.8918,2.9195,2.9253,2.9897,2.9813,2.9201,2.9196,2.8855,2.8275,2.8278,2.8278,2.8318,2.8974,2.9602,3.0169,3.0193,3.0566,3.1152,3.0527,3.0195,3.0156,2.9589,2.9179,2.8964,2.832,2.746,2.6367,2.5293,2.4099,2.2821,2.2593,2.2497,2.2478,2.3339,2.3789,2.3769,2.3124,2.2479,2.1813,2.101,2.0598,2.0599,2.0598,2.0598,2.0598,2.0599,2.0208,1.9348,1.9113,0.0,0.0,0.0,0.0,0.0,0.0,0.0,0.0,0.0,1.7598,1.7383,0.0,1.791,0.0,1.789,1.8006,1.8006,1.8002,0.0,0.0,1.7999,1.7845,1.744,1.7744,1.8465,1.9738,1.8716,1.7909,1.7917,1.7916,1.7611,1.678,1.6857,1.6937,1.6678,1.5497,1.5181,1.629,1.6876,1.7125,1.6922,1.7246,1.7663,1.7859,1.7936,1.7919,1.7919,1.8319,1.8651,1.885,1.9471,1.998,2.0082,2.0112,1.948,1.8028,1.7619,1.7151,1.5734,1.5407,1.5331,3.3754,3.3403,3.3387,3.2271,3.0564,3.1016,3.1252,3.1291,3.1758,3.1697,3.1243,3.1232,3.0985,3.058,3.0562,3.0563,3.0622,3.1074,3.1523,3.1933,3.1952,3.2223,3.2671,3.2183,3.1753,3.1363,3.0933,3.0308,2.9566,2.9077,2.8199,2.6988,2.6516,2.5599,2.4295,2.3494,2.3104,2.3104,2.3962,2.4605,2.4952,2.4129,2.3247,2.2402,2.1556,2.0949,2.0581,2.0561,2.0561,2.0561,2.0561,2.0345,1.9857,1.9465,1.9035,0.0,0.0,0.0,0.0,0.0,0.0,0.0,0.0,0.0,0.0,0.0,1.9683,1.9703,2.0049,2.0121,1.9731,2.0054,2.026,2.026,2.0262,1.9974,1.9205,1.9769,2.0595,2.1507,2.0757,2.017,2.0177,2.0142,2.0111,2.0131,2.0122,1.9561,1.8094,1.7014,1.6798,1.765,1.8454,1.88,1.8476,1.841,1.857,1.8916,1.9016,1.9013,1.9035,1.9381,1.969,1.9718,2.0073,2.0385,2.0391,2.0382,1.9939,1.8833,1.8149,1.7272,1.571,1.5345,1.5368,3.4411,3.3747,3.3728,3.3747,3.3748,3.3728,3.3611,3.3395,3.3395,3.3394,3.3393,3.3395,3.3378,3.3379,3.3379,3.3378,3.3378,3.3395,3.3451,3.3544,3.3442,3.3455,3.3542,3.3445,3.2997,3.2257,3.214,3.1321,2.9857,2.972,2.8861,2.7377,2.7198,2.6723,2.5821,2.4235,2.3421,2.3422,2.4179,2.4918,2.5655,2.4828,2.4021,2.327,2.2401,2.154,2.0687,2.0648,2.0649,2.0671,2.0671,2.0729,2.0807,2.0101,1.9689,0.0,1.8987,0.0,0.0,0.0,0.0,0.0,0.0,0.0,0.0,2.0704,2.1973,2.1954,2.2663,2.2791,2.2031,2.264,2.3075,2.3095,2.3075,2.2479,2.1074,2.2135,2.3081,2.3292,2.3127,2.2994,2.2866,2.293,2.2869,2.2691,2.2623,2.1653,1.9198,1.8399,1.8224,1.8145,1.9396,1.9957,1.9438,1.9264,1.9512,2.017,2.0266,2.0379,2.0286,2.0324,2.0369,2.0362,2.0365,2.039,2.0385,2.0385,2.0095,1.9215,1.8539,1.7563,1.6014,1.5398,1.5303,3.5664,3.5488,3.5507,3.5507,3.5506,3.5506,3.4687,3.3397,3.3378,3.3379,3.3378,3.3378,3.3396,3.3391,3.339,3.3387,3.338,3.3395,3.376,3.4353,3.3702,3.3748,3.4301,3.3639,3.3229,3.3035,3.243,3.1943,3.1592,3.0891,3.0033,2.9039,2.8312,2.7543,2.666,0.0,0.0,0.0,2.5299,2.5451,2.558,2.4777,2.4239,2.4061,2.3218,0.0,2.1524,2.1465,2.1494,2.1545,2.1547,0.0,0.0,0.0,0.0,0.0,0.0,0.0,0.0,0.0,0.0,0.0,2.2432,2.2267,2.2153,2.2585,2.2859,2.2859,2.3005,2.3015,2.279,2.2914,2.3016,2.3025,2.3025,2.2899,2.2648,2.287,2.3505,2.4849,2.3795,2.2937,2.2988,2.2898,2.293,2.3004,2.2903,2.2671,2.2017,2.0663,1.9924,1.996,2.0189,2.0363,2.017,2.0112,2.0109,2.0382,2.0379,2.0379,2.0379,2.0379,2.0379,2.0386,2.0386,2.0389,2.0389,2.0392,2.0137,1.9268,1.8959,1.8349,1.6723,1.5795,1.5289,3.6633,0.0,3.6163,3.6005,0.0,3.6003,3.5498,3.4681,3.4685,3.4703,3.4697,3.4694,3.469,3.4684,3.4638,3.463,3.4644,3.4636,3.4857,3.5215,3.4817,3.484,3.5185,3.4737,3.4306,3.3887,3.3498,3.2856,3.2062,3.1614,3.0739,2.9455,2.9002,2.8371,2.7481,2.6637,2.5987,2.5612,2.5608,2.5578,2.5529,2.5118,2.468,2.4266,2.3836,0.0,0.0,0.0,0.0,0.0,0.0,0.0,0.0,0.0,0.0,2.3018,2.3018,2.3018,2.3018,2.3043,2.3226,2.3614,2.4014,2.4083,2.3728,2.3692,2.3692,2.3711,2.4032,2.4099,2.37,2.4,2.4224,2.4235,2.4235,2.4238,2.4282,2.4261,2.4561,2.5248,2.4725,2.4191,2.4191,2.4184,2.4196,2.4196,2.4196,2.4002,2.3426,2.1736,2.0399,2.0379,2.0379,2.0379,2.0379,2.0379,2.0379,2.0379,2.0379,2.0379,2.0379,2.0379,2.0379,2.0379,2.0379,2.0379,2.035,2.0347,2.0215,1.9751,1.9339,1.8863,1.7882,1.7123,1.6386,3.7429,3.7214,3.6511,3.612,3.5983,3.5983,3.598,3.5972,0.0,0.0,0.0,3.5976,3.5972,3.5988,3.5912,3.588,3.5897,3.5883,3.5888,3.5892,3.5889,3.5849,3.5792,3.5772,3.541,3.4729,3.4578,3.3802,3.2462,3.2132,3.1281,2.9942,2.9553,2.896,2.8105,2.7372,2.6689,2.6028,2.5731,2.5547,2.5515,2.5515,2.5156,2.4458,2.4435,2.4048,2.3231,2.3211,2.3211,2.3215,2.3215,2.3292,2.3431,2.3447,2.3502,2.3657,2.368,2.3734,2.387,2.3893,2.4109,2.4632,2.5334,2.5366,2.4557,2.4502,2.4502,2.4502,2.5114,2.5221,2.4575,2.5108,2.5508,2.5505,2.5505,2.5501,2.5487,2.5518,2.5449,2.5511,2.5453,2.5507,2.5434,2.5434,2.5507,2.5488,2.5356,2.5275,2.4312,2.23,2.073,2.0789,2.0634,2.0379,2.0379,2.0379,2.0379,2.0376,2.0376,2.0376,2.0373,2.0373,2.0373,2.0373,2.0376,2.0347,2.0311,2.0308,2.0288,2.0287,1.9721,1.9219,1.9158,1.8689,1.7857,3.7904,3.7205,3.7069,3.6582,3.5921,3.5921,3.5914,3.5922,3.5929,3.5914,3.5921,3.5919,3.5911,3.5919,3.5894,3.5888,3.5892,3.5836,3.5815,3.5811,3.5829,3.5769,3.5722,3.5703,3.566,3.5504,3.4841,3.439,3.4007,3.2654,3.1766,3.1394,3.0114,2.8989,2.8164,2.7916,2.7776,2.7648,2.6252,2.5522,2.5518,2.5518,2.545,2.5328,2.5325,2.4902,2.4073,2.405,2.4018,2.4032,2.4035,2.4364,2.5085,2.5126,2.5464,2.6184,2.6261,2.6571,2.7207,2.7358,2.7109,2.6517,2.6556,2.6253,2.5421,2.5328,2.5347,2.5347,2.5441,2.545,2.5335,2.5425,2.5518,2.5523,2.5519,2.5519,2.5515,2.5515,2.5511,2.5511,2.5507,2.5507,2.5507,2.5507,2.5507,2.5507,2.5507,2.543,2.4927,2.3155,2.1801,2.1662,2.1021,2.0479,2.0379,2.0379,2.0376,2.0328,2.0308,2.0324,2.0308,2.0324,2.0311,2.0314,2.0308,2.0297,2.0303,2.0299,2.0281,2.0235,2.0007,1.9946,1.993,1.9768,1.9031,3.8864,3.8459,3.7988,3.758,3.7191,3.7191,3.7179,3.7203,3.7199,3.6653,3.5931,3.6336,3.6287,3.5896,3.6293,3.6266,3.583,3.5771,3.5735,3.5741,3.5727,3.5728,3.5708,3.5708,3.5698,3.5664,3.5334,3.4908,3.4405,3.3635,3.2783,3.183,3.063,2.9855,2.9464,2.8956,2.8715,2.8681,2.7489,2.6858,2.6858,2.6858,2.685,2.6858,2.6842,2.6664,2.6281,2.6262,2.6049,2.5569,2.6022,2.6235,2.6173,2.6595,2.7036,2.7404,2.7446,2.7616,2.7965,2.8031,2.7876,2.7485,2.7466,2.7295,2.6897,2.6022,2.5522,2.5522,2.5522,2.5515,2.5503,2.5523,2.5519,2.5511,2.5507,2.5507,2.5507,2.5507,2.5507,2.5507,2.5507,2.5507,2.5507,2.5507,2.5507,2.5488,2.548,2.5452,2.5414,2.4096,2.2743,2.22,2.1507,2.0946,2.0518,2.0373,2.0331,2.0289,2.0299,2.0288,2.0294,2.0287,2.0287,2.0297,2.0299,2.0273,2.025,2.0242,2.0222,2.022,2.0176,2.0143,2.0111,1.9833,1.8938,3.9762,3.9544,3.8864,3.8476,3.8301,3.8301,3.8311,3.8297,3.8278,3.7559,3.6537,3.707,3.7003,3.6477,3.7021,3.6954,3.6411,3.629,3.6256,3.6256,3.627,3.6163,3.5968,3.5968,3.588,3.5729,3.5704,3.5342,3.4737,3.449,3.3518,3.1908,3.1173,3.0772,3.0578,2.994,2.9592,2.9553,2.8939,2.8378,2.801,2.7991,2.7991,2.7991,2.7972,2.7991,2.7991,2.7991,2.7677,2.7073,2.7643,2.7677,2.7078,2.7619,2.8088,2.8242,2.83,2.8397,2.8552,2.8591,2.8513,2.83,2.83,2.8204,2.7914,2.6826,2.5975,2.582,2.582,2.5743,2.5546,2.5507,2.5507,2.5507,2.5507,2.5507,2.5507,2.5507,2.5507,2.5507,2.5507,2.5507,2.5507,2.5468,2.546,2.5472,2.5444,2.5393,2.5312,2.4774,2.389,2.2825,2.2051,2.1439,2.0756,2.044,2.0318,2.0295,2.0294,2.028,2.0272,2.0277,2.0289,2.0277,2.0273,2.0233,2.0176,2.0186,2.0173,2.0155,2.0112,2.0084,2.0041,1.9678,1.8824,4.0269,3.9649,3.9527,3.9009,3.8389,3.835,3.8369,3.8364,3.8325,3.8194,3.8028,3.8126,3.8142,3.8078,3.8112,3.8093,3.7976,3.7984,3.7909,3.7909,3.7984,3.7547,3.6831,3.6787,3.64,3.58,3.5742,3.5684,3.5472,3.4761,3.3518,3.1985,3.1715,3.1313,3.0694,3.052,3.0462,3.0482,3.0385,2.9592,2.8088,2.7991,2.7991,2.7991,2.801,2.7991,2.8107,2.7991,2.7972,2.7894,2.7991,2.801,2.7894,2.7972,2.8358,2.9113,2.9186,2.9519,3.023,3.0346,2.9964,2.9287,2.9166,2.8861,2.8165,2.7894,2.7426,2.6841,2.6605,2.6242,2.5623,2.5507,2.5507,2.5507,2.5507,2.5507,2.5507,2.5507,2.5507,2.5507,2.5503,2.5507,2.5484,2.5452,2.5417,2.5423,2.5406,2.5378,2.536,2.5254,2.4836,2.3811,2.2658,2.176,2.1436,2.078,2.0483,2.0372,2.0292,2.0273,2.0242,2.0203,2.0205,2.021,2.0203,2.0159,2.0093,2.0069,2.0074,2.0035,2.0006,2.0006,1.9992,1.9893,1.9273,4.062,4.031,4.031,4.0117,3.9788,3.9788,3.9768,3.9788,3.9788,3.9757,3.9745,3.9776,3.922,3.8291,3.8761,3.8742,3.8272,3.8216,3.821,3.821,3.8199,3.7999,3.7696,3.7677,3.7226,3.6477,3.64,3.6168,3.5626,3.4819,3.4007,3.3267,3.2333,3.1637,3.1294,3.0849,3.0617,3.0617,3.0617,3.023,2.9631,2.9538,2.9534,2.9534,2.9553,2.9538,2.9534,2.9534,2.9302,2.8861,2.9263,2.9306,2.8803,2.9268,2.9708,3.0037,3.0056,3.023,3.0578,3.0617,3.0443,3.0075,3.0056,2.9882,2.9592,2.9538,2.9171,2.8296,2.7305,2.6354,2.5662,2.5507,2.5507,2.5507,2.5507,2.5507,2.5507,2.5507,2.5484,2.5456,2.544,2.5436,2.5436,2.5419,2.5382,2.5388,2.5365,2.5332,2.5288,2.5273,2.5098,2.4631,2.3659,2.2848,2.2355,2.1574,2.1085,2.0915,2.0563,2.0231,2.0203,2.0149,2.0145,2.0144,2.0103,2.0054,2.0003,1.9977,1.9947,1.9942,1.9931,1.9926,1.9926,1.9942,1.9413,4.0797,4.0797,4.0797,4.0797,4.0797,4.0797,4.0797,4.0797,4.0797,4.0797,4.0797,4.0797,4.0127,3.9096,3.9572,3.9501,3.8972,3.8902,3.8877,3.8877,3.8871,3.8768,3.8549,3.853,3.8072,3.7299,3.6945,3.6449,3.5681,3.5082,3.4599,3.4212,3.3097,3.2362,3.2091,3.1347,3.0926,3.0907,3.0752,3.0617,3.0578,3.0617,3.0617,3.0617,3.0617,3.0617,3.0617,3.0617,3.0327,2.9708,3.0269,3.0327,2.9747,3.0269,3.0617,3.0617,3.0617,3.0617,3.0617,3.0617,3.0617,3.0617,3.0617,3.0617,3.0617,3.0617,3.0211,2.9321,2.8122,2.7073,2.599,2.5816,2.5739,2.5522,2.548,2.546,2.5452,2.5499,2.5476,2.5408,2.5369,2.5351,2.5351,2.5356,2.5337,2.5327,2.5268,2.5225,2.5185,2.5168,2.5132,2.5091,2.4547,2.3913,2.3194,2.236,2.1856,2.1373,2.0881,2.0494,2.0255,2.0098,2.0082,2.0073,2.0003,1.9961,1.9909,1.9881,1.9877,1.9866,1.9879,1.9867,1.9854,1.986,1.9526,4.0797,4.0797,4.0797,4.0797,4.0797,4.0797,4.0797,4.0797,4.0797,4.0797,4.079,4.079,4.0713,4.0468,4.0578,4.07,4.0616,4.0501,4.0442,4.0423,4.0396,4.0054,3.9385,3.9346,3.8883,3.8035,3.7379,3.6556,3.5719,3.5546,3.5115,3.4332,3.4116,3.3746,3.3051,3.2183,3.1753,3.169,3.1057,3.0656,3.0636,3.0636,3.0617,3.0617,3.0617,3.0617,3.0617,3.0617,3.0578,3.052,3.0559,3.0559,3.052,3.0578,3.0617,3.0617,3.0617,3.0617,3.0617,3.0617,3.0617,3.0617,3.0617,3.0617,3.0617,3.0593,3.0245,2.9418,2.922,2.8427,2.7011,2.6698,2.6307,2.5595,2.5455,2.547,2.5395,2.5464,2.5459,2.5384,2.5293,2.5243,2.5292,2.5257,2.5225,2.5185,2.5151,2.5116,2.5106,2.5105,2.5087,2.507,2.4892,2.4613,2.3929,2.313,2.2304,2.184,2.1519,2.0974,2.0406,2.0005,2.0012,2.0004,1.9952,1.99,1.9841,1.9811,1.9806,1.9794,1.9801,1.9795,1.9795,1.9807,1.955,4.0797,4.0797,4.0797,4.0797,4.0797,4.0797,4.0797,4.0797,4.0797,4.0778,4.0739,4.0739,4.0681,4.0647,4.0653,4.0666,4.0687,4.0646,4.0651,4.0624,4.0576,4.038,4.013,4.0111,3.9661,3.8864,3.8479,3.7632,3.6349,3.5759,3.5348,3.5014,3.4506,3.4094,3.3751,3.304,3.2636,3.2559,3.1801,3.1366,3.1313,3.0888,3.0617,3.0617,3.0617,3.0617,3.0617,3.0617,3.0617,3.0617,3.0617,3.0617,3.0617,3.0617,3.0617,3.0617,3.0617,3.0617,3.0617,3.0617,3.0617,3.0617,3.0617,3.0598,3.0593,3.0559,3.0395,3.0144,3.0076,2.9487,2.8541,2.7855,2.7155,2.6385,2.6178,2.5957,2.5509,2.5402,2.5402,2.5279,2.5182,2.5149,2.5214,2.5128,2.5074,2.5056,2.5013,2.4974,2.4967,2.498,2.4961,2.4926,2.4898,2.4804,2.4571,2.3822,2.3111,2.2654,2.2199,2.143,2.0795,2.0204,2.01,1.9938,1.989,1.9836,1.9763,1.9738,1.9726,1.9732,1.9738,1.9744,1.9744,1.9744,1.9613,4.0739,4.0746,4.0746,4.072,4.0746,4.0746,4.072,4.0746,4.0746,4.072,4.0686,4.0666,4.0619,4.0557,4.0527,4.0523,4.0519,4.0504,4.0531,4.0523,4.0476,4.0452,4.0425,4.0397,4.0093,3.9547,3.9221,3.8281,3.6753,3.6039,3.5657,3.5378,3.4834,3.4623,3.4514,3.3857,3.3456,3.3307,3.2615,3.2173,3.2125,3.1434,3.0975,3.0941,3.0733,3.0617,3.0617,3.0617,3.0617,3.0617,3.0617,3.0617,3.0617,3.0617,3.0617,3.0617,3.0617,3.0593,3.0564,3.0564,3.0583,3.0574,3.0574,3.0554,3.0574,3.0535,3.0486,3.0481,3.0495,3.0215,2.9678,2.9105,2.8299,2.7276,2.6967,2.6715,2.6156,2.5635,2.5564,2.5842,2.5691,2.5507,2.5399,2.5139,2.4999,2.4955,2.4895,2.4884,2.491,2.4872,2.484,2.4779,2.4776,2.4776,2.4678,2.4238,2.3694,2.3265,2.2918,2.2086,2.1224,2.0627,2.0138,1.9943,1.9806,1.9763,1.9732,1.9701,1.9687,1.9685,1.9665,1.9665,1.9672,1.9672,1.9573,4.0614,4.0595,4.0595,4.0614,4.0614,4.0614,4.0595,4.0614,4.0607,4.0605,4.0588,4.06,4.0516,4.0414,4.0389,4.0375,4.0323,4.0366,4.0381,4.04,4.0342,4.0307,4.0279,4.0233,4.0186,4.0005,3.9346,3.8162,3.6787,3.6572,3.6138,3.5473,3.5419,3.5321,3.5367,3.4564,3.4218,3.4051,3.3421,3.3051,3.2982,3.2268,3.1815,3.1743,3.1168,3.082,3.0748,3.0651,3.0593,3.0593,3.0593,3.0598,3.0593,3.0593,3.0574,3.0588,3.0593,3.0559,3.0501,3.0515,3.051,3.0514,3.0509,3.0495,3.0514,3.0504,3.0479,3.0474,3.0469,3.0406,3.0334,3.0204,2.9533,2.8132,2.7766,2.7661,2.7267,2.6213,2.5779,2.6888,2.6725,2.6238,2.6013,2.5511,2.5081,2.4927,2.4839,2.4802,2.4839,2.4794,2.4757,2.4696,2.466,2.4663,2.4679,2.4628,2.42,2.3792,2.3493,2.292,2.1913,2.1184,2.0596,2.0308,1.9807,1.9744,1.9662,1.9636,1.9628,1.9613,1.9618,1.9611,1.9618,1.9625,1.9613,4.0534,4.0534,4.0534,4.0534,4.0554,4.0534,4.0534,4.0534,4.0534,4.0496,4.0471,4.0463,4.0375,4.0288,4.0271,4.0234,4.0148,4.0148,4.0187,4.0225,4.0196,4.0128,4.0099,4.0078,4.0048,3.9855,3.9171,3.8544,3.8003,3.7452,3.6767,3.6145,3.6025,3.5804,3.5324,3.5088,3.499,3.4915,3.4237,3.3833,3.3781,3.3055,3.2629,3.2593,3.2367,3.2251,3.2199,3.1153,3.0564,3.0564,3.0535,3.053,3.0525,3.0549,3.053,3.0525,3.0525,3.0525,3.0495,3.0495,3.049,3.0485,3.0485,3.0485,3.0479,3.0463,3.0442,3.0419,3.0383,3.0354,3.0336,3.0286,2.9768,2.8746,2.8562,2.8261,2.778,2.711,2.7524,2.852,2.7813,2.6832,2.6223,2.5721,2.5389,2.4888,2.474,2.4687,2.4684,2.4692,2.4663,2.4626,2.4576,2.4576,2.4599,2.4631,2.4412,2.4121,2.3863,2.3539,2.2595,2.1648,2.1092,2.0442,1.996,1.9697,1.9614,1.9601,1.9599,1.9585,1.9597,1.959,1.9583,1.959,1.9597,4.0392,4.0392,4.0392,4.0392,4.0392,4.0372,4.0392,4.0372,4.0392,4.0341,4.0308,4.029,4.0215,4.0099,4.0078,4.0057,3.9975,3.9943,3.9954,4.0026,4.0015,3.9965,3.9933,3.9892,3.9878,3.9758,3.9304,3.8907,3.8596,3.8109,3.7345,3.6416,3.6302,3.5929,3.5272,3.5198,3.5239,3.5201,3.4817,3.4573,3.4415,3.3795,3.3397,3.3397,3.3152,3.2979,3.2883,3.1925,3.1248,3.0937,3.0651,3.0466,3.0472,3.0466,3.0466,3.0472,3.0458,3.0463,3.0472,3.0458,3.0463,3.0472,3.0447,3.0442,3.0431,3.0375,3.0371,3.0355,3.0305,3.0273,3.0247,3.0206,2.9904,2.9443,2.9301,2.9007,2.8438,2.8291,2.8556,2.9145,2.846,2.753,2.7008,2.6128,2.5804,2.5182,2.4794,2.459,2.4572,2.4582,2.4568,2.4569,2.4534,2.4542,2.4568,2.4584,2.4584,2.4385,2.4193,2.3797,2.3165,2.2152,2.1398,2.0418,1.9775,1.9675,1.9599,1.9599,1.9585,1.959,1.9583,1.9583,1.9583,1.9583,1.959,4.0187,4.0187,4.0187,4.0187,4.0167,4.0187,4.0187,4.0187,4.0187,4.0158,4.0078,4.0087,4.0007,3.9911,3.99,3.9867,3.9804,3.9811,3.9758,3.9766,3.9777,3.9811,3.98,3.9754,3.972,3.9701,3.9632,3.9286,3.872,3.8663,3.7816,3.6428,3.6327,3.5827,3.5191,3.5066,3.5091,3.5096,3.5092,3.5111,3.517,3.45,3.4115,3.4204,3.3589,3.3217,3.3237,3.296,3.25,3.1774,3.1077,3.0764,3.0597,3.0546,3.0694,3.0757,3.0581,3.0691,3.0621,3.0825,3.0793,3.0808,3.0686,3.0444,3.0522,3.0419,3.0305,3.0286,3.0227,3.0207,3.0187,3.013,3.0019,2.998,2.978,2.9677,2.976,2.9594,2.9504,2.9363,2.883,2.8287,2.8082,2.6896,2.6215,2.5609,2.5098,2.4828,2.4559,2.4542,2.4508,2.45,2.4508,2.4517,2.4542,2.4542,2.4542,2.4495,2.4344,2.4091,2.3596,2.2629,2.157,2.0573,1.9734,1.9634,1.959,1.9597,1.9597,1.959,1.9583,1.9583,1.9583,1.9583,1.9583,3.9967,3.9986,3.9967,3.9967,3.9986,3.9986,3.9967,3.9967,3.9967,3.9935,3.99,3.987,3.9826,3.9766,3.9747,3.9743,3.9715,3.9722,3.9679,3.9619,3.9631,3.9698,3.971,3.9662,3.9638,3.9638,3.9631,3.9507,3.9337,3.9322,3.8497,3.6982,3.6893,3.6247,3.5097,3.4908,3.4917,3.4945,3.4982,3.5037,3.5096,3.4933,3.486,3.4894,3.4653,3.4538,3.4512,3.3964,3.3272,3.2522,3.2264,3.2089,3.1986,3.1986,3.1924,3.1933,3.2023,3.2056,3.2096,3.2083,3.2121,3.2121,3.1482,3.1283,3.1238,3.0599,3.0311,3.0213,3.0178,3.0142,3.0113,3.0019,2.9905,2.9796,2.9763,2.9755,2.9745,2.9654,2.9512,2.9423,2.9239,2.8894,2.8342,2.7811,2.7037,2.6116,2.553,2.5149,2.4833,2.4517,2.45,2.45,2.45,2.45,2.45,2.45,2.4508,2.4508,2.4461,2.4414,2.3791,2.2983,2.1871,2.0797,1.9913,1.9609,1.959,1.959,1.9583,1.9583,1.9583,1.9583,1.9583,1.9583,1.9583,3.9735,3.9735,3.9735,3.9735,3.9717,3.9717,3.9735,3.9735,3.9735,3.9682,3.9654,3.9623,3.9606,3.9595,3.9583,3.957,3.9583,3.9571,3.9558,3.9514,3.9514,3.9583,3.9633,3.962,3.9608,3.9608,3.9608,3.962,3.9602,3.9645,3.8905,3.7814,3.7359,3.6519,3.5373,3.4884,3.4791,3.484,3.4869,3.4908,3.4955,3.4964,3.4982,3.5063,3.5072,3.5072,3.4968,3.4533,3.3771,3.2893,3.2599,3.2605,3.2589,3.2589,3.2586,3.2607,3.2611,3.2623,3.2699,3.274,3.2747,3.2601,3.1981,3.1592,3.1322,3.0682,3.0157,3.0094,3.0061,3.0022,2.9991,2.9891,2.9796,2.9726,2.9664,2.9636,2.9673,2.9551,2.9451,2.9419,2.9392,2.9311,2.8712,2.8414,2.7753,2.6888,2.6061,2.5596,2.5132,2.4797,2.45,2.45,2.45,2.45,2.45,2.45,2.45,2.45,2.45,2.4481,2.4026,2.3293,2.2412,2.1335,2.0314,1.962,1.9694,1.9676,1.9583,1.9583,1.9583,1.9583,1.9583,1.9583,1.9583,3.9583,3.9489,3.9489,3.9489,3.9508,3.9489,3.9502,3.9489,3.9502,3.9483,3.9433,3.942,3.9426,3.9405,3.9438,3.9418,3.9418,3.9431,3.9431,3.9431,3.9431,3.9482,3.954,3.9552,3.9552,3.9571,3.9564,3.9564,3.9571,3.9571,3.9102,3.817,3.7432,3.6678,3.5724,3.505,3.4735,3.4718,3.4718,3.473,3.4762,3.4772,3.4783,3.487,3.4879,3.4879,3.4879,3.4708,3.416,3.2826,3.2716,3.2879,3.2777,3.2711,3.2776,3.2897,3.2997,3.2982,3.2918,3.3149,3.3077,3.3012,3.2294,3.1657,3.1638,3.099,3.0315,3.0257,2.9975,2.9895,2.9842,2.9754,2.969,2.9645,2.9541,2.9502,2.9482,2.9443,2.9382,2.9388,2.9388,2.9388,2.9192,2.8783,2.817,2.7604,2.6832,2.6265,2.5559,2.489,2.463,2.45,2.45,2.45,2.45,2.45,2.45,2.45,2.45,2.4444,2.4175,2.3535,2.2885,2.203,2.1038,2.0325,1.9954,1.988,1.9694,1.9583,1.9583,1.9583,1.9583,1.9583,1.9583,4.0005,3.9425,3.9438,3.9406,3.9425,3.9425,3.9425,3.9425,3.9406,3.9393,3.938,3.9399,3.938,3.9405,3.9429,3.9405,3.9466,3.9504,3.9405,3.9405,3.9405,3.9418,3.9481,3.9556,3.9481,3.9475,3.9457,3.9438,3.9438,3.9395,3.9013,3.8197,3.7492,3.6563,3.5801,3.5057,3.4473,3.4476,3.4495,3.452,3.4564,3.4575,3.4596,3.4668,3.4668,3.4708,3.471,3.4739,3.4561,3.4336,3.4186,3.4082,3.4101,3.4129,3.4092,3.4093,3.4179,3.4254,3.4357,3.4308,3.4476,3.4258,3.3517,3.3213,3.309,3.1695,3.0961,3.0663,3.0185,2.9831,2.9682,2.9655,2.9598,2.9541,2.9492,2.9453,2.9472,2.9441,2.9399,2.9388,2.9388,2.9388,2.9388,2.9277,2.8765,2.8226,2.7613,2.7009,2.6098,2.5132,2.4723,2.45,2.45,2.45,2.45,2.45,2.45,2.45,2.45,2.45,2.4212,2.4018,2.3461,2.268,2.1781,2.1131,2.0481,1.9973,1.9787,1.9694,1.9602,1.9583,1.9583,1.9583,1.9743,4.0006,3.928,3.9261,3.9261,3.9261,3.9242,3.9242,3.9261,3.9261,3.9242,3.9261,3.9242,3.9261,3.9317,3.9671,3.9876,3.9988,4.0286,4.0435,4.0472,4.0454,4.044,4.0435,4.0318,4.0164,3.9578,3.9405,3.9405,3.9405,3.9367,3.918,3.8682,3.7866,3.7113,3.6254,3.5394,3.4827,3.4453,3.4386,3.4409,3.445,3.4461,3.4461,3.4495,3.4506,3.4528,3.455,3.455,3.455,3.4561,3.4602,3.4634,3.4655,3.4666,3.4658,3.466,3.4691,3.4722,3.4782,3.485,3.4841,3.4898,3.4103,3.3743,3.3355,3.2317,3.144,3.097,3.0481,3.0039,2.9616,2.955,2.9531,2.9492,2.9443,2.9414,2.9472,2.9431,2.9388,2.9388,2.9388,2.9388,2.9388,2.9388,2.9314,2.8765,2.8133,2.7483,2.6442,2.5522,2.4778,2.45,2.45,2.45,2.45,2.45,2.45,2.45,2.45,2.45,2.4407,2.4268,2.4119,2.3256,2.2375,2.1595,2.0945,2.0444,1.9991,1.975,1.9639,1.962,1.9632,1.9717,1.9963,3.9978,3.9087,3.9101,3.9101,3.9101,3.9101,3.9115,3.9101,3.9101,3.9129,3.9101,3.9101,3.9222,3.9468,4.0025,4.0416,4.075,4.1122,4.1341,4.1341,4.1341,4.1341,4.1359,4.1262,4.09,3.9794,3.9669,3.9594,3.9389,3.9346,3.9264,3.916,3.8456,3.7647,3.6982,3.608,3.5284,3.475,3.4452,3.434,3.437,3.437,3.4363,3.4363,3.4381,3.4393,3.4386,3.4397,3.4404,3.4386,3.4386,3.4427,3.4443,3.4465,3.4465,3.4495,3.455,3.4594,3.4655,3.4708,3.4739,3.4739,3.4144,3.373,3.3502,3.2905,3.2131,3.1453,3.0953,3.036,2.9771,2.9537,2.951,2.9481,2.9441,2.9441,2.9471,2.944,2.9399,2.9388,2.9388,2.9388,2.9388,2.9388,2.9388,2.9277,2.8635,2.7929,2.6907,2.6089,2.5457,2.4704,2.4685,2.4537,2.45,2.45,2.45,2.45,2.45,2.45,2.45,2.4425,2.4231,2.3776,2.2988,2.2227,2.1643,2.1257,2.0738,2.0103,2.0081,2.0448,2.03,1.9937,2.0311,4.0411,3.9021,3.9073,3.9101,3.9101,3.9101,3.9101,3.9101,3.9101,3.9101,3.9101,3.9101,3.9491,4.0048,4.0267,4.075,4.1404,4.1813,4.1794,4.1794,4.1794,4.1794,4.1869,4.1906,4.1526,4.1136,4.0644,4.003,3.9398,3.9161,3.9188,3.8989,3.8431,3.7873,3.7352,3.639,3.5671,3.5262,3.4741,3.4406,3.4387,3.4294,3.4245,3.4245,3.4276,3.4281,3.4305,3.4316,3.434,3.4404,3.4386,3.4363,3.4351,3.4374,3.4397,3.4397,3.442,3.4443,3.4484,3.4517,3.4539,3.4502,3.4344,3.4288,3.4078,3.3537,3.2913,3.2336,3.1416,3.0581,3.0451,3.0015,2.9539,2.9483,2.9595,2.951,2.9465,2.9492,2.9444,2.9415,2.9407,2.9388,2.9388,2.9388,2.9388,2.9388,2.9099,2.8467,2.765,2.6981,2.6442,2.5662,2.4908,2.4704,2.45,2.45,2.45,2.45,2.45,2.45,2.45,2.45,2.4268,2.3935,2.3603,2.3046,2.2537,2.2076,2.1634,2.107,2.1232,2.143,2.1142,2.0854,2.1182,4.0406,3.8929,3.9007,3.9031,3.9064,3.9087,3.9101,3.9101,3.9101,3.9101,3.9101,3.9138,3.9565,4.0323,4.0899,4.1661,4.2556,4.2853,4.2835,4.2853,4.2835,4.2835,4.2797,4.2797,4.2537,4.224,4.1757,4.0903,3.9825,3.9287,3.9157,3.9027,3.8655,3.8321,3.7875,3.7219,3.6513,3.6086,3.5343,3.486,3.4785,3.4494,3.4234,3.4216,3.4216,3.4221,3.4233,3.4264,3.4257,3.4281,3.4311,3.4281,3.4269,3.4269,3.4293,3.4323,3.4347,3.4351,3.4351,3.4397,3.445,3.4443,3.4431,3.4431,3.4364,3.4001,3.3571,3.291,3.2143,3.1218,3.1199,3.0809,3.0697,3.0641,3.0586,3.0177,2.9768,2.9842,2.9712,2.9508,2.9407,2.9388,2.9388,2.9388,2.9388,2.9388,2.9388,2.8913,2.8263,2.7947,2.7483,2.6609,2.5782,2.5169,2.4908,2.4741,2.4723,2.4685,2.45,2.45,2.4491,2.4491,2.4465,2.429,2.3956,2.3606,2.3189,2.2654,2.236,2.2066,2.1957,2.1867,2.184,2.1887,2.2174,4.0037,3.8762,3.891,3.9057,3.9197,3.9119,3.9185,3.9291,3.9157,3.9101,3.9101,3.9138,3.9584,4.049,4.1479,4.2593,4.3968,4.3931,4.3875,4.3838,4.3838,4.3931,4.3986,4.3949,4.3596,4.3058,4.2667,4.1962,4.0457,3.9751,3.9342,3.912,3.9082,3.8841,3.8247,3.7856,3.7485,3.6928,3.6166,3.5733,3.5361,3.4847,3.4327,3.429,3.4346,3.4513,3.4581,3.486,3.4748,3.4655,3.4525,3.4414,3.4253,3.4216,3.4216,3.4228,3.4264,3.4269,3.4293,3.4316,3.434,3.434,3.437,3.437,3.434,3.4193,3.3941,3.3255,3.2518,3.2054,3.2017,3.1849,3.1738,3.1701,3.1589,3.1403,3.0586,3.0214,2.9973,2.975,2.9518,2.9407,2.9396,2.9388,2.9388,2.9388,2.9388,2.9295,2.8783,2.8969,2.8523,2.7613,2.6739,2.5903,2.5439,2.5094,2.5076,2.5057,2.4723,2.45,2.4491,2.4482,2.4447,2.4393,2.4293,2.3924,2.3582,2.3351,2.3186,2.291,2.2533,2.2479,2.2774,2.2839,2.2959,3.9284,3.8556,3.8762,3.9254,3.9775,3.9256,3.9433,3.9892,3.9319,3.9101,3.9087,3.9138,3.9584,4.0568,4.198,4.3095,4.3745,4.4005,4.4005,4.4005,4.4005,4.4005,4.4005,4.4005,4.3949,4.3615,4.3132,4.1906,4.0903,4.0434,3.9825,3.9361,3.925,3.9027,3.8785,3.8321,3.7875,3.7634,3.6965,3.6235,3.5659,3.5417,3.4977,3.4717,3.4952,3.5361,3.5417,3.577,3.5919,3.5398,3.5361,3.4971,3.4364,3.4216,3.4216,3.4216,3.4228,3.4209,3.4221,3.4245,3.4245,3.4245,3.4264,3.4252,3.4252,3.4233,3.4147,3.4098,3.3305,3.289,3.2741,3.2265,3.1949,3.1968,3.2128,3.2035,3.1533,3.1069,3.0753,2.9861,2.9582,2.9452,2.9415,2.9396,2.9388,2.9388,2.937,2.9277,2.924,2.9351,2.9388,2.8467,2.7538,2.6684,2.6089,2.5745,2.5633,2.555,2.5104,2.4695,2.4678,2.467,2.4421,2.4367,2.4294,2.4257,2.3989,2.3879,2.3943,2.375,2.3373,2.3566,2.3952,2.3915,2.3667,3.8308,3.8218,3.8462,3.8854,3.9255,3.898,3.911,3.9324,3.9145,3.9007,3.905,3.905,3.956,4.0573,4.2073,4.2946,4.3373,4.3763,4.3986,4.4005,4.4005,4.4005,4.4005,4.4005,4.4005,4.3912,4.3596,4.3039,4.1943,4.1215,4.0643,3.9918,3.9788,3.9547,3.9157,3.8767,3.8618,3.8358,3.7801,3.7002,3.6402,3.616,3.6012,3.564,3.5974,3.6142,3.629,3.642,3.6569,3.6197,3.6197,3.6049,3.5702,3.5627,3.5627,3.559,3.5182,3.4754,3.4321,3.4253,3.4216,3.4216,3.4216,3.4228,3.4216,3.4216,3.4216,3.4179,3.39,3.3707,3.3652,3.3373,3.3262,3.3131,3.2897,3.2971,3.2804,3.2258,3.1682,3.0641,2.9712,2.9694,2.9582,2.9415,2.9407,2.9388,2.9388,2.9351,2.9314,2.937,2.9388,2.9258,2.8319,2.739,2.6869,2.647,2.6433,2.6256,2.568,2.5318,2.5069,2.4912,2.4644,2.4377,2.4257,2.4238,2.4247,2.4201,2.409,2.4126,2.419,2.4199,2.4199,2.4181,2.3979,3.7485,3.7792,3.8136,3.8494,3.8852,3.8762,3.8857,3.9098,3.8929,3.8896,3.8935,3.9001,3.9489,4.0381,4.1512,4.222,4.2829,4.3386,4.3754,4.3884,4.3974,4.3989,4.3989,4.4005,4.4005,4.4005,4.3949,4.3559,4.3076,4.2445,4.1683,4.0471,4.0285,3.9844,3.9305,3.9027,3.899,3.8934,3.8488,3.7782,3.7151,3.7015,3.6853,3.6779,3.6853,3.6983,3.7021,3.7318,3.7355,3.7002,3.7015,3.6853,3.6569,3.6458,3.6463,3.6383,3.6012,3.559,3.4996,3.4624,3.4309,3.4216,3.4216,3.4216,3.4216,3.4216,3.4216,3.4216,3.4179,3.4141,3.4197,3.4135,3.3993,3.3956,3.3993,3.4141,3.4048,3.3169,3.2648,3.2128,3.1143,3.0121,2.9935,2.9564,2.9434,2.9407,2.9388,2.9388,2.9378,2.9378,2.9378,2.9378,2.9006,2.8234,2.7947,2.7538,2.739,2.699,2.6414,2.5857,2.5551,2.5153,2.4774,2.4533,2.4293,2.4201,2.4228,2.4209,2.4199,2.4199,2.4199,2.4199,2.4199,2.4199,2.4199,3.7087,3.7204,3.7703,3.8486,3.9302,3.8711,3.888,3.9347,3.8912,3.875,3.8803,3.8899,3.9335,3.9996,4.0421,4.1268,4.2506,4.2654,4.3053,4.3529,4.3913,4.3831,4.3844,4.3896,4.4005,4.4005,4.3989,4.3934,4.3841,4.3531,4.2262,4.075,4.0624,3.9937,3.9361,3.9087,3.9101,3.9101,3.8878,3.8544,3.8005,3.7764,3.7541,3.7151,3.7429,3.7819,3.787,3.8339,3.8414,3.7856,3.7819,3.7596,3.7225,3.7113,3.7132,3.7071,3.6798,3.65,3.6166,3.512,3.4309,3.4216,3.4216,3.4216,3.4216,3.4216,3.4216,3.4216,3.4216,3.4216,3.4216,3.4216,3.4216,3.4216,3.4216,3.4216,3.4048,3.3603,3.3187,3.325,3.2444,3.105,3.014,2.9731,2.9434,2.9388,2.9388,2.9388,2.9396,2.9386,2.9368,2.9357,2.9386,2.9126,2.907,2.8736,2.8149,2.772,2.7247,2.656,2.5967,2.5503,2.4994,2.4698,2.4485,2.4337,2.4199,2.4199,2.4199,2.4199,2.4199,2.4199,2.4199,2.4199,2.4199,3.6888,3.705,3.7278,3.7792,3.8506,3.8215,3.8334,3.8649,3.853,3.8515,3.8603,3.8698,3.8891,3.9258,3.9792,4.0249,4.0983,4.1562,4.1947,4.2395,4.2757,4.3113,4.3327,4.3695,4.4005,4.4008,4.3958,4.3945,4.3926,4.3823,4.2714,4.1511,4.0959,4.0173,3.956,3.9092,3.9087,3.9101,3.9101,3.8878,3.8785,3.8637,3.8488,3.8321,3.8358,3.8618,3.8674,3.8897,3.8841,3.8711,3.8599,3.8321,3.8079,3.8042,3.8024,3.7949,3.7671,3.7466,3.7151,3.5956,3.4822,3.4253,3.4216,3.4271,3.4383,3.4234,3.4216,3.4216,3.4216,3.4216,3.4216,3.4216,3.4216,3.4216,3.4216,3.4216,3.4067,3.3714,3.364,3.3677,3.2648,3.131,3.0549,2.988,2.9601,2.9388,2.9388,2.9378,2.9376,2.9355,2.9326,2.9304,2.9304,2.9323,2.9249,2.9016,2.8746,2.8392,2.803,2.7389,2.6648,2.5761,2.527,2.4955,2.4668,2.4493,2.4337,2.4254,2.4218,2.4208,2.4208,2.4199,2.4199,2.4199,2.4199,3.6725,3.6869,3.6888,3.7239,3.7703,3.7739,3.7845,3.7984,3.807,3.8204,3.8366,3.8412,3.846,3.8643,3.9008,3.9554,3.99,4.0404,4.0799,4.1303,4.1875,4.2337,4.2754,4.3175,4.3614,4.3818,4.3915,4.3867,4.3798,4.3511,4.2447,4.1507,4.1028,4.01,3.9363,3.9036,3.9078,3.9059,3.9087,3.9101,3.9082,3.9064,3.9045,3.899,3.9008,3.9008,3.899,3.9064,3.9064,3.9027,3.9027,3.9064,3.9064,3.9082,3.9101,3.8897,3.8637,3.8265,3.7856,3.6829,3.564,3.5256,3.5107,3.507,3.4903,3.4736,3.4729,3.4643,3.4457,3.4234,3.4271,3.4216,3.4216,3.4216,3.4216,3.4216,3.4216,3.3993,3.4048,3.4048,3.299,3.221,3.0917,3.0211,2.9614,2.9392,2.9336,2.9326,2.9296,2.9283,2.9251,2.9222,2.9211,2.92,2.92,2.9044,2.8944,2.8896,2.8524,2.8186,2.7453,2.653,2.5755,2.5468,2.5136,2.4722,2.4575,2.4566,2.441,2.4226,2.4245,2.4291,2.4199,2.4199,2.4199,3.6523,3.6523,3.6643,3.6968,3.7392,3.7393,3.7522,3.7703,3.7739,3.7827,3.8035,3.8085,3.8118,3.8171,3.8351,3.8694,3.9128,3.9451,3.9844,4.0455,4.0879,4.1562,4.2048,4.2482,4.2918,4.3601,4.3605,4.3463,4.3485,4.2901,4.1917,4.0916,4.0194,3.9623,3.8951,3.8983,3.9011,3.9007,3.9078,3.9073,3.9087,3.9087,3.9087,3.9101,3.9101,3.9101,3.9101,3.9101,3.9101,3.9101,3.9101,3.9101,3.9101,3.9101,3.9101,3.9045,3.9027,3.899,3.8897,3.7517,3.6773,3.6346,3.6055,3.6185,3.629,3.5974,3.5473,3.5417,3.4977,3.4531,3.4346,3.429,3.4364,3.4364,3.4383,3.4216,3.4216,3.4216,3.4216,3.4204,3.4048,3.351,3.1871,3.0568,2.9776,2.9413,2.932,2.9272,2.9232,2.9211,2.9186,2.9134,2.9123,2.9123,2.9152,2.9167,2.9141,2.9149,2.8997,2.8592,2.822,2.7518,2.6799,2.619,2.586,2.5676,2.5291,2.4952,2.4979,2.4997,2.4511,2.4401,2.4291,2.4373,2.4602,3.6423,3.6502,3.6544,3.6708,3.6948,3.7068,3.7241,3.7411,3.7485,3.7613,3.7774,3.7827,3.7898,3.7933,3.7968,3.813,3.8346,3.845,3.8843,3.9005,3.9665,4.0127,4.0683,4.1352,4.195,4.2572,4.274,4.2708,4.2636,4.211,4.1185,4.0186,3.9331,3.8889,3.8832,3.8881,3.8881,3.8921,3.895,3.8979,3.9021,3.9017,3.9045,3.9087,3.9087,3.9101,3.9101,3.9087,3.9101,3.9101,3.9101,3.9101,3.9101,3.9101,3.9101,3.9101,3.9101,3.9101,3.9045,3.8377,3.7758,3.7219,3.6866,3.6885,3.6643,3.6482,3.6296,3.6253,3.5906,3.5683,3.5887,3.5343,3.5175,3.4959,3.481,3.4364,3.4216,3.4216,3.4216,3.4191,3.4099,3.3277,3.1964,3.1009,3.0228,2.9688,2.9595,2.9289,2.9167,2.9134,2.9119,2.9055,2.9033,2.9044,2.9085,2.9089,2.91,2.9078,2.9055,2.8911,2.8532,2.8165,2.8026,2.7519,2.709,2.6667,2.6465,2.6256,2.6043,2.586,2.5419,2.5081,2.5044,2.5252,2.5552,3.6343,3.6423,3.6423,3.6502,3.6664,3.6849,3.7046,3.7239,3.7317,3.7448,3.754,3.7541,3.7595,3.7685,3.7703,3.7685,3.7685,3.7757,3.7792,3.7881,3.8559,3.915,3.9652,4.0081,4.0859,4.1459,4.1661,4.1609,4.1503,4.1177,4.0217,3.9096,3.8445,3.838,3.8465,3.859,3.8713,3.8758,3.8803,3.8877,3.8906,3.8935,3.8979,3.9021,3.905,3.9059,3.9059,3.9073,3.9101,3.9101,3.9101,3.9101,3.9101,3.9101,3.9101,3.9101,3.9101,3.9101,3.9064,3.9045,3.8395,3.7819,3.7541,3.7522,3.7442,3.7318,3.7169,3.7058,3.6928,3.6779,3.6612,3.6049,3.5844,3.564,3.5175,3.4717,3.4271,3.4271,3.4191,3.4179,3.4006,3.3093,3.2287,3.1463,3.0683,3.0266,2.9886,2.9543,2.92,2.9085,2.9074,2.9021,2.8987,2.901,2.901,2.901,2.901,2.8987,2.8987,2.8987,2.8913,2.8594,2.873,2.8822,2.8216,2.7805,2.7824,2.764,2.6906,2.6594,2.6484,2.6153,2.5897,2.6078,2.6413,3.6284,3.6284,3.6284,3.6364,3.6506,3.669,3.6911,3.7108,3.7222,3.7314,3.7297,3.7298,3.7353,3.7334,3.7316,3.7353,3.7372,3.7429,3.743,3.7504,3.7918,3.8402,3.8779,3.9138,3.9732,4.0256,4.051,4.042,4.0275,3.968,3.8797,3.8204,3.7971,3.795,3.8103,3.8251,3.8412,3.8544,3.8655,3.8713,3.8758,3.8818,3.8848,3.8892,3.8935,3.8964,3.8993,3.905,3.9092,3.9087,3.9101,3.9101,3.9101,3.9101,3.9101,3.9101,3.9101,3.9101,3.9101,3.9101,3.9064,3.8655,3.8804,3.9008,3.8767,3.8228,3.8005,3.7782,3.7596,3.7225,3.6891,3.6699,3.6495,3.6086,3.5621,3.5083,3.4513,3.4315,3.4198,3.413,3.4055,3.3474,3.2896,3.2103,3.1378,3.1035,3.0637,3.0202,2.9786,2.9095,2.9065,2.901,2.8987,2.8987,2.8987,2.8987,2.8987,2.8987,2.8987,2.8987,2.895,2.895,2.8932,2.8932,2.8968,2.8785,2.8484,2.7915,2.72,2.709,2.7402,2.7108,2.6814,2.6943,2.7178,3.6284,3.6284,3.6284,3.6322,3.6381,3.6523,3.6708,3.6891,3.7009,3.7106,3.7147,3.7164,3.7203,3.7297,3.7297,3.7297,3.7297,3.7333,3.7334,3.7391,3.7428,3.7645,3.7844,3.8078,3.858,3.903,3.9317,3.9317,3.9136,3.8436,3.8114,3.7739,3.772,3.7703,3.7757,3.7862,3.8087,3.8287,3.8403,3.8496,3.8559,3.8603,3.8634,3.8695,3.8788,3.8818,3.8862,3.8964,3.9007,3.9021,3.9073,3.9101,3.9101,3.9101,3.9101,3.9101,3.9101,3.9101,3.9101,3.9101,3.9101,3.9101,3.9101,3.9101,3.9008,3.8878,3.8674,3.8432,3.8321,3.8042,3.7838,3.7652,3.7368,3.6909,3.6352,3.5683,3.5089,3.4482,3.4334,3.4049,3.3972,3.3815,3.3256,3.2844,3.2175,3.185,3.1452,3.0962,3.0467,2.9787,2.928,2.9244,2.917,2.9225,2.9042,2.8987,2.8987,2.8987,2.8987,2.8987,2.8987,2.8968,2.8987,2.8987,2.8987,2.895,2.8822,2.8271,2.7794,2.8161,2.8436,2.8069,2.7805,2.7849,2.7941,3.6284,3.6284,3.6284,3.6284,3.6322,3.6444,3.6585,3.6708,3.6831,3.697,3.705,3.7068,3.7106,3.7163,3.718,3.7163,3.7163,3.7105,3.7085,3.7085,3.7124,3.7161,3.7164,3.7257,3.7599,3.7975,3.821,3.8318,3.8423,3.8565,3.8334,3.7945,3.7835,3.764,3.7573,3.7576,3.7685,3.7898,3.807,3.8186,3.8269,3.8332,3.8399,3.8478,3.8572,3.8618,3.8698,3.8818,3.891,3.8935,3.9007,3.9045,3.9059,3.9073,3.9101,3.9101,3.9101,3.9101,3.9101,3.9101,3.9101,3.9101,3.9101,3.9101,3.9101,3.9008,3.899,3.8934,3.899,3.899,3.8859,3.8674,3.8265,3.7875,3.7132,3.6376,3.5596,3.4798,3.4389,3.4041,3.3908,3.3842,3.3576,3.322,3.2871,3.243,3.2027,3.1641,3.1201,3.0668,3.0081,2.9769,2.961,2.95,2.9317,2.9207,2.9189,2.917,2.8987,2.8987,2.9005,2.906,2.9115,2.906,2.8987,2.9005,2.9078,2.8987,2.8748,2.8987,2.8987,2.8656,2.8418,2.8528,2.8656,3.6284,3.6284,3.6284,3.6284,3.6322,3.644,3.6502,3.6523,3.6708,3.6849,3.6968,3.6987,3.6989,3.7046,3.7046,3.7027,3.697,3.6928,3.6886,3.6791,3.6849,3.6869,3.6888,3.6946,3.7112,3.7079,3.7328,3.7987,3.8518,3.8768,3.879,3.8477,3.83,3.8017,3.7595,3.7369,3.741,3.7503,3.7721,3.7915,3.7966,3.8052,3.8138,3.8221,3.8285,3.8364,3.8494,3.8637,3.8777,3.8837,3.8892,3.8964,3.9021,3.9078,3.9087,3.9101,3.9101,3.9101,3.9101,3.9101,3.9101,3.9101,3.9101,3.9101,3.9101,3.9101,3.9101,3.9101,3.9101,3.9101,3.8971,3.8888,3.8614,3.8229,3.7659,3.7108,3.6544,3.5623,3.4763,3.4418,3.4186,3.4096,3.3784,3.344,3.3348,3.2926,3.2687,3.2375,3.21,3.1672,3.1054,3.0503,3.0301,3.0173,2.9941,2.9794,2.9555,2.9409,2.9354,2.9482,2.9861,2.9641,2.9262,2.9537,2.9861,2.9445,2.9335,2.9335,2.9262,2.8987,2.8987,2.8987,2.9005,2.906,2.8968,3.6284,3.6284,3.6284,3.6284,3.6284,3.6339,3.6423,3.6502,3.6527,3.667,3.6829,3.6851,3.6908,3.6968,3.6968,3.6948,3.6849,3.6788,3.6786,3.6725,3.6705,3.6684,3.6705,3.6745,3.6766,3.6975,3.7382,3.8108,3.8853,3.9175,3.9252,3.9012,3.8664,3.8104,3.7787,3.7494,3.7184,3.7222,3.7373,3.7577,3.7667,3.7721,3.7775,3.7863,3.7949,3.8069,3.8203,3.8382,3.8559,3.8701,3.8792,3.8896,3.9011,3.9078,3.9101,3.9101,3.9101,3.9101,3.9101,3.9101,3.9101,3.9101,3.9101,3.9101,3.9101,3.9101,3.9101,3.9101,3.9101,3.9101,3.9069,3.9008,3.891,3.8544,3.8215,3.784,3.7461,3.6408,3.5302,3.4995,3.4706,3.427,3.399,3.3788,3.3697,3.3605,3.355,3.3385,3.3293,3.2926,3.2173,3.1623,3.1219,3.0999,3.0687,3.0485,3.0301,3.0411,3.0522,3.0632,3.0705,3.0485,3.0283,3.0687,3.087,3.0375,3.0008,2.9971,2.9806,2.95,2.939,2.9555,2.939,2.9372,2.917,3.6284,3.6284,3.6284,3.6284,3.6284,3.6284,3.6343,3.6402,3.6423,3.6506,3.6667,3.6728,3.6806,3.6866,3.6866,3.6866,3.6766,3.6705,3.6664,3.6623,3.6561,3.6523,3.6523,3.6544,3.6523,3.6749,3.7818,3.8664,3.943,3.9962,4.0093,3.9594,3.8898,3.8345,3.8085,3.7464,3.7083,3.7068,3.7214,3.7328,3.7443,3.7446,3.7485,3.7577,3.7631,3.7774,3.7915,3.8086,3.8236,3.8467,3.8624,3.881,3.891,3.8993,3.9031,3.9059,3.9073,3.9101,3.9101,3.9087,3.9087,3.9087,3.9101,3.9101,3.905,3.905,3.9073,3.9059,3.9031,3.9031,3.9036,3.8974,3.8946,3.8695,3.8584,3.8385,3.7995,3.7329,3.6922,3.6974,3.6142,3.4729,3.438,3.3935,3.3844,3.3752,3.3788,3.3807,3.3825,3.4064,3.3348,3.2724,3.2302,3.1678,3.1164,3.1091,3.1091,3.1292,3.1586,3.1347,3.1201,3.1274,3.1366,3.1525,3.1488,3.1146,3.0852,3.0779,3.0705,3.0522,3.0338,3.0246,3.0026,2.9886,3.0008,3.6284,3.6284,3.6284,3.6284,3.6284,3.6284,3.6284,3.6284,3.6284,3.6364,3.6464,3.6602,3.6643,3.6702,3.6719,3.6681,3.6661,3.6585,3.6523,3.6444,3.6381,3.6381,3.6364,3.6305,3.6567,3.7141,3.8122,3.9215,4.0207,4.0595,4.0542,4.006,3.943,3.8783,3.8105,3.7533,3.7226,3.7471,3.7562,3.7386,3.7328,3.7214,3.7297,3.7318,3.7374,3.7449,3.7631,3.7775,3.7897,3.8171,3.8451,3.8624,3.8777,3.8862,3.8935,3.8979,3.9003,3.9031,3.9064,3.9045,3.9045,3.9059,3.9073,3.9045,3.8993,3.8993,3.9021,3.9021,3.8993,3.8979,3.895,3.8939,3.891,3.8896,3.8844,3.8807,3.842,3.8099,3.8257,3.8414,3.7147,3.5536,3.4912,3.4449,3.4247,3.41,3.4009,3.3917,3.4009,3.4431,3.4321,3.3788,3.333,3.2651,3.1953,3.188,3.2045,3.2173,3.2357,3.1971,3.1801,3.2137,3.2247,3.2039,3.1929,3.1898,3.1715,3.1568,3.1494,3.1366,3.1035,3.0797,3.0852,3.0815,3.1164,3.6284,3.6284,3.6284,3.6284,3.6284,3.6284,3.6284,3.6284,3.6284,3.6305,3.6343,3.6381,3.6482,3.6719,3.6719,3.6661,3.6523,3.6464,3.6423,3.6343,3.6322,3.6284,3.6284,3.6318,3.7094,3.7823,3.8553,3.9449,4.0435,4.0915,4.0804,4.0142,3.9417,3.8955,3.8763,3.8231,3.7882,3.8108,3.8318,3.8318,3.8063,3.7804,3.7156,3.7127,3.7166,3.7262,3.7411,3.7485,3.7685,3.7933,3.8238,3.8401,3.8544,3.8683,3.8773,3.8833,3.8873,3.895,3.8964,3.8964,3.8979,3.8979,3.8979,3.8964,3.8921,3.8925,3.8921,3.8921,3.8892,3.8925,3.8896,3.8851,3.8822,3.881,3.8792,3.8762,3.8551,3.8481,3.8557,3.8358,3.7734,3.667,3.6009,3.5679,3.5569,3.5459,3.5422,3.5257,3.4541,3.4853,3.5257,3.4945,3.4504,3.3917,3.3366,3.3091,3.3146,3.322,3.3164,3.2871,3.2889,3.3311,3.3311,3.2871,3.2908,3.2999,3.2779,3.2375,3.21,3.1898,3.1513,3.1311,3.1476,3.1715,3.2045]}]]